<?xml version="1.0" encoding="UTF-8" standalone="yes"?>
<gpx
 xmlns="http://www.topografix.com/GPX/1/1"
 creator="OziExplorer Version 3956f - http://www.oziexplorer.com"
 version="1.1"
 xmlns:xsi="http://www.w3.org/2001/XMLSchema-instance"
 xsi:schemaLocation="http://www.topografix.com/GPX/1/1 http://www.topografix.com/GPX/1/1/gpx.xsd">
<metadata>
 <time>2024-12-07T08:24:17Z</time>
 <bounds minlat="31.147840" minlon="35.229390" maxlat="31.260620" maxlon="35.370010"/>
</metadata>
<wpt lat="31.2604200" lon="35.2345500">
 <time>2024-12-07T10:23:37.225Z</time>
 <name>Start</name>
 <sym>Bike Trail</sym>
</wpt>
<wpt lat="31.2545300" lon="35.2302700">
 <time>2024-12-07T10:23:37.246Z</time>
 <name>Tatspit</name>
 <sym>Flag, Red</sym>
</wpt>
<wpt lat="31.2606000" lon="35.2305100">
 <time>2024-12-07T10:23:37.246Z</time>
 <name>GamalAdom</name>
 <sym>Flag, Red</sym>
</wpt>
<wpt lat="31.2423200" lon="35.2543900">
 <time>2024-12-07T10:23:37.247Z</time>
 <name>GamalAdom</name>
 <sym>Flag, Red</sym>
</wpt>
<wpt lat="31.2350500" lon="35.2565500">
 <time>2024-12-07T10:23:37.248Z</time>
 <name>Jipovka</name>
 <sym>Flag, Red</sym>
</wpt>
<wpt lat="31.2353300" lon="35.2605800">
 <time>2024-12-07T10:23:37.248Z</time>
 <name>HanionLailaMorag</name>
 <sym>Flag, Red</sym>
</wpt>
<wpt lat="31.2418500" lon="35.2393500">
 <time>2024-12-07T10:23:37.249Z</time>
 <name>Tatspit</name>
 <sym>Flag, Red</sym>
</wpt>
<wpt lat="31.2232900" lon="35.3051900">
 <time>2024-12-07T10:23:37.250Z</time>
 <name>Tatspit</name>
 <sym>Flag, Red</sym>
</wpt>
<wpt lat="31.2230000" lon="35.3055700">
 <time>2024-12-07T10:23:37.250Z</time>
 <name>Tatspit</name>
 <sym>Flag, Red</sym>
</wpt>
<wpt lat="31.2290000" lon="35.3382800">
 <time>2024-12-07T10:23:37.251Z</time>
 <name>SinglKKL</name>
 <sym>Flag, Red</sym>
</wpt>
<wpt lat="31.2315300" lon="35.3466300">
 <time>2024-12-07T10:23:37.251Z</time>
 <name>Tatspit</name>
 <sym>Flag, Red</sym>
</wpt>
<wpt lat="31.2347400" lon="35.3445500">
 <time>2024-12-07T10:23:37.252Z</time>
 <name>TatspitYair</name>
 <sym>Flag, Red</sym>
</wpt>
<wpt lat="31.2082500" lon="35.3505200">
 <time>2024-12-07T10:23:37.252Z</time>
 <name>Tatspit</name>
 <sym>Flag, Red</sym>
</wpt>
<wpt lat="31.2073000" lon="35.3505700">
 <time>2024-12-07T10:23:37.253Z</time>
 <name>Tatspit</name>
 <sym>Flag, Red</sym>
</wpt>
<wpt lat="31.1939800" lon="35.3415500">
 <time>2024-12-07T10:23:37.254Z</time>
 <name>Tatspit</name>
 <sym>Flag, Red</sym>
</wpt>
<wpt lat="31.1515100" lon="35.3464100">
 <time>2024-12-07T10:23:37.254Z</time>
 <name>MezadZohar</name>
 <sym>Flag, Red</sym>
</wpt>
<wpt lat="31.1506800" lon="35.3466300">
 <time>2024-12-07T10:23:37.255Z</time>
 <name>Jipovka</name>
 <sym>Flag, Red</sym>
</wpt>
<wpt lat="31.1482400" lon="35.3700100">
 <time>2024-12-07T10:23:37.256Z</time>
 <name>Finish</name>
 <sym>Flag, Red</sym>
</wpt>
<trk>
 <name>Arad-Morag-Zohar_SinGamalKKL_40km.3</name>
 <desc>Arad-Morag-Zohar_SinGamalKKL_40km.3</desc>
<trkseg>
<trkpt lat="31.2604200" lon="35.2345500">
<ele>610.020020</ele>
<time>2024-12-07T10:23:37.256Z</time>
</trkpt>
<trkpt lat="31.2604000" lon="35.2334300">
<ele>600.940002</ele>
<time>2024-12-07T10:23:37.256Z</time>
</trkpt>
<trkpt lat="31.2603900" lon="35.2331100">
<ele>600.400024</ele>
<time>2024-12-07T10:23:37.256Z</time>
</trkpt>
<trkpt lat="31.2603800" lon="35.2325700">
<ele>601.739990</ele>
<time>2024-12-07T10:23:37.256Z</time>
</trkpt>
<trkpt lat="31.2603900" lon="35.2322900">
<ele>601.359985</ele>
<time>2024-12-07T10:23:37.256Z</time>
</trkpt>
<trkpt lat="31.2604000" lon="35.2320800">
<ele>600.750000</ele>
<time>2024-12-07T10:23:37.256Z</time>
</trkpt>
<trkpt lat="31.2604300" lon="35.2317000">
<ele>599.860046</ele>
<time>2024-12-07T10:23:37.256Z</time>
</trkpt>
<trkpt lat="31.2604600" lon="35.2314000">
<ele>599.320007</ele>
<time>2024-12-07T10:23:37.256Z</time>
</trkpt>
<trkpt lat="31.2605000" lon="35.2311800">
<ele>597.140015</ele>
<time>2024-12-07T10:23:37.256Z</time>
</trkpt>
<trkpt lat="31.2605000" lon="35.2311300">
<ele>596.460022</ele>
<time>2024-12-07T10:23:37.256Z</time>
</trkpt>
<trkpt lat="31.2605700" lon="35.2307500">
<ele>593.260010</ele>
<time>2024-12-07T10:23:37.256Z</time>
</trkpt>
<trkpt lat="31.2606200" lon="35.2305200">
<ele>591.440002</ele>
<time>2024-12-07T10:23:37.256Z</time>
</trkpt>
<trkpt lat="31.2594900" lon="35.2303000">
<ele>582.820007</ele>
<time>2024-12-07T10:23:37.256Z</time>
</trkpt>
<trkpt lat="31.2594900" lon="35.2302800">
<ele>582.669983</ele>
<time>2024-12-07T10:23:37.256Z</time>
</trkpt>
<trkpt lat="31.2594100" lon="35.2302600">
<ele>581.380005</ele>
<time>2024-12-07T10:23:37.256Z</time>
</trkpt>
<trkpt lat="31.2591600" lon="35.2302400">
<ele>576.200012</ele>
<time>2024-12-07T10:23:37.256Z</time>
</trkpt>
<trkpt lat="31.2591100" lon="35.2302200">
<ele>576.780029</ele>
<time>2024-12-07T10:23:37.256Z</time>
</trkpt>
<trkpt lat="31.2587700" lon="35.2301700">
<ele>578.710022</ele>
<time>2024-12-07T10:23:37.256Z</time>
</trkpt>
<trkpt lat="31.2584600" lon="35.2301100">
<ele>581.140015</ele>
<time>2024-12-07T10:23:37.256Z</time>
</trkpt>
<trkpt lat="31.2581000" lon="35.2299900">
<ele>589.030029</ele>
<time>2024-12-07T10:23:37.256Z</time>
</trkpt>
<trkpt lat="31.2577300" lon="35.2298700">
<ele>596.250000</ele>
<time>2024-12-07T10:23:37.256Z</time>
</trkpt>
<trkpt lat="31.2575100" lon="35.2297500">
<ele>597.830017</ele>
<time>2024-12-07T10:23:37.256Z</time>
</trkpt>
<trkpt lat="31.2574800" lon="35.2297400">
<ele>597.720032</ele>
<time>2024-12-07T10:23:37.256Z</time>
</trkpt>
<trkpt lat="31.2572100" lon="35.2296000">
<ele>595.880005</ele>
<time>2024-12-07T10:23:37.256Z</time>
</trkpt>
<trkpt lat="31.2569300" lon="35.2294800">
<ele>596.559998</ele>
<time>2024-12-07T10:23:37.256Z</time>
</trkpt>
<trkpt lat="31.2568700" lon="35.2294600">
<ele>595.859985</ele>
<time>2024-12-07T10:23:37.256Z</time>
</trkpt>
<trkpt lat="31.2566500" lon="35.2294100">
<ele>592.450012</ele>
<time>2024-12-07T10:23:37.256Z</time>
</trkpt>
<trkpt lat="31.2564600" lon="35.2294000">
<ele>586.179993</ele>
<time>2024-12-07T10:23:37.256Z</time>
</trkpt>
<trkpt lat="31.2563200" lon="35.2293900">
<ele>582.049988</ele>
<time>2024-12-07T10:23:37.256Z</time>
</trkpt>
<trkpt lat="31.2561400" lon="35.2294000">
<ele>577.030029</ele>
<time>2024-12-07T10:23:37.256Z</time>
</trkpt>
<trkpt lat="31.2560000" lon="35.2294000">
<ele>574.659973</ele>
<time>2024-12-07T10:23:37.256Z</time>
</trkpt>
<trkpt lat="31.2558600" lon="35.2294200">
<ele>572.039978</ele>
<time>2024-12-07T10:23:37.256Z</time>
</trkpt>
<trkpt lat="31.2557400" lon="35.2294600">
<ele>572.640015</ele>
<time>2024-12-07T10:23:37.256Z</time>
</trkpt>
<trkpt lat="31.2554500" lon="35.2295500">
<ele>579.220032</ele>
<time>2024-12-07T10:23:37.256Z</time>
</trkpt>
<trkpt lat="31.2553900" lon="35.2295700">
<ele>580.250000</ele>
<time>2024-12-07T10:23:37.256Z</time>
</trkpt>
<trkpt lat="31.2551900" lon="35.2296500">
<ele>583.169983</ele>
<time>2024-12-07T10:23:37.256Z</time>
</trkpt>
<trkpt lat="31.2550500" lon="35.2297100">
<ele>585.330017</ele>
<time>2024-12-07T10:23:37.256Z</time>
</trkpt>
<trkpt lat="31.2548900" lon="35.2298100">
<ele>588.739990</ele>
<time>2024-12-07T10:23:37.256Z</time>
</trkpt>
<trkpt lat="31.2547100" lon="35.2299800">
<ele>591.700012</ele>
<time>2024-12-07T10:23:37.256Z</time>
</trkpt>
<trkpt lat="31.2546700" lon="35.2300300">
<ele>592.339966</ele>
<time>2024-12-07T10:23:37.256Z</time>
</trkpt>
<trkpt lat="31.2546700" lon="35.2300400">
<ele>592.390015</ele>
<time>2024-12-07T10:23:37.256Z</time>
</trkpt>
<trkpt lat="31.2545100" lon="35.2301900">
<ele>592.559998</ele>
<time>2024-12-07T10:23:37.256Z</time>
</trkpt>
<trkpt lat="31.2545400" lon="35.2304300">
<ele>592.880005</ele>
<time>2024-12-07T10:23:37.256Z</time>
</trkpt>
<trkpt lat="31.2545000" lon="35.2308900">
<ele>593.450012</ele>
<time>2024-12-07T10:23:37.256Z</time>
</trkpt>
<trkpt lat="31.2544400" lon="35.2311400">
<ele>593.890015</ele>
<time>2024-12-07T10:23:37.256Z</time>
</trkpt>
<trkpt lat="31.2542700" lon="35.2313000">
<ele>589.599976</ele>
<time>2024-12-07T10:23:37.256Z</time>
</trkpt>
<trkpt lat="31.2542100" lon="35.2313400">
<ele>588.089966</ele>
<time>2024-12-07T10:23:37.256Z</time>
</trkpt>
<trkpt lat="31.2541800" lon="35.2313700">
<ele>587.340027</ele>
<time>2024-12-07T10:23:37.256Z</time>
</trkpt>
<trkpt lat="31.2540700" lon="35.2313400">
<ele>585.260010</ele>
<time>2024-12-07T10:23:37.256Z</time>
</trkpt>
<trkpt lat="31.2539900" lon="35.2313400">
<ele>583.820007</ele>
<time>2024-12-07T10:23:37.256Z</time>
</trkpt>
<trkpt lat="31.2538200" lon="35.2314300">
<ele>579.989990</ele>
<time>2024-12-07T10:23:37.256Z</time>
</trkpt>
<trkpt lat="31.2536800" lon="35.2314700">
<ele>576.760010</ele>
<time>2024-12-07T10:23:37.256Z</time>
</trkpt>
<trkpt lat="31.2538400" lon="35.2313400">
<ele>580.940002</ele>
<time>2024-12-07T10:23:37.256Z</time>
</trkpt>
<trkpt lat="31.2538400" lon="35.2313400">
<ele>580.940002</ele>
<time>2024-12-07T10:23:37.256Z</time>
</trkpt>
<trkpt lat="31.2538400" lon="35.2313400">
<ele>580.940002</ele>
<time>2024-12-07T10:23:37.256Z</time>
</trkpt>
<trkpt lat="31.2536800" lon="35.2314700">
<ele>576.760010</ele>
<time>2024-12-07T10:23:37.256Z</time>
</trkpt>
<trkpt lat="31.2535700" lon="35.2315100">
<ele>574.179993</ele>
<time>2024-12-07T10:23:37.256Z</time>
</trkpt>
<trkpt lat="31.2534800" lon="35.2315400">
<ele>571.820007</ele>
<time>2024-12-07T10:23:37.256Z</time>
</trkpt>
<trkpt lat="31.2534900" lon="35.2315500">
<ele>571.969971</ele>
<time>2024-12-07T10:23:37.256Z</time>
</trkpt>
<trkpt lat="31.2534800" lon="35.2315500">
<ele>571.730042</ele>
<time>2024-12-07T10:23:37.256Z</time>
</trkpt>
<trkpt lat="31.2534500" lon="35.2315600">
<ele>570.929993</ele>
<time>2024-12-07T10:23:37.256Z</time>
</trkpt>
<trkpt lat="31.2533300" lon="35.2315700">
<ele>568.070007</ele>
<time>2024-12-07T10:23:37.256Z</time>
</trkpt>
<trkpt lat="31.2533000" lon="35.2315700">
<ele>568.269958</ele>
<time>2024-12-07T10:23:37.256Z</time>
</trkpt>
<trkpt lat="31.2532300" lon="35.2315700">
<ele>568.760010</ele>
<time>2024-12-07T10:23:37.256Z</time>
</trkpt>
<trkpt lat="31.2531900" lon="35.2315700">
<ele>569.030029</ele>
<time>2024-12-07T10:23:37.256Z</time>
</trkpt>
<trkpt lat="31.2531500" lon="35.2315700">
<ele>569.309998</ele>
<time>2024-12-07T10:23:37.256Z</time>
</trkpt>
<trkpt lat="31.2531100" lon="35.2315700">
<ele>569.580017</ele>
<time>2024-12-07T10:23:37.256Z</time>
</trkpt>
<trkpt lat="31.2530700" lon="35.2315700">
<ele>569.859985</ele>
<time>2024-12-07T10:23:37.256Z</time>
</trkpt>
<trkpt lat="31.2530300" lon="35.2315800">
<ele>570.220032</ele>
<time>2024-12-07T10:23:37.256Z</time>
</trkpt>
<trkpt lat="31.2529600" lon="35.2315800">
<ele>570.640015</ele>
<time>2024-12-07T10:23:37.256Z</time>
</trkpt>
<trkpt lat="31.2528200" lon="35.2315900">
<ele>571.630005</ele>
<time>2024-12-07T10:23:37.256Z</time>
</trkpt>
<trkpt lat="31.2527000" lon="35.2316000">
<ele>573.650024</ele>
<time>2024-12-07T10:23:37.256Z</time>
</trkpt>
<trkpt lat="31.2526700" lon="35.2316100">
<ele>574.429993</ele>
<time>2024-12-07T10:23:37.256Z</time>
</trkpt>
<trkpt lat="31.2524900" lon="35.2316500">
<ele>578.559998</ele>
<time>2024-12-07T10:23:37.256Z</time>
</trkpt>
<trkpt lat="31.2524600" lon="35.2316700">
<ele>578.380005</ele>
<time>2024-12-07T10:23:37.256Z</time>
</trkpt>
<trkpt lat="31.2523700" lon="35.2317400">
<ele>576.919983</ele>
<time>2024-12-07T10:23:37.256Z</time>
</trkpt>
<trkpt lat="31.2522900" lon="35.2318800">
<ele>577.359985</ele>
<time>2024-12-07T10:23:37.256Z</time>
</trkpt>
<trkpt lat="31.2522500" lon="35.2319300">
<ele>578.339966</ele>
<time>2024-12-07T10:23:37.256Z</time>
</trkpt>
<trkpt lat="31.2522000" lon="35.2319700">
<ele>578.549988</ele>
<time>2024-12-07T10:23:37.256Z</time>
</trkpt>
<trkpt lat="31.2521000" lon="35.2320200">
<ele>577.880005</ele>
<time>2024-12-07T10:23:37.256Z</time>
</trkpt>
<trkpt lat="31.2520300" lon="35.2320600">
<ele>577.500000</ele>
<time>2024-12-07T10:23:37.256Z</time>
</trkpt>
<trkpt lat="31.2519500" lon="35.2321100">
<ele>577.190002</ele>
<time>2024-12-07T10:23:37.256Z</time>
</trkpt>
<trkpt lat="31.2519200" lon="35.2321300">
<ele>576.409973</ele>
<time>2024-12-07T10:23:37.256Z</time>
</trkpt>
<trkpt lat="31.2518900" lon="35.2321500">
<ele>575.589966</ele>
<time>2024-12-07T10:23:37.256Z</time>
</trkpt>
<trkpt lat="31.2518800" lon="35.2321500">
<ele>575.369995</ele>
<time>2024-12-07T10:23:37.256Z</time>
</trkpt>
<trkpt lat="31.2518800" lon="35.2321500">
<ele>575.369995</ele>
<time>2024-12-07T10:23:37.256Z</time>
</trkpt>
<trkpt lat="31.2518100" lon="35.2321800">
<ele>573.929993</ele>
<time>2024-12-07T10:23:37.256Z</time>
</trkpt>
<trkpt lat="31.2514900" lon="35.2322900">
<ele>569.450012</ele>
<time>2024-12-07T10:23:37.256Z</time>
</trkpt>
<trkpt lat="31.2512100" lon="35.2323300">
<ele>564.369995</ele>
<time>2024-12-07T10:23:37.256Z</time>
</trkpt>
<trkpt lat="31.2510800" lon="35.2323300">
<ele>561.909973</ele>
<time>2024-12-07T10:23:37.256Z</time>
</trkpt>
<trkpt lat="31.2507800" lon="35.2321600">
<ele>557.950012</ele>
<time>2024-12-07T10:23:37.256Z</time>
</trkpt>
<trkpt lat="31.2506200" lon="35.2321100">
<ele>553.780029</ele>
<time>2024-12-07T10:23:37.256Z</time>
</trkpt>
<trkpt lat="31.2505000" lon="35.2321300">
<ele>551.739990</ele>
<time>2024-12-07T10:23:37.256Z</time>
</trkpt>
<trkpt lat="31.2504200" lon="35.2321900">
<ele>551.789978</ele>
<time>2024-12-07T10:23:37.256Z</time>
</trkpt>
<trkpt lat="31.2503600" lon="35.2323000">
<ele>551.719971</ele>
<time>2024-12-07T10:23:37.256Z</time>
</trkpt>
<trkpt lat="31.2499100" lon="35.2326000">
<ele>549.529968</ele>
<time>2024-12-07T10:23:37.256Z</time>
</trkpt>
<trkpt lat="31.2496700" lon="35.2327500">
<ele>545.049988</ele>
<time>2024-12-07T10:23:37.256Z</time>
</trkpt>
<trkpt lat="31.2496000" lon="35.2328600">
<ele>542.210022</ele>
<time>2024-12-07T10:23:37.256Z</time>
</trkpt>
<trkpt lat="31.2493500" lon="35.2330200">
<ele>533.049988</ele>
<time>2024-12-07T10:23:37.256Z</time>
</trkpt>
<trkpt lat="31.2493100" lon="35.2330900">
<ele>530.260010</ele>
<time>2024-12-07T10:23:37.256Z</time>
</trkpt>
<trkpt lat="31.2493100" lon="35.2331300">
<ele>529.260010</ele>
<time>2024-12-07T10:23:37.256Z</time>
</trkpt>
<trkpt lat="31.2493800" lon="35.2333300">
<ele>526.760010</ele>
<time>2024-12-07T10:23:37.256Z</time>
</trkpt>
<trkpt lat="31.2493800" lon="35.2334400">
<ele>523.489990</ele>
<time>2024-12-07T10:23:37.256Z</time>
</trkpt>
<trkpt lat="31.2493100" lon="35.2334800">
<ele>520.169983</ele>
<time>2024-12-07T10:23:37.256Z</time>
</trkpt>
<trkpt lat="31.2492800" lon="35.2334300">
<ele>520.570007</ele>
<time>2024-12-07T10:23:37.256Z</time>
</trkpt>
<trkpt lat="31.2492000" lon="35.2332900">
<ele>521.409973</ele>
<time>2024-12-07T10:23:37.256Z</time>
</trkpt>
<trkpt lat="31.2490400" lon="35.2331900">
<ele>519.450012</ele>
<time>2024-12-07T10:23:37.256Z</time>
</trkpt>
<trkpt lat="31.2488500" lon="35.2331400">
<ele>514.940002</ele>
<time>2024-12-07T10:23:37.256Z</time>
</trkpt>
<trkpt lat="31.2486700" lon="35.2331500">
<ele>510.909973</ele>
<time>2024-12-07T10:23:37.256Z</time>
</trkpt>
<trkpt lat="31.2481800" lon="35.2333700">
<ele>508.379974</ele>
<time>2024-12-07T10:23:37.256Z</time>
</trkpt>
<trkpt lat="31.2480500" lon="35.2334500">
<ele>504.950012</ele>
<time>2024-12-07T10:23:37.256Z</time>
</trkpt>
<trkpt lat="31.2477300" lon="35.2338300">
<ele>498.870026</ele>
<time>2024-12-07T10:23:37.256Z</time>
</trkpt>
<trkpt lat="31.2475100" lon="35.2342400">
<ele>493.560028</ele>
<time>2024-12-07T10:23:37.256Z</time>
</trkpt>
<trkpt lat="31.2473900" lon="35.2344300">
<ele>491.089996</ele>
<time>2024-12-07T10:23:37.256Z</time>
</trkpt>
<trkpt lat="31.2472000" lon="35.2345700">
<ele>488.600006</ele>
<time>2024-12-07T10:23:37.256Z</time>
</trkpt>
<trkpt lat="31.2466700" lon="35.2350500">
<ele>465.569977</ele>
<time>2024-12-07T10:23:37.256Z</time>
</trkpt>
<trkpt lat="31.2464500" lon="35.2352800">
<ele>469.200012</ele>
<time>2024-12-07T10:23:37.256Z</time>
</trkpt>
<trkpt lat="31.2464600" lon="35.2352900">
<ele>468.720001</ele>
<time>2024-12-07T10:23:37.256Z</time>
</trkpt>
<trkpt lat="31.2464500" lon="35.2352800">
<ele>469.200012</ele>
<time>2024-12-07T10:23:37.256Z</time>
</trkpt>
<trkpt lat="31.2463700" lon="35.2353700">
<ele>469.079987</ele>
<time>2024-12-07T10:23:37.256Z</time>
</trkpt>
<trkpt lat="31.2463000" lon="35.2354700">
<ele>468.420013</ele>
<time>2024-12-07T10:23:37.256Z</time>
</trkpt>
<trkpt lat="31.2461300" lon="35.2356500">
<ele>470.119995</ele>
<time>2024-12-07T10:23:37.256Z</time>
</trkpt>
<trkpt lat="31.2460000" lon="35.2359000">
<ele>465.500000</ele>
<time>2024-12-07T10:23:37.256Z</time>
</trkpt>
<trkpt lat="31.2457900" lon="35.2361100">
<ele>461.540009</ele>
<time>2024-12-07T10:23:37.256Z</time>
</trkpt>
<trkpt lat="31.2456600" lon="35.2362800">
<ele>457.850006</ele>
<time>2024-12-07T10:23:37.256Z</time>
</trkpt>
<trkpt lat="31.2455300" lon="35.2364000">
<ele>455.440002</ele>
<time>2024-12-07T10:23:37.256Z</time>
</trkpt>
<trkpt lat="31.2454300" lon="35.2364500">
<ele>453.289978</ele>
<time>2024-12-07T10:23:37.256Z</time>
</trkpt>
<trkpt lat="31.2449800" lon="35.2365900">
<ele>448.750000</ele>
<time>2024-12-07T10:23:37.256Z</time>
</trkpt>
<trkpt lat="31.2446700" lon="35.2367100">
<ele>444.339996</ele>
<time>2024-12-07T10:23:37.256Z</time>
</trkpt>
<trkpt lat="31.2445900" lon="35.2367600">
<ele>443.520020</ele>
<time>2024-12-07T10:23:37.256Z</time>
</trkpt>
<trkpt lat="31.2439400" lon="35.2372300">
<ele>440.650024</ele>
<time>2024-12-07T10:23:37.256Z</time>
</trkpt>
<trkpt lat="31.2438700" lon="35.2373200">
<ele>438.850006</ele>
<time>2024-12-07T10:23:37.256Z</time>
</trkpt>
<trkpt lat="31.2438300" lon="35.2374000">
<ele>437.279999</ele>
<time>2024-12-07T10:23:37.256Z</time>
</trkpt>
<trkpt lat="31.2437500" lon="35.2376200">
<ele>433.840027</ele>
<time>2024-12-07T10:23:37.256Z</time>
</trkpt>
<trkpt lat="31.2437100" lon="35.2377000">
<ele>432.690002</ele>
<time>2024-12-07T10:23:37.256Z</time>
</trkpt>
<trkpt lat="31.2435900" lon="35.2377800">
<ele>431.929993</ele>
<time>2024-12-07T10:23:37.256Z</time>
</trkpt>
<trkpt lat="31.2434600" lon="35.2378100">
<ele>431.020020</ele>
<time>2024-12-07T10:23:37.256Z</time>
</trkpt>
<trkpt lat="31.2432600" lon="35.2377900">
<ele>429.569977</ele>
<time>2024-12-07T10:23:37.256Z</time>
</trkpt>
<trkpt lat="31.2431400" lon="35.2378000">
<ele>425.960022</ele>
<time>2024-12-07T10:23:37.256Z</time>
</trkpt>
<trkpt lat="31.2430700" lon="35.2378300">
<ele>423.449982</ele>
<time>2024-12-07T10:23:37.256Z</time>
</trkpt>
<trkpt lat="31.2429800" lon="35.2379000">
<ele>420.470001</ele>
<time>2024-12-07T10:23:37.256Z</time>
</trkpt>
<trkpt lat="31.2429100" lon="35.2379800">
<ele>417.500000</ele>
<time>2024-12-07T10:23:37.256Z</time>
</trkpt>
<trkpt lat="31.2428300" lon="35.2382100">
<ele>412.250000</ele>
<time>2024-12-07T10:23:37.256Z</time>
</trkpt>
<trkpt lat="31.2425300" lon="35.2386000">
<ele>416.420013</ele>
<time>2024-12-07T10:23:37.256Z</time>
</trkpt>
<trkpt lat="31.2425100" lon="35.2386600">
<ele>416.279999</ele>
<time>2024-12-07T10:23:37.256Z</time>
</trkpt>
<trkpt lat="31.2423400" lon="35.2391500">
<ele>415.209991</ele>
<time>2024-12-07T10:23:37.256Z</time>
</trkpt>
<trkpt lat="31.2423200" lon="35.2391900">
<ele>414.899994</ele>
<time>2024-12-07T10:23:37.256Z</time>
</trkpt>
<trkpt lat="31.2422800" lon="35.2392200">
<ele>414.899994</ele>
<time>2024-12-07T10:23:37.256Z</time>
</trkpt>
<trkpt lat="31.2422300" lon="35.2392600">
<ele>414.509979</ele>
<time>2024-12-07T10:23:37.256Z</time>
</trkpt>
<trkpt lat="31.2421800" lon="35.2392900">
<ele>413.460022</ele>
<time>2024-12-07T10:23:37.256Z</time>
</trkpt>
<trkpt lat="31.2421100" lon="35.2393100">
<ele>412.659973</ele>
<time>2024-12-07T10:23:37.256Z</time>
</trkpt>
<trkpt lat="31.2420700" lon="35.2393200">
<ele>412.290009</ele>
<time>2024-12-07T10:23:37.256Z</time>
</trkpt>
<trkpt lat="31.2420500" lon="35.2393300">
<ele>411.970032</ele>
<time>2024-12-07T10:23:37.256Z</time>
</trkpt>
<trkpt lat="31.2420200" lon="35.2393400">
<ele>411.670013</ele>
<time>2024-12-07T10:23:37.256Z</time>
</trkpt>
<trkpt lat="31.2419900" lon="35.2393400">
<ele>411.649994</ele>
<time>2024-12-07T10:23:37.256Z</time>
</trkpt>
<trkpt lat="31.2419600" lon="35.2393400">
<ele>411.639984</ele>
<time>2024-12-07T10:23:37.256Z</time>
</trkpt>
<trkpt lat="31.2419200" lon="35.2393500">
<ele>411.059998</ele>
<time>2024-12-07T10:23:37.256Z</time>
</trkpt>
<trkpt lat="31.2419000" lon="35.2393600">
<ele>410.550018</ele>
<time>2024-12-07T10:23:37.256Z</time>
</trkpt>
<trkpt lat="31.2418700" lon="35.2393600">
<ele>410.160004</ele>
<time>2024-12-07T10:23:37.256Z</time>
</trkpt>
<trkpt lat="31.2418400" lon="35.2393600">
<ele>409.769989</ele>
<time>2024-12-07T10:23:37.256Z</time>
</trkpt>
<trkpt lat="31.2418700" lon="35.2393600">
<ele>410.160004</ele>
<time>2024-12-07T10:23:37.256Z</time>
</trkpt>
<trkpt lat="31.2419200" lon="35.2393600">
<ele>410.810028</ele>
<time>2024-12-07T10:23:37.256Z</time>
</trkpt>
<trkpt lat="31.2419500" lon="35.2393500">
<ele>411.379974</ele>
<time>2024-12-07T10:23:37.256Z</time>
</trkpt>
<trkpt lat="31.2419900" lon="35.2393400">
<ele>411.649994</ele>
<time>2024-12-07T10:23:37.256Z</time>
</trkpt>
<trkpt lat="31.2420200" lon="35.2393300">
<ele>411.950012</ele>
<time>2024-12-07T10:23:37.256Z</time>
</trkpt>
<trkpt lat="31.2420500" lon="35.2393300">
<ele>411.970032</ele>
<time>2024-12-07T10:23:37.256Z</time>
</trkpt>
<trkpt lat="31.2421500" lon="35.2393300">
<ele>412.059998</ele>
<time>2024-12-07T10:23:37.256Z</time>
</trkpt>
<trkpt lat="31.2422000" lon="35.2393400">
<ele>411.750000</ele>
<time>2024-12-07T10:23:37.256Z</time>
</trkpt>
<trkpt lat="31.2422200" lon="35.2393600">
<ele>411.039978</ele>
<time>2024-12-07T10:23:37.256Z</time>
</trkpt>
<trkpt lat="31.2422300" lon="35.2394200">
<ele>408.859985</ele>
<time>2024-12-07T10:23:37.256Z</time>
</trkpt>
<trkpt lat="31.2422300" lon="35.2394300">
<ele>408.509979</ele>
<time>2024-12-07T10:23:37.256Z</time>
</trkpt>
<trkpt lat="31.2422200" lon="35.2394300">
<ele>408.529999</ele>
<time>2024-12-07T10:23:37.256Z</time>
</trkpt>
<trkpt lat="31.2421700" lon="35.2395900">
<ele>405.890015</ele>
<time>2024-12-07T10:23:37.256Z</time>
</trkpt>
<trkpt lat="31.2421600" lon="35.2396700">
<ele>404.609985</ele>
<time>2024-12-07T10:23:37.256Z</time>
</trkpt>
<trkpt lat="31.2421300" lon="35.2398900">
<ele>401.449982</ele>
<time>2024-12-07T10:23:37.256Z</time>
</trkpt>
<trkpt lat="31.2420000" lon="35.2403100">
<ele>400.419983</ele>
<time>2024-12-07T10:23:37.256Z</time>
</trkpt>
<trkpt lat="31.2417300" lon="35.2408600">
<ele>391.989990</ele>
<time>2024-12-07T10:23:37.256Z</time>
</trkpt>
<trkpt lat="31.2416200" lon="35.2409600">
<ele>390.910004</ele>
<time>2024-12-07T10:23:37.256Z</time>
</trkpt>
<trkpt lat="31.2415700" lon="35.2410400">
<ele>388.940002</ele>
<time>2024-12-07T10:23:37.256Z</time>
</trkpt>
<trkpt lat="31.2414900" lon="35.2412300">
<ele>384.990021</ele>
<time>2024-12-07T10:23:37.256Z</time>
</trkpt>
<trkpt lat="31.2414600" lon="35.2414700">
<ele>379.290009</ele>
<time>2024-12-07T10:23:37.256Z</time>
</trkpt>
<trkpt lat="31.2414500" lon="35.2416900">
<ele>373.119995</ele>
<time>2024-12-07T10:23:37.256Z</time>
</trkpt>
<trkpt lat="31.2415200" lon="35.2422500">
<ele>356.749969</ele>
<time>2024-12-07T10:23:37.256Z</time>
</trkpt>
<trkpt lat="31.2416000" lon="35.2429000">
<ele>346.929993</ele>
<time>2024-12-07T10:23:37.256Z</time>
</trkpt>
<trkpt lat="31.2416000" lon="35.2429000">
<ele>346.929993</ele>
<time>2024-12-07T10:23:37.256Z</time>
</trkpt>
<trkpt lat="31.2416100" lon="35.2429000">
<ele>346.909973</ele>
<time>2024-12-07T10:23:37.256Z</time>
</trkpt>
<trkpt lat="31.2416100" lon="35.2429600">
<ele>345.789978</ele>
<time>2024-12-07T10:23:37.256Z</time>
</trkpt>
<trkpt lat="31.2415100" lon="35.2434300">
<ele>337.239990</ele>
<time>2024-12-07T10:23:37.256Z</time>
</trkpt>
<trkpt lat="31.2414600" lon="35.2435700">
<ele>335.479980</ele>
<time>2024-12-07T10:23:37.256Z</time>
</trkpt>
<trkpt lat="31.2412300" lon="35.2433000">
<ele>339.150024</ele>
<time>2024-12-07T10:23:37.256Z</time>
</trkpt>
<trkpt lat="31.2411800" lon="35.2433500">
<ele>338.619995</ele>
<time>2024-12-07T10:23:37.256Z</time>
</trkpt>
<trkpt lat="31.2411100" lon="35.2434200">
<ele>338.399994</ele>
<time>2024-12-07T10:23:37.256Z</time>
</trkpt>
<trkpt lat="31.2411400" lon="35.2435600">
<ele>337.180023</ele>
<time>2024-12-07T10:23:37.256Z</time>
</trkpt>
<trkpt lat="31.2411600" lon="35.2437200">
<ele>335.859985</ele>
<time>2024-12-07T10:23:37.256Z</time>
</trkpt>
<trkpt lat="31.2411200" lon="35.2439400">
<ele>335.110016</ele>
<time>2024-12-07T10:23:37.256Z</time>
</trkpt>
<trkpt lat="31.2411200" lon="35.2440100">
<ele>335.359985</ele>
<time>2024-12-07T10:23:37.256Z</time>
</trkpt>
<trkpt lat="31.2411200" lon="35.2446000">
<ele>339.549988</ele>
<time>2024-12-07T10:23:37.256Z</time>
</trkpt>
<trkpt lat="31.2413300" lon="35.2455400">
<ele>341.739990</ele>
<time>2024-12-07T10:23:37.256Z</time>
</trkpt>
<trkpt lat="31.2414900" lon="35.2458500">
<ele>341.309998</ele>
<time>2024-12-07T10:23:37.256Z</time>
</trkpt>
<trkpt lat="31.2415000" lon="35.2461100">
<ele>341.800018</ele>
<time>2024-12-07T10:23:37.256Z</time>
</trkpt>
<trkpt lat="31.2417000" lon="35.2465600">
<ele>342.419983</ele>
<time>2024-12-07T10:23:37.256Z</time>
</trkpt>
<trkpt lat="31.2419000" lon="35.2468600">
<ele>341.899994</ele>
<time>2024-12-07T10:23:37.256Z</time>
</trkpt>
<trkpt lat="31.2419800" lon="35.2470200">
<ele>342.639984</ele>
<time>2024-12-07T10:23:37.256Z</time>
</trkpt>
<trkpt lat="31.2422200" lon="35.2471800">
<ele>337.220001</ele>
<time>2024-12-07T10:23:37.256Z</time>
</trkpt>
<trkpt lat="31.2424200" lon="35.2474700">
<ele>338.540009</ele>
<time>2024-12-07T10:23:37.256Z</time>
</trkpt>
<trkpt lat="31.2424900" lon="35.2476600">
<ele>337.029999</ele>
<time>2024-12-07T10:23:37.256Z</time>
</trkpt>
<trkpt lat="31.2425500" lon="35.2481100">
<ele>333.480011</ele>
<time>2024-12-07T10:23:37.256Z</time>
</trkpt>
<trkpt lat="31.2424700" lon="35.2482600">
<ele>333.509979</ele>
<time>2024-12-07T10:23:37.256Z</time>
</trkpt>
<trkpt lat="31.2426900" lon="35.2484300">
<ele>332.059998</ele>
<time>2024-12-07T10:23:37.256Z</time>
</trkpt>
<trkpt lat="31.2426200" lon="35.2487500">
<ele>333.059998</ele>
<time>2024-12-07T10:23:37.256Z</time>
</trkpt>
<trkpt lat="31.2427200" lon="35.2490900">
<ele>331.559998</ele>
<time>2024-12-07T10:23:37.256Z</time>
</trkpt>
<trkpt lat="31.2427200" lon="35.2490900">
<ele>331.559998</ele>
<time>2024-12-07T10:23:37.256Z</time>
</trkpt>
<trkpt lat="31.2427700" lon="35.2492600">
<ele>331.220001</ele>
<time>2024-12-07T10:23:37.256Z</time>
</trkpt>
<trkpt lat="31.2428200" lon="35.2496400">
<ele>334.659973</ele>
<time>2024-12-07T10:23:37.256Z</time>
</trkpt>
<trkpt lat="31.2427600" lon="35.2498400">
<ele>337.690002</ele>
<time>2024-12-07T10:23:37.256Z</time>
</trkpt>
<trkpt lat="31.2429500" lon="35.2503300">
<ele>338.080017</ele>
<time>2024-12-07T10:23:37.256Z</time>
</trkpt>
<trkpt lat="31.2429900" lon="35.2510200">
<ele>346.670013</ele>
<time>2024-12-07T10:23:37.256Z</time>
</trkpt>
<trkpt lat="31.2431600" lon="35.2513800">
<ele>349.210022</ele>
<time>2024-12-07T10:23:37.256Z</time>
</trkpt>
<trkpt lat="31.2431200" lon="35.2516800">
<ele>346.959991</ele>
<time>2024-12-07T10:23:37.256Z</time>
</trkpt>
<trkpt lat="31.2429300" lon="35.2521800">
<ele>342.050018</ele>
<time>2024-12-07T10:23:37.256Z</time>
</trkpt>
<trkpt lat="31.2427500" lon="35.2524500">
<ele>342.239990</ele>
<time>2024-12-07T10:23:37.256Z</time>
</trkpt>
<trkpt lat="31.2426500" lon="35.2527600">
<ele>343.900024</ele>
<time>2024-12-07T10:23:37.256Z</time>
</trkpt>
<trkpt lat="31.2425800" lon="35.2533100">
<ele>345.640015</ele>
<time>2024-12-07T10:23:37.256Z</time>
</trkpt>
<trkpt lat="31.2423400" lon="35.2539800">
<ele>339.769989</ele>
<time>2024-12-07T10:23:37.256Z</time>
</trkpt>
<trkpt lat="31.2422000" lon="35.2538400">
<ele>339.720001</ele>
<time>2024-12-07T10:23:37.256Z</time>
</trkpt>
<trkpt lat="31.2419500" lon="35.2538500">
<ele>332.730011</ele>
<time>2024-12-07T10:23:37.256Z</time>
</trkpt>
<trkpt lat="31.2411400" lon="35.2544300">
<ele>308.709991</ele>
<time>2024-12-07T10:23:37.256Z</time>
</trkpt>
<trkpt lat="31.2409000" lon="35.2546700">
<ele>309.440002</ele>
<time>2024-12-07T10:23:37.256Z</time>
</trkpt>
<trkpt lat="31.2408500" lon="35.2547000">
<ele>309.199982</ele>
<time>2024-12-07T10:23:37.256Z</time>
</trkpt>
<trkpt lat="31.2408500" lon="35.2547000">
<ele>309.199982</ele>
<time>2024-12-07T10:23:37.256Z</time>
</trkpt>
<trkpt lat="31.2408500" lon="35.2547000">
<ele>309.199982</ele>
<time>2024-12-07T10:23:37.256Z</time>
</trkpt>
<trkpt lat="31.2404500" lon="35.2549200">
<ele>312.089996</ele>
<time>2024-12-07T10:23:37.256Z</time>
</trkpt>
<trkpt lat="31.2401300" lon="35.2548900">
<ele>318.940002</ele>
<time>2024-12-07T10:23:37.256Z</time>
</trkpt>
<trkpt lat="31.2394000" lon="35.2549800">
<ele>324.609985</ele>
<time>2024-12-07T10:23:37.256Z</time>
</trkpt>
<trkpt lat="31.2392200" lon="35.2549500">
<ele>323.199982</ele>
<time>2024-12-07T10:23:37.256Z</time>
</trkpt>
<trkpt lat="31.2388700" lon="35.2549100">
<ele>316.059998</ele>
<time>2024-12-07T10:23:37.256Z</time>
</trkpt>
<trkpt lat="31.2388400" lon="35.2549000">
<ele>315.529999</ele>
<time>2024-12-07T10:23:37.256Z</time>
</trkpt>
<trkpt lat="31.2388400" lon="35.2549000">
<ele>315.529999</ele>
<time>2024-12-07T10:23:37.256Z</time>
</trkpt>
<trkpt lat="31.2385800" lon="35.2548300">
<ele>311.799988</ele>
<time>2024-12-07T10:23:37.256Z</time>
</trkpt>
<trkpt lat="31.2383600" lon="35.2548200">
<ele>310.460022</ele>
<time>2024-12-07T10:23:37.256Z</time>
</trkpt>
<trkpt lat="31.2382400" lon="35.2547700">
<ele>309.869995</ele>
<time>2024-12-07T10:23:37.256Z</time>
</trkpt>
<trkpt lat="31.2382000" lon="35.2548200">
<ele>309.000000</ele>
<time>2024-12-07T10:23:37.256Z</time>
</trkpt>
<trkpt lat="31.2380300" lon="35.2548600">
<ele>306.880005</ele>
<time>2024-12-07T10:23:37.256Z</time>
</trkpt>
<trkpt lat="31.2377500" lon="35.2549900">
<ele>302.540009</ele>
<time>2024-12-07T10:23:37.256Z</time>
</trkpt>
<trkpt lat="31.2375900" lon="35.2550300">
<ele>303.740021</ele>
<time>2024-12-07T10:23:37.256Z</time>
</trkpt>
<trkpt lat="31.2374800" lon="35.2550700">
<ele>304.679993</ele>
<time>2024-12-07T10:23:37.256Z</time>
</trkpt>
<trkpt lat="31.2372700" lon="35.2550600">
<ele>306.690002</ele>
<time>2024-12-07T10:23:37.256Z</time>
</trkpt>
<trkpt lat="31.2372700" lon="35.2550500">
<ele>306.829987</ele>
<time>2024-12-07T10:23:37.256Z</time>
</trkpt>
<trkpt lat="31.2372400" lon="35.2550600">
<ele>306.970001</ele>
<time>2024-12-07T10:23:37.256Z</time>
</trkpt>
<trkpt lat="31.2371500" lon="35.2550900">
<ele>307.040009</ele>
<time>2024-12-07T10:23:37.256Z</time>
</trkpt>
<trkpt lat="31.2371100" lon="35.2551000">
<ele>307.140015</ele>
<time>2024-12-07T10:23:37.256Z</time>
</trkpt>
<trkpt lat="31.2370000" lon="35.2551300">
<ele>307.630005</ele>
<time>2024-12-07T10:23:37.256Z</time>
</trkpt>
<trkpt lat="31.2369800" lon="35.2551300">
<ele>307.760010</ele>
<time>2024-12-07T10:23:37.256Z</time>
</trkpt>
<trkpt lat="31.2369800" lon="35.2551200">
<ele>307.779999</ele>
<time>2024-12-07T10:23:37.256Z</time>
</trkpt>
<trkpt lat="31.2368900" lon="35.2551400">
<ele>308.100006</ele>
<time>2024-12-07T10:23:37.256Z</time>
</trkpt>
<trkpt lat="31.2366400" lon="35.2551600">
<ele>308.480011</ele>
<time>2024-12-07T10:23:37.256Z</time>
</trkpt>
<trkpt lat="31.2361000" lon="35.2553600">
<ele>307.160004</ele>
<time>2024-12-07T10:23:37.256Z</time>
</trkpt>
<trkpt lat="31.2359600" lon="35.2554500">
<ele>305.649994</ele>
<time>2024-12-07T10:23:37.256Z</time>
</trkpt>
<trkpt lat="31.2358400" lon="35.2555600">
<ele>304.100006</ele>
<time>2024-12-07T10:23:37.256Z</time>
</trkpt>
<trkpt lat="31.2357100" lon="35.2556500">
<ele>303.559998</ele>
<time>2024-12-07T10:23:37.256Z</time>
</trkpt>
<trkpt lat="31.2354300" lon="35.2558000">
<ele>303.899994</ele>
<time>2024-12-07T10:23:37.256Z</time>
</trkpt>
<trkpt lat="31.2352600" lon="35.2560000">
<ele>303.989990</ele>
<time>2024-12-07T10:23:37.256Z</time>
</trkpt>
<trkpt lat="31.2350400" lon="35.2565500">
<ele>303.500000</ele>
<time>2024-12-07T10:23:37.256Z</time>
</trkpt>
<trkpt lat="31.2349000" lon="35.2569500">
<ele>301.589996</ele>
<time>2024-12-07T10:23:37.256Z</time>
</trkpt>
<trkpt lat="31.2346900" lon="35.2575500">
<ele>300.399994</ele>
<time>2024-12-07T10:23:37.256Z</time>
</trkpt>
<trkpt lat="31.2346600" lon="35.2580700">
<ele>297.679993</ele>
<time>2024-12-07T10:23:37.256Z</time>
</trkpt>
<trkpt lat="31.2347400" lon="35.2582900">
<ele>296.339996</ele>
<time>2024-12-07T10:23:37.256Z</time>
</trkpt>
<trkpt lat="31.2348100" lon="35.2583800">
<ele>295.829987</ele>
<time>2024-12-07T10:23:37.256Z</time>
</trkpt>
<trkpt lat="31.2348600" lon="35.2585800">
<ele>295.110016</ele>
<time>2024-12-07T10:23:37.256Z</time>
</trkpt>
<trkpt lat="31.2348700" lon="35.2586500">
<ele>294.869995</ele>
<time>2024-12-07T10:23:37.256Z</time>
</trkpt>
<trkpt lat="31.2348800" lon="35.2586400">
<ele>294.910004</ele>
<time>2024-12-07T10:23:37.256Z</time>
</trkpt>
<trkpt lat="31.2348700" lon="35.2586500">
<ele>294.869995</ele>
<time>2024-12-07T10:23:37.256Z</time>
</trkpt>
<trkpt lat="31.2349200" lon="35.2590100">
<ele>294.420013</ele>
<time>2024-12-07T10:23:37.256Z</time>
</trkpt>
<trkpt lat="31.2349600" lon="35.2593000">
<ele>294.300018</ele>
<time>2024-12-07T10:23:37.256Z</time>
</trkpt>
<trkpt lat="31.2351200" lon="35.2598900">
<ele>290.790009</ele>
<time>2024-12-07T10:23:37.256Z</time>
</trkpt>
<trkpt lat="31.2351200" lon="35.2601800">
<ele>291.220001</ele>
<time>2024-12-07T10:23:37.256Z</time>
</trkpt>
<trkpt lat="31.2351700" lon="35.2603700">
<ele>292.769989</ele>
<time>2024-12-07T10:23:37.256Z</time>
</trkpt>
<trkpt lat="31.2352700" lon="35.2605400">
<ele>293.940002</ele>
<time>2024-12-07T10:23:37.256Z</time>
</trkpt>
<trkpt lat="31.2353900" lon="35.2606700">
<ele>295.799988</ele>
<time>2024-12-07T10:23:37.256Z</time>
</trkpt>
<trkpt lat="31.2355300" lon="35.2608500">
<ele>296.229980</ele>
<time>2024-12-07T10:23:37.256Z</time>
</trkpt>
<trkpt lat="31.2356200" lon="35.2609900">
<ele>293.680023</ele>
<time>2024-12-07T10:23:37.256Z</time>
</trkpt>
<trkpt lat="31.2357000" lon="35.2611900">
<ele>290.850006</ele>
<time>2024-12-07T10:23:37.256Z</time>
</trkpt>
<trkpt lat="31.2358200" lon="35.2615700">
<ele>289.529999</ele>
<time>2024-12-07T10:23:37.256Z</time>
</trkpt>
<trkpt lat="31.2359200" lon="35.2619800">
<ele>291.279999</ele>
<time>2024-12-07T10:23:37.256Z</time>
</trkpt>
<trkpt lat="31.2360800" lon="35.2625400">
<ele>289.579987</ele>
<time>2024-12-07T10:23:37.256Z</time>
</trkpt>
<trkpt lat="31.2362400" lon="35.2629600">
<ele>289.079987</ele>
<time>2024-12-07T10:23:37.256Z</time>
</trkpt>
<trkpt lat="31.2363400" lon="35.2632500">
<ele>289.350006</ele>
<time>2024-12-07T10:23:37.256Z</time>
</trkpt>
<trkpt lat="31.2366700" lon="35.2639300">
<ele>290.779999</ele>
<time>2024-12-07T10:23:37.256Z</time>
</trkpt>
<trkpt lat="31.2368100" lon="35.2641700">
<ele>286.869995</ele>
<time>2024-12-07T10:23:37.256Z</time>
</trkpt>
<trkpt lat="31.2368900" lon="35.2643700">
<ele>283.570007</ele>
<time>2024-12-07T10:23:37.256Z</time>
</trkpt>
<trkpt lat="31.2369300" lon="35.2645100">
<ele>281.520020</ele>
<time>2024-12-07T10:23:37.256Z</time>
</trkpt>
<trkpt lat="31.2369800" lon="35.2648300">
<ele>278.480011</ele>
<time>2024-12-07T10:23:37.256Z</time>
</trkpt>
<trkpt lat="31.2370100" lon="35.2652000">
<ele>276.869995</ele>
<time>2024-12-07T10:23:37.256Z</time>
</trkpt>
<trkpt lat="31.2370900" lon="35.2655200">
<ele>274.709991</ele>
<time>2024-12-07T10:23:37.256Z</time>
</trkpt>
<trkpt lat="31.2372400" lon="35.2657700">
<ele>275.740021</ele>
<time>2024-12-07T10:23:37.256Z</time>
</trkpt>
<trkpt lat="31.2374100" lon="35.2659600">
<ele>275.480011</ele>
<time>2024-12-07T10:23:37.256Z</time>
</trkpt>
<trkpt lat="31.2375200" lon="35.2662800">
<ele>275.809998</ele>
<time>2024-12-07T10:23:37.256Z</time>
</trkpt>
<trkpt lat="31.2376000" lon="35.2665200">
<ele>274.200012</ele>
<time>2024-12-07T10:23:37.256Z</time>
</trkpt>
<trkpt lat="31.2376000" lon="35.2667700">
<ele>274.630005</ele>
<time>2024-12-07T10:23:37.256Z</time>
</trkpt>
<trkpt lat="31.2375900" lon="35.2670100">
<ele>275.790009</ele>
<time>2024-12-07T10:23:37.256Z</time>
</trkpt>
<trkpt lat="31.2376000" lon="35.2671800">
<ele>277.119995</ele>
<time>2024-12-07T10:23:37.256Z</time>
</trkpt>
<trkpt lat="31.2376200" lon="35.2678000">
<ele>279.489990</ele>
<time>2024-12-07T10:23:37.256Z</time>
</trkpt>
<trkpt lat="31.2375900" lon="35.2679000">
<ele>279.989990</ele>
<time>2024-12-07T10:23:37.256Z</time>
</trkpt>
<trkpt lat="31.2375400" lon="35.2679900">
<ele>280.070007</ele>
<time>2024-12-07T10:23:37.256Z</time>
</trkpt>
<trkpt lat="31.2372800" lon="35.2683400">
<ele>279.049988</ele>
<time>2024-12-07T10:23:37.256Z</time>
</trkpt>
<trkpt lat="31.2370800" lon="35.2686600">
<ele>273.899994</ele>
<time>2024-12-07T10:23:37.256Z</time>
</trkpt>
<trkpt lat="31.2369700" lon="35.2689400">
<ele>265.910004</ele>
<time>2024-12-07T10:23:37.256Z</time>
</trkpt>
<trkpt lat="31.2364700" lon="35.2696800">
<ele>266.570007</ele>
<time>2024-12-07T10:23:37.256Z</time>
</trkpt>
<trkpt lat="31.2362700" lon="35.2698800">
<ele>266.470001</ele>
<time>2024-12-07T10:23:37.256Z</time>
</trkpt>
<trkpt lat="31.2361600" lon="35.2700700">
<ele>267.029999</ele>
<time>2024-12-07T10:23:37.256Z</time>
</trkpt>
<trkpt lat="31.2359500" lon="35.2703500">
<ele>267.989990</ele>
<time>2024-12-07T10:23:37.256Z</time>
</trkpt>
<trkpt lat="31.2353200" lon="35.2709000">
<ele>270.720001</ele>
<time>2024-12-07T10:23:37.256Z</time>
</trkpt>
<trkpt lat="31.2351500" lon="35.2711100">
<ele>271.610016</ele>
<time>2024-12-07T10:23:37.256Z</time>
</trkpt>
<trkpt lat="31.2350000" lon="35.2714100">
<ele>274.079987</ele>
<time>2024-12-07T10:23:37.256Z</time>
</trkpt>
<trkpt lat="31.2349000" lon="35.2716700">
<ele>271.779999</ele>
<time>2024-12-07T10:23:37.256Z</time>
</trkpt>
<trkpt lat="31.2348800" lon="35.2717900">
<ele>271.940002</ele>
<time>2024-12-07T10:23:37.256Z</time>
</trkpt>
<trkpt lat="31.2348900" lon="35.2719100">
<ele>273.010010</ele>
<time>2024-12-07T10:23:37.256Z</time>
</trkpt>
<trkpt lat="31.2349700" lon="35.2721800">
<ele>275.519989</ele>
<time>2024-12-07T10:23:37.256Z</time>
</trkpt>
<trkpt lat="31.2350600" lon="35.2726400">
<ele>275.190002</ele>
<time>2024-12-07T10:23:37.256Z</time>
</trkpt>
<trkpt lat="31.2352400" lon="35.2731400">
<ele>275.229980</ele>
<time>2024-12-07T10:23:37.256Z</time>
</trkpt>
<trkpt lat="31.2352700" lon="35.2733900">
<ele>274.559998</ele>
<time>2024-12-07T10:23:37.256Z</time>
</trkpt>
<trkpt lat="31.2352400" lon="35.2737700">
<ele>278.380005</ele>
<time>2024-12-07T10:23:37.256Z</time>
</trkpt>
<trkpt lat="31.2351600" lon="35.2741400">
<ele>282.559998</ele>
<time>2024-12-07T10:23:37.256Z</time>
</trkpt>
<trkpt lat="31.2350800" lon="35.2743800">
<ele>280.350006</ele>
<time>2024-12-07T10:23:37.256Z</time>
</trkpt>
<trkpt lat="31.2349800" lon="35.2746100">
<ele>276.649994</ele>
<time>2024-12-07T10:23:37.256Z</time>
</trkpt>
<trkpt lat="31.2349100" lon="35.2747300">
<ele>274.930023</ele>
<time>2024-12-07T10:23:37.256Z</time>
</trkpt>
<trkpt lat="31.2349200" lon="35.2747400">
<ele>274.899994</ele>
<time>2024-12-07T10:23:37.256Z</time>
</trkpt>
<trkpt lat="31.2349100" lon="35.2747300">
<ele>274.930023</ele>
<time>2024-12-07T10:23:37.256Z</time>
</trkpt>
<trkpt lat="31.2348100" lon="35.2749200">
<ele>271.589996</ele>
<time>2024-12-07T10:23:37.256Z</time>
</trkpt>
<trkpt lat="31.2346600" lon="35.2750300">
<ele>270.459991</ele>
<time>2024-12-07T10:23:37.256Z</time>
</trkpt>
<trkpt lat="31.2346000" lon="35.2751000">
<ele>270.320007</ele>
<time>2024-12-07T10:23:37.256Z</time>
</trkpt>
<trkpt lat="31.2344900" lon="35.2753000">
<ele>269.020020</ele>
<time>2024-12-07T10:23:37.256Z</time>
</trkpt>
<trkpt lat="31.2340500" lon="35.2756900">
<ele>264.880005</ele>
<time>2024-12-07T10:23:37.256Z</time>
</trkpt>
<trkpt lat="31.2338100" lon="35.2759600">
<ele>261.529999</ele>
<time>2024-12-07T10:23:37.256Z</time>
</trkpt>
<trkpt lat="31.2337400" lon="35.2761300">
<ele>260.559998</ele>
<time>2024-12-07T10:23:37.256Z</time>
</trkpt>
<trkpt lat="31.2336400" lon="35.2762300">
<ele>260.600006</ele>
<time>2024-12-07T10:23:37.256Z</time>
</trkpt>
<trkpt lat="31.2334300" lon="35.2764100">
<ele>262.089996</ele>
<time>2024-12-07T10:23:37.256Z</time>
</trkpt>
<trkpt lat="31.2331000" lon="35.2767600">
<ele>264.829987</ele>
<time>2024-12-07T10:23:37.256Z</time>
</trkpt>
<trkpt lat="31.2326700" lon="35.2772900">
<ele>259.040009</ele>
<time>2024-12-07T10:23:37.256Z</time>
</trkpt>
<trkpt lat="31.2325700" lon="35.2774900">
<ele>257.600006</ele>
<time>2024-12-07T10:23:37.256Z</time>
</trkpt>
<trkpt lat="31.2325100" lon="35.2776300">
<ele>256.990021</ele>
<time>2024-12-07T10:23:37.256Z</time>
</trkpt>
<trkpt lat="31.2323800" lon="35.2781400">
<ele>252.830002</ele>
<time>2024-12-07T10:23:37.256Z</time>
</trkpt>
<trkpt lat="31.2322800" lon="35.2783600">
<ele>250.550003</ele>
<time>2024-12-07T10:23:37.256Z</time>
</trkpt>
<trkpt lat="31.2322000" lon="35.2784700">
<ele>251.110001</ele>
<time>2024-12-07T10:23:37.256Z</time>
</trkpt>
<trkpt lat="31.2318900" lon="35.2788600">
<ele>251.429993</ele>
<time>2024-12-07T10:23:37.256Z</time>
</trkpt>
<trkpt lat="31.2317100" lon="35.2790000">
<ele>252.940002</ele>
<time>2024-12-07T10:23:37.256Z</time>
</trkpt>
<trkpt lat="31.2314500" lon="35.2793000">
<ele>251.770004</ele>
<time>2024-12-07T10:23:37.256Z</time>
</trkpt>
<trkpt lat="31.2313200" lon="35.2793800">
<ele>250.700012</ele>
<time>2024-12-07T10:23:37.256Z</time>
</trkpt>
<trkpt lat="31.2311900" lon="35.2794100">
<ele>250.369995</ele>
<time>2024-12-07T10:23:37.256Z</time>
</trkpt>
<trkpt lat="31.2310200" lon="35.2793800">
<ele>250.619995</ele>
<time>2024-12-07T10:23:37.256Z</time>
</trkpt>
<trkpt lat="31.2308400" lon="35.2793900">
<ele>250.400009</ele>
<time>2024-12-07T10:23:37.256Z</time>
</trkpt>
<trkpt lat="31.2306500" lon="35.2793500">
<ele>250.899994</ele>
<time>2024-12-07T10:23:37.256Z</time>
</trkpt>
<trkpt lat="31.2305900" lon="35.2793400">
<ele>251.080002</ele>
<time>2024-12-07T10:23:37.256Z</time>
</trkpt>
<trkpt lat="31.2305100" lon="35.2793700">
<ele>250.149994</ele>
<time>2024-12-07T10:23:37.256Z</time>
</trkpt>
<trkpt lat="31.2304600" lon="35.2794600">
<ele>248.550003</ele>
<time>2024-12-07T10:23:37.256Z</time>
</trkpt>
<trkpt lat="31.2304000" lon="35.2795800">
<ele>247.000000</ele>
<time>2024-12-07T10:23:37.256Z</time>
</trkpt>
<trkpt lat="31.2303800" lon="35.2797100">
<ele>245.909988</ele>
<time>2024-12-07T10:23:37.256Z</time>
</trkpt>
<trkpt lat="31.2303100" lon="35.2799800">
<ele>243.539993</ele>
<time>2024-12-07T10:23:37.256Z</time>
</trkpt>
<trkpt lat="31.2303300" lon="35.2802200">
<ele>242.959991</ele>
<time>2024-12-07T10:23:37.256Z</time>
</trkpt>
<trkpt lat="31.2303000" lon="35.2802900">
<ele>242.190002</ele>
<time>2024-12-07T10:23:37.256Z</time>
</trkpt>
<trkpt lat="31.2302400" lon="35.2803300">
<ele>240.649994</ele>
<time>2024-12-07T10:23:37.256Z</time>
</trkpt>
<trkpt lat="31.2300000" lon="35.2804300">
<ele>234.900009</ele>
<time>2024-12-07T10:23:37.256Z</time>
</trkpt>
<trkpt lat="31.2297700" lon="35.2806000">
<ele>234.509995</ele>
<time>2024-12-07T10:23:37.256Z</time>
</trkpt>
<trkpt lat="31.2296500" lon="35.2806100">
<ele>234.450012</ele>
<time>2024-12-07T10:23:37.256Z</time>
</trkpt>
<trkpt lat="31.2294700" lon="35.2805400">
<ele>234.199997</ele>
<time>2024-12-07T10:23:37.256Z</time>
</trkpt>
<trkpt lat="31.2293800" lon="35.2805300">
<ele>234.880005</ele>
<time>2024-12-07T10:23:37.256Z</time>
</trkpt>
<trkpt lat="31.2293400" lon="35.2805900">
<ele>235.030014</ele>
<time>2024-12-07T10:23:37.256Z</time>
</trkpt>
<trkpt lat="31.2293200" lon="35.2806400">
<ele>235.070007</ele>
<time>2024-12-07T10:23:37.256Z</time>
</trkpt>
<trkpt lat="31.2293100" lon="35.2806800">
<ele>235.020004</ele>
<time>2024-12-07T10:23:37.256Z</time>
</trkpt>
<trkpt lat="31.2293100" lon="35.2809000">
<ele>234.250000</ele>
<time>2024-12-07T10:23:37.256Z</time>
</trkpt>
<trkpt lat="31.2293000" lon="35.2810600">
<ele>233.669998</ele>
<time>2024-12-07T10:23:37.256Z</time>
</trkpt>
<trkpt lat="31.2292200" lon="35.2811500">
<ele>233.309998</ele>
<time>2024-12-07T10:23:37.256Z</time>
</trkpt>
<trkpt lat="31.2290000" lon="35.2812400">
<ele>234.710007</ele>
<time>2024-12-07T10:23:37.256Z</time>
</trkpt>
<trkpt lat="31.2288900" lon="35.2814000">
<ele>234.919998</ele>
<time>2024-12-07T10:23:37.256Z</time>
</trkpt>
<trkpt lat="31.2288800" lon="35.2814800">
<ele>234.450012</ele>
<time>2024-12-07T10:23:37.256Z</time>
</trkpt>
<trkpt lat="31.2288900" lon="35.2815700">
<ele>233.690002</ele>
<time>2024-12-07T10:23:37.256Z</time>
</trkpt>
<trkpt lat="31.2289500" lon="35.2818700">
<ele>231.370010</ele>
<time>2024-12-07T10:23:37.256Z</time>
</trkpt>
<trkpt lat="31.2289800" lon="35.2821600">
<ele>229.389999</ele>
<time>2024-12-07T10:23:37.256Z</time>
</trkpt>
<trkpt lat="31.2290900" lon="35.2823100">
<ele>227.419998</ele>
<time>2024-12-07T10:23:37.256Z</time>
</trkpt>
<trkpt lat="31.2292500" lon="35.2823800">
<ele>226.089996</ele>
<time>2024-12-07T10:23:37.256Z</time>
</trkpt>
<trkpt lat="31.2293300" lon="35.2825100">
<ele>224.840012</ele>
<time>2024-12-07T10:23:37.256Z</time>
</trkpt>
<trkpt lat="31.2293700" lon="35.2826400">
<ele>224.670013</ele>
<time>2024-12-07T10:23:37.256Z</time>
</trkpt>
<trkpt lat="31.2293300" lon="35.2828300">
<ele>225.460007</ele>
<time>2024-12-07T10:23:37.256Z</time>
</trkpt>
<trkpt lat="31.2292700" lon="35.2831400">
<ele>226.440002</ele>
<time>2024-12-07T10:23:37.256Z</time>
</trkpt>
<trkpt lat="31.2292500" lon="35.2834100">
<ele>225.559998</ele>
<time>2024-12-07T10:23:37.256Z</time>
</trkpt>
<trkpt lat="31.2291900" lon="35.2836100">
<ele>224.840012</ele>
<time>2024-12-07T10:23:37.256Z</time>
</trkpt>
<trkpt lat="31.2291700" lon="35.2838900">
<ele>222.980011</ele>
<time>2024-12-07T10:23:37.256Z</time>
</trkpt>
<trkpt lat="31.2291000" lon="35.2842400">
<ele>221.500000</ele>
<time>2024-12-07T10:23:37.256Z</time>
</trkpt>
<trkpt lat="31.2290200" lon="35.2847900">
<ele>218.729996</ele>
<time>2024-12-07T10:23:37.256Z</time>
</trkpt>
<trkpt lat="31.2289600" lon="35.2851900">
<ele>215.069992</ele>
<time>2024-12-07T10:23:37.256Z</time>
</trkpt>
<trkpt lat="31.2287000" lon="35.2859100">
<ele>213.399994</ele>
<time>2024-12-07T10:23:37.256Z</time>
</trkpt>
<trkpt lat="31.2286000" lon="35.2860700">
<ele>213.339996</ele>
<time>2024-12-07T10:23:37.256Z</time>
</trkpt>
<trkpt lat="31.2284500" lon="35.2867300">
<ele>216.059998</ele>
<time>2024-12-07T10:23:37.256Z</time>
</trkpt>
<trkpt lat="31.2284500" lon="35.2867300">
<ele>216.059998</ele>
<time>2024-12-07T10:23:37.256Z</time>
</trkpt>
<trkpt lat="31.2284500" lon="35.2867300">
<ele>216.059998</ele>
<time>2024-12-07T10:23:37.256Z</time>
</trkpt>
<trkpt lat="31.2282800" lon="35.2874800">
<ele>218.389999</ele>
<time>2024-12-07T10:23:37.256Z</time>
</trkpt>
<trkpt lat="31.2280700" lon="35.2876500">
<ele>216.639999</ele>
<time>2024-12-07T10:23:37.256Z</time>
</trkpt>
<trkpt lat="31.2279700" lon="35.2881800">
<ele>218.910004</ele>
<time>2024-12-07T10:23:37.256Z</time>
</trkpt>
<trkpt lat="31.2278600" lon="35.2884600">
<ele>216.699997</ele>
<time>2024-12-07T10:23:37.256Z</time>
</trkpt>
<trkpt lat="31.2278100" lon="35.2887400">
<ele>214.429993</ele>
<time>2024-12-07T10:23:37.256Z</time>
</trkpt>
<trkpt lat="31.2276500" lon="35.2890000">
<ele>212.369995</ele>
<time>2024-12-07T10:23:37.256Z</time>
</trkpt>
<trkpt lat="31.2274200" lon="35.2895300">
<ele>211.829987</ele>
<time>2024-12-07T10:23:37.256Z</time>
</trkpt>
<trkpt lat="31.2273100" lon="35.2901800">
<ele>205.910004</ele>
<time>2024-12-07T10:23:37.256Z</time>
</trkpt>
<trkpt lat="31.2270600" lon="35.2906300">
<ele>206.220001</ele>
<time>2024-12-07T10:23:37.256Z</time>
</trkpt>
<trkpt lat="31.2267300" lon="35.2909900">
<ele>204.050003</ele>
<time>2024-12-07T10:23:37.256Z</time>
</trkpt>
<trkpt lat="31.2264400" lon="35.2915100">
<ele>200.630005</ele>
<time>2024-12-07T10:23:37.256Z</time>
</trkpt>
<trkpt lat="31.2262900" lon="35.2918100">
<ele>198.049988</ele>
<time>2024-12-07T10:23:37.256Z</time>
</trkpt>
<trkpt lat="31.2259900" lon="35.2921300">
<ele>195.479996</ele>
<time>2024-12-07T10:23:37.256Z</time>
</trkpt>
<trkpt lat="31.2258100" lon="35.2925600">
<ele>192.979996</ele>
<time>2024-12-07T10:23:37.256Z</time>
</trkpt>
<trkpt lat="31.2258100" lon="35.2929900">
<ele>191.940002</ele>
<time>2024-12-07T10:23:37.256Z</time>
</trkpt>
<trkpt lat="31.2257800" lon="35.2931400">
<ele>192.600006</ele>
<time>2024-12-07T10:23:37.256Z</time>
</trkpt>
<trkpt lat="31.2257400" lon="35.2932900">
<ele>193.630005</ele>
<time>2024-12-07T10:23:37.256Z</time>
</trkpt>
<trkpt lat="31.2255500" lon="35.2935600">
<ele>192.869995</ele>
<time>2024-12-07T10:23:37.256Z</time>
</trkpt>
<trkpt lat="31.2254500" lon="35.2939800">
<ele>191.479996</ele>
<time>2024-12-07T10:23:37.256Z</time>
</trkpt>
<trkpt lat="31.2255000" lon="35.2942500">
<ele>189.059998</ele>
<time>2024-12-07T10:23:37.256Z</time>
</trkpt>
<trkpt lat="31.2254800" lon="35.2944600">
<ele>187.940002</ele>
<time>2024-12-07T10:23:37.256Z</time>
</trkpt>
<trkpt lat="31.2253700" lon="35.2946000">
<ele>188.370010</ele>
<time>2024-12-07T10:23:37.256Z</time>
</trkpt>
<trkpt lat="31.2247000" lon="35.2952500">
<ele>188.660004</ele>
<time>2024-12-07T10:23:37.256Z</time>
</trkpt>
<trkpt lat="31.2246400" lon="35.2953000">
<ele>188.459991</ele>
<time>2024-12-07T10:23:37.256Z</time>
</trkpt>
<trkpt lat="31.2244500" lon="35.2952800">
<ele>187.040009</ele>
<time>2024-12-07T10:23:37.256Z</time>
</trkpt>
<trkpt lat="31.2243300" lon="35.2953200">
<ele>185.229996</ele>
<time>2024-12-07T10:23:37.256Z</time>
</trkpt>
<trkpt lat="31.2243300" lon="35.2953200">
<ele>185.229996</ele>
<time>2024-12-07T10:23:37.256Z</time>
</trkpt>
<trkpt lat="31.2240100" lon="35.2954500">
<ele>181.699997</ele>
<time>2024-12-07T10:23:37.256Z</time>
</trkpt>
<trkpt lat="31.2238900" lon="35.2954700">
<ele>181.159988</ele>
<time>2024-12-07T10:23:37.256Z</time>
</trkpt>
<trkpt lat="31.2237400" lon="35.2954000">
<ele>183.989990</ele>
<time>2024-12-07T10:23:37.256Z</time>
</trkpt>
<trkpt lat="31.2236400" lon="35.2953000">
<ele>187.230011</ele>
<time>2024-12-07T10:23:37.256Z</time>
</trkpt>
<trkpt lat="31.2236000" lon="35.2951600">
<ele>190.060013</ele>
<time>2024-12-07T10:23:37.256Z</time>
</trkpt>
<trkpt lat="31.2235900" lon="35.2949200">
<ele>194.290009</ele>
<time>2024-12-07T10:23:37.256Z</time>
</trkpt>
<trkpt lat="31.2235300" lon="35.2948600">
<ele>194.940002</ele>
<time>2024-12-07T10:23:37.256Z</time>
</trkpt>
<trkpt lat="31.2234500" lon="35.2949100">
<ele>193.460007</ele>
<time>2024-12-07T10:23:37.256Z</time>
</trkpt>
<trkpt lat="31.2233400" lon="35.2949300">
<ele>192.309998</ele>
<time>2024-12-07T10:23:37.256Z</time>
</trkpt>
<trkpt lat="31.2232600" lon="35.2948900">
<ele>192.770004</ele>
<time>2024-12-07T10:23:37.256Z</time>
</trkpt>
<trkpt lat="31.2231400" lon="35.2946300">
<ele>194.940002</ele>
<time>2024-12-07T10:23:37.256Z</time>
</trkpt>
<trkpt lat="31.2230800" lon="35.2945600">
<ele>194.759995</ele>
<time>2024-12-07T10:23:37.256Z</time>
</trkpt>
<trkpt lat="31.2230000" lon="35.2945600">
<ele>194.069992</ele>
<time>2024-12-07T10:23:37.256Z</time>
</trkpt>
<trkpt lat="31.2228500" lon="35.2945900">
<ele>192.639999</ele>
<time>2024-12-07T10:23:37.256Z</time>
</trkpt>
<trkpt lat="31.2226900" lon="35.2947200">
<ele>191.380005</ele>
<time>2024-12-07T10:23:37.256Z</time>
</trkpt>
<trkpt lat="31.2225500" lon="35.2948400">
<ele>189.089996</ele>
<time>2024-12-07T10:23:37.256Z</time>
</trkpt>
<trkpt lat="31.2224900" lon="35.2949900">
<ele>187.360001</ele>
<time>2024-12-07T10:23:37.256Z</time>
</trkpt>
<trkpt lat="31.2224800" lon="35.2952500">
<ele>186.669998</ele>
<time>2024-12-07T10:23:37.256Z</time>
</trkpt>
<trkpt lat="31.2223700" lon="35.2954800">
<ele>190.469986</ele>
<time>2024-12-07T10:23:37.256Z</time>
</trkpt>
<trkpt lat="31.2223600" lon="35.2956000">
<ele>191.190002</ele>
<time>2024-12-07T10:23:37.256Z</time>
</trkpt>
<trkpt lat="31.2224700" lon="35.2958700">
<ele>189.770004</ele>
<time>2024-12-07T10:23:37.256Z</time>
</trkpt>
<trkpt lat="31.2225400" lon="35.2961500">
<ele>189.089996</ele>
<time>2024-12-07T10:23:37.256Z</time>
</trkpt>
<trkpt lat="31.2225000" lon="35.2964200">
<ele>190.889999</ele>
<time>2024-12-07T10:23:37.256Z</time>
</trkpt>
<trkpt lat="31.2225000" lon="35.2966600">
<ele>190.019989</ele>
<time>2024-12-07T10:23:37.256Z</time>
</trkpt>
<trkpt lat="31.2223800" lon="35.2970100">
<ele>191.020004</ele>
<time>2024-12-07T10:23:37.256Z</time>
</trkpt>
<trkpt lat="31.2223200" lon="35.2973800">
<ele>186.720001</ele>
<time>2024-12-07T10:23:37.256Z</time>
</trkpt>
<trkpt lat="31.2221800" lon="35.2977200">
<ele>184.320007</ele>
<time>2024-12-07T10:23:37.256Z</time>
</trkpt>
<trkpt lat="31.2221500" lon="35.2978800">
<ele>182.639999</ele>
<time>2024-12-07T10:23:37.256Z</time>
</trkpt>
<trkpt lat="31.2221700" lon="35.2984500">
<ele>179.110001</ele>
<time>2024-12-07T10:23:37.256Z</time>
</trkpt>
<trkpt lat="31.2221500" lon="35.2992100">
<ele>168.849991</ele>
<time>2024-12-07T10:23:37.256Z</time>
</trkpt>
<trkpt lat="31.2220800" lon="35.2995600">
<ele>170.430008</ele>
<time>2024-12-07T10:23:37.256Z</time>
</trkpt>
<trkpt lat="31.2220900" lon="35.3003800">
<ele>176.980011</ele>
<time>2024-12-07T10:23:37.256Z</time>
</trkpt>
<trkpt lat="31.2222100" lon="35.3006900">
<ele>180.830002</ele>
<time>2024-12-07T10:23:37.256Z</time>
</trkpt>
<trkpt lat="31.2223200" lon="35.3009800">
<ele>180.510010</ele>
<time>2024-12-07T10:23:37.256Z</time>
</trkpt>
<trkpt lat="31.2224000" lon="35.3014300">
<ele>183.220001</ele>
<time>2024-12-07T10:23:37.256Z</time>
</trkpt>
<trkpt lat="31.2225100" lon="35.3017000">
<ele>186.189987</ele>
<time>2024-12-07T10:23:37.256Z</time>
</trkpt>
<trkpt lat="31.2226500" lon="35.3018300">
<ele>187.349991</ele>
<time>2024-12-07T10:23:37.256Z</time>
</trkpt>
<trkpt lat="31.2229500" lon="35.3020300">
<ele>183.970001</ele>
<time>2024-12-07T10:23:37.256Z</time>
</trkpt>
<trkpt lat="31.2230400" lon="35.3021400">
<ele>181.629990</ele>
<time>2024-12-07T10:23:37.256Z</time>
</trkpt>
<trkpt lat="31.2232300" lon="35.3024300">
<ele>182.970001</ele>
<time>2024-12-07T10:23:37.256Z</time>
</trkpt>
<trkpt lat="31.2235900" lon="35.3029800">
<ele>178.580002</ele>
<time>2024-12-07T10:23:37.256Z</time>
</trkpt>
<trkpt lat="31.2238900" lon="35.3032600">
<ele>174.279999</ele>
<time>2024-12-07T10:23:37.256Z</time>
</trkpt>
<trkpt lat="31.2240300" lon="35.3035900">
<ele>174.169998</ele>
<time>2024-12-07T10:23:37.256Z</time>
</trkpt>
<trkpt lat="31.2240900" lon="35.3039600">
<ele>171.279999</ele>
<time>2024-12-07T10:23:37.256Z</time>
</trkpt>
<trkpt lat="31.2240700" lon="35.3041800">
<ele>169.949997</ele>
<time>2024-12-07T10:23:37.256Z</time>
</trkpt>
<trkpt lat="31.2239600" lon="35.3044000">
<ele>170.190002</ele>
<time>2024-12-07T10:23:37.256Z</time>
</trkpt>
<trkpt lat="31.2235300" lon="35.3054300">
<ele>170.799988</ele>
<time>2024-12-07T10:23:37.256Z</time>
</trkpt>
<trkpt lat="31.2235300" lon="35.3054300">
<ele>170.799988</ele>
<time>2024-12-07T10:23:37.256Z</time>
</trkpt>
<trkpt lat="31.2234700" lon="35.3054200">
<ele>169.740005</ele>
<time>2024-12-07T10:23:37.256Z</time>
</trkpt>
<trkpt lat="31.2232900" lon="35.3051900">
<ele>164.419998</ele>
<time>2024-12-07T10:23:37.256Z</time>
</trkpt>
<trkpt lat="31.2234700" lon="35.3054400">
<ele>169.919998</ele>
<time>2024-12-07T10:23:37.256Z</time>
</trkpt>
<trkpt lat="31.2234800" lon="35.3055500">
<ele>171.059998</ele>
<time>2024-12-07T10:23:37.256Z</time>
</trkpt>
<trkpt lat="31.2234800" lon="35.3055500">
<ele>171.059998</ele>
<time>2024-12-07T10:23:37.256Z</time>
</trkpt>
<trkpt lat="31.2233900" lon="35.3056600">
<ele>170.639999</ele>
<time>2024-12-07T10:23:37.256Z</time>
</trkpt>
<trkpt lat="31.2232800" lon="35.3056700">
<ele>166.709991</ele>
<time>2024-12-07T10:23:37.256Z</time>
</trkpt>
<trkpt lat="31.2230700" lon="35.3056500">
<ele>154.490005</ele>
<time>2024-12-07T10:23:37.256Z</time>
</trkpt>
<trkpt lat="31.2230700" lon="35.3056500">
<ele>154.490005</ele>
<time>2024-12-07T10:23:37.256Z</time>
</trkpt>
<trkpt lat="31.2230000" lon="35.3055700">
<ele>154.569992</ele>
<time>2024-12-07T10:23:37.256Z</time>
</trkpt>
<trkpt lat="31.2230000" lon="35.3056200">
<ele>154.460007</ele>
<time>2024-12-07T10:23:37.256Z</time>
</trkpt>
<trkpt lat="31.2229700" lon="35.3056500">
<ele>154.790009</ele>
<time>2024-12-07T10:23:37.256Z</time>
</trkpt>
<trkpt lat="31.2224600" lon="35.3057700">
<ele>158.309998</ele>
<time>2024-12-07T10:23:37.256Z</time>
</trkpt>
<trkpt lat="31.2222800" lon="35.3058800">
<ele>160.410004</ele>
<time>2024-12-07T10:23:37.256Z</time>
</trkpt>
<trkpt lat="31.2220100" lon="35.3063200">
<ele>152.500000</ele>
<time>2024-12-07T10:23:37.256Z</time>
</trkpt>
<trkpt lat="31.2218900" lon="35.3067100">
<ele>144.190002</ele>
<time>2024-12-07T10:23:37.256Z</time>
</trkpt>
<trkpt lat="31.2216500" lon="35.3070200">
<ele>135.520004</ele>
<time>2024-12-07T10:23:37.256Z</time>
</trkpt>
<trkpt lat="31.2215000" lon="35.3073300">
<ele>128.290009</ele>
<time>2024-12-07T10:23:37.256Z</time>
</trkpt>
<trkpt lat="31.2213300" lon="35.3075600">
<ele>121.750000</ele>
<time>2024-12-07T10:23:37.256Z</time>
</trkpt>
<trkpt lat="31.2212200" lon="35.3077700">
<ele>117.399994</ele>
<time>2024-12-07T10:23:37.256Z</time>
</trkpt>
<trkpt lat="31.2210200" lon="35.3083400">
<ele>106.970001</ele>
<time>2024-12-07T10:23:37.256Z</time>
</trkpt>
<trkpt lat="31.2209700" lon="35.3083900">
<ele>105.440002</ele>
<time>2024-12-07T10:23:37.256Z</time>
</trkpt>
<trkpt lat="31.2207200" lon="35.3085200">
<ele>100.019997</ele>
<time>2024-12-07T10:23:37.256Z</time>
</trkpt>
<trkpt lat="31.2206900" lon="35.3085600">
<ele>99.300003</ele>
<time>2024-12-07T10:23:37.256Z</time>
</trkpt>
<trkpt lat="31.2206800" lon="35.3087000">
<ele>98.150002</ele>
<time>2024-12-07T10:23:37.256Z</time>
</trkpt>
<trkpt lat="31.2206500" lon="35.3087900">
<ele>97.070000</ele>
<time>2024-12-07T10:23:37.256Z</time>
</trkpt>
<trkpt lat="31.2206100" lon="35.3088600">
<ele>95.989998</ele>
<time>2024-12-07T10:23:37.256Z</time>
</trkpt>
<trkpt lat="31.2205700" lon="35.3089000">
<ele>95.279999</ele>
<time>2024-12-07T10:23:37.256Z</time>
</trkpt>
<trkpt lat="31.2205400" lon="35.3089800">
<ele>95.769997</ele>
<time>2024-12-07T10:23:37.256Z</time>
</trkpt>
<trkpt lat="31.2205000" lon="35.3098600">
<ele>99.600006</ele>
<time>2024-12-07T10:23:37.256Z</time>
</trkpt>
<trkpt lat="31.2203700" lon="35.3112500">
<ele>98.509995</ele>
<time>2024-12-07T10:23:37.256Z</time>
</trkpt>
<trkpt lat="31.2204400" lon="35.3116300">
<ele>97.059998</ele>
<time>2024-12-07T10:23:37.256Z</time>
</trkpt>
<trkpt lat="31.2204200" lon="35.3128100">
<ele>91.070007</ele>
<time>2024-12-07T10:23:37.256Z</time>
</trkpt>
<trkpt lat="31.2204700" lon="35.3136600">
<ele>95.299995</ele>
<time>2024-12-07T10:23:37.256Z</time>
</trkpt>
<trkpt lat="31.2203200" lon="35.3140100">
<ele>96.459999</ele>
<time>2024-12-07T10:23:37.256Z</time>
</trkpt>
<trkpt lat="31.2203500" lon="35.3142400">
<ele>96.599998</ele>
<time>2024-12-07T10:23:37.256Z</time>
</trkpt>
<trkpt lat="31.2207500" lon="35.3148000">
<ele>92.399994</ele>
<time>2024-12-07T10:23:37.256Z</time>
</trkpt>
<trkpt lat="31.2211600" lon="35.3160100">
<ele>84.660004</ele>
<time>2024-12-07T10:23:37.256Z</time>
</trkpt>
<trkpt lat="31.2210400" lon="35.3176000">
<ele>85.480003</ele>
<time>2024-12-07T10:23:37.256Z</time>
</trkpt>
<trkpt lat="31.2210100" lon="35.3186200">
<ele>87.689995</ele>
<time>2024-12-07T10:23:37.256Z</time>
</trkpt>
<trkpt lat="31.2211100" lon="35.3190100">
<ele>89.560005</ele>
<time>2024-12-07T10:23:37.256Z</time>
</trkpt>
<trkpt lat="31.2215700" lon="35.3192500">
<ele>87.029999</ele>
<time>2024-12-07T10:23:37.256Z</time>
</trkpt>
<trkpt lat="31.2218700" lon="35.3195700">
<ele>86.030006</ele>
<time>2024-12-07T10:23:37.256Z</time>
</trkpt>
<trkpt lat="31.2220900" lon="35.3203800">
<ele>83.460007</ele>
<time>2024-12-07T10:23:37.256Z</time>
</trkpt>
<trkpt lat="31.2220800" lon="35.3205600">
<ele>82.470001</ele>
<time>2024-12-07T10:23:37.256Z</time>
</trkpt>
<trkpt lat="31.2224800" lon="35.3219600">
<ele>78.089996</ele>
<time>2024-12-07T10:23:37.256Z</time>
</trkpt>
<trkpt lat="31.2226200" lon="35.3223300">
<ele>75.360001</ele>
<time>2024-12-07T10:23:37.256Z</time>
</trkpt>
<trkpt lat="31.2228900" lon="35.3227200">
<ele>70.840004</ele>
<time>2024-12-07T10:23:37.256Z</time>
</trkpt>
<trkpt lat="31.2229300" lon="35.3229500">
<ele>69.610001</ele>
<time>2024-12-07T10:23:37.256Z</time>
</trkpt>
<trkpt lat="31.2228500" lon="35.3232800">
<ele>68.099998</ele>
<time>2024-12-07T10:23:37.256Z</time>
</trkpt>
<trkpt lat="31.2225200" lon="35.3241300">
<ele>63.199997</ele>
<time>2024-12-07T10:23:37.256Z</time>
</trkpt>
<trkpt lat="31.2225700" lon="35.3241600">
<ele>62.799999</ele>
<time>2024-12-07T10:23:37.256Z</time>
</trkpt>
<trkpt lat="31.2225200" lon="35.3241300">
<ele>63.199997</ele>
<time>2024-12-07T10:23:37.256Z</time>
</trkpt>
<trkpt lat="31.2223500" lon="35.3245700">
<ele>63.480000</ele>
<time>2024-12-07T10:23:37.256Z</time>
</trkpt>
<trkpt lat="31.2223600" lon="35.3249100">
<ele>65.860001</ele>
<time>2024-12-07T10:23:37.256Z</time>
</trkpt>
<trkpt lat="31.2228000" lon="35.3255300">
<ele>57.919998</ele>
<time>2024-12-07T10:23:37.256Z</time>
</trkpt>
<trkpt lat="31.2230900" lon="35.3263000">
<ele>55.029999</ele>
<time>2024-12-07T10:23:37.256Z</time>
</trkpt>
<trkpt lat="31.2231500" lon="35.3267100">
<ele>53.869999</ele>
<time>2024-12-07T10:23:37.256Z</time>
</trkpt>
<trkpt lat="31.2232000" lon="35.3270400">
<ele>55.849998</ele>
<time>2024-12-07T10:23:37.256Z</time>
</trkpt>
<trkpt lat="31.2236000" lon="35.3278500">
<ele>55.869999</ele>
<time>2024-12-07T10:23:37.256Z</time>
</trkpt>
<trkpt lat="31.2238100" lon="35.3284100">
<ele>58.299999</ele>
<time>2024-12-07T10:23:37.256Z</time>
</trkpt>
<trkpt lat="31.2239500" lon="35.3285900">
<ele>60.369999</ele>
<time>2024-12-07T10:23:37.256Z</time>
</trkpt>
<trkpt lat="31.2243800" lon="35.3288400">
<ele>55.860001</ele>
<time>2024-12-07T10:23:37.256Z</time>
</trkpt>
<trkpt lat="31.2248100" lon="35.3290800">
<ele>53.630001</ele>
<time>2024-12-07T10:23:37.256Z</time>
</trkpt>
<trkpt lat="31.2251900" lon="35.3294400">
<ele>49.520000</ele>
<time>2024-12-07T10:23:37.256Z</time>
</trkpt>
<trkpt lat="31.2255700" lon="35.3298000">
<ele>49.020000</ele>
<time>2024-12-07T10:23:37.256Z</time>
</trkpt>
<trkpt lat="31.2260900" lon="35.3298500">
<ele>50.270000</ele>
<time>2024-12-07T10:23:37.256Z</time>
</trkpt>
<trkpt lat="31.2263600" lon="35.3298800">
<ele>50.220001</ele>
<time>2024-12-07T10:23:37.256Z</time>
</trkpt>
<trkpt lat="31.2268700" lon="35.3301000">
<ele>48.339996</ele>
<time>2024-12-07T10:23:37.256Z</time>
</trkpt>
<trkpt lat="31.2269400" lon="35.3302600">
<ele>50.730000</ele>
<time>2024-12-07T10:23:37.256Z</time>
</trkpt>
<trkpt lat="31.2268800" lon="35.3306300">
<ele>54.240002</ele>
<time>2024-12-07T10:23:37.256Z</time>
</trkpt>
<trkpt lat="31.2269700" lon="35.3308200">
<ele>56.000000</ele>
<time>2024-12-07T10:23:37.256Z</time>
</trkpt>
<trkpt lat="31.2273300" lon="35.3310600">
<ele>53.250000</ele>
<time>2024-12-07T10:23:37.256Z</time>
</trkpt>
<trkpt lat="31.2276400" lon="35.3311100">
<ele>48.510002</ele>
<time>2024-12-07T10:23:37.256Z</time>
</trkpt>
<trkpt lat="31.2279000" lon="35.3314200">
<ele>40.480000</ele>
<time>2024-12-07T10:23:37.256Z</time>
</trkpt>
<trkpt lat="31.2279900" lon="35.3316500">
<ele>42.950001</ele>
<time>2024-12-07T10:23:37.256Z</time>
</trkpt>
<trkpt lat="31.2281200" lon="35.3323000">
<ele>44.490002</ele>
<time>2024-12-07T10:23:37.256Z</time>
</trkpt>
<trkpt lat="31.2282500" lon="35.3325300">
<ele>43.180000</ele>
<time>2024-12-07T10:23:37.256Z</time>
</trkpt>
<trkpt lat="31.2290100" lon="35.3332500">
<ele>32.330002</ele>
<time>2024-12-07T10:23:37.256Z</time>
</trkpt>
<trkpt lat="31.2296000" lon="35.3348200">
<ele>30.410000</ele>
<time>2024-12-07T10:23:37.256Z</time>
</trkpt>
<trkpt lat="31.2295800" lon="35.3353600">
<ele>29.970001</ele>
<time>2024-12-07T10:23:37.256Z</time>
</trkpt>
<trkpt lat="31.2294700" lon="35.3361300">
<ele>34.180000</ele>
<time>2024-12-07T10:23:37.256Z</time>
</trkpt>
<trkpt lat="31.2294900" lon="35.3361400">
<ele>34.329998</ele>
<time>2024-12-07T10:23:37.256Z</time>
</trkpt>
<trkpt lat="31.2294600" lon="35.3362900">
<ele>34.110001</ele>
<time>2024-12-07T10:23:37.256Z</time>
</trkpt>
<trkpt lat="31.2294500" lon="35.3364100">
<ele>34.039997</ele>
<time>2024-12-07T10:23:37.256Z</time>
</trkpt>
<trkpt lat="31.2294500" lon="35.3365100">
<ele>34.029999</ele>
<time>2024-12-07T10:23:37.256Z</time>
</trkpt>
<trkpt lat="31.2294400" lon="35.3365900">
<ele>33.959999</ele>
<time>2024-12-07T10:23:37.256Z</time>
</trkpt>
<trkpt lat="31.2294400" lon="35.3367100">
<ele>33.809998</ele>
<time>2024-12-07T10:23:37.256Z</time>
</trkpt>
<trkpt lat="31.2294200" lon="35.3367500">
<ele>33.549999</ele>
<time>2024-12-07T10:23:37.256Z</time>
</trkpt>
<trkpt lat="31.2293900" lon="35.3367900">
<ele>33.250000</ele>
<time>2024-12-07T10:23:37.256Z</time>
</trkpt>
<trkpt lat="31.2293800" lon="35.3369500">
<ele>32.849998</ele>
<time>2024-12-07T10:23:37.256Z</time>
</trkpt>
<trkpt lat="31.2293700" lon="35.3370500">
<ele>34.250000</ele>
<time>2024-12-07T10:23:37.256Z</time>
</trkpt>
<trkpt lat="31.2293800" lon="35.3371900">
<ele>36.299999</ele>
<time>2024-12-07T10:23:37.256Z</time>
</trkpt>
<trkpt lat="31.2293800" lon="35.3373700">
<ele>38.770000</ele>
<time>2024-12-07T10:23:37.256Z</time>
</trkpt>
<trkpt lat="31.2293900" lon="35.3375000">
<ele>40.610001</ele>
<time>2024-12-07T10:23:37.256Z</time>
</trkpt>
<trkpt lat="31.2293900" lon="35.3375600">
<ele>41.430000</ele>
<time>2024-12-07T10:23:37.256Z</time>
</trkpt>
<trkpt lat="31.2293900" lon="35.3376200">
<ele>42.249996</ele>
<time>2024-12-07T10:23:37.256Z</time>
</trkpt>
<trkpt lat="31.2293800" lon="35.3376900">
<ele>43.110001</ele>
<time>2024-12-07T10:23:37.256Z</time>
</trkpt>
<trkpt lat="31.2293600" lon="35.3378000">
<ele>44.250000</ele>
<time>2024-12-07T10:23:37.256Z</time>
</trkpt>
<trkpt lat="31.2293400" lon="35.3378400">
<ele>44.320004</ele>
<time>2024-12-07T10:23:37.256Z</time>
</trkpt>
<trkpt lat="31.2293200" lon="35.3378700">
<ele>44.320004</ele>
<time>2024-12-07T10:23:37.256Z</time>
</trkpt>
<trkpt lat="31.2292600" lon="35.3379800">
<ele>44.459999</ele>
<time>2024-12-07T10:23:37.256Z</time>
</trkpt>
<trkpt lat="31.2292400" lon="35.3380400">
<ele>44.679996</ele>
<time>2024-12-07T10:23:37.256Z</time>
</trkpt>
<trkpt lat="31.2292200" lon="35.3380700">
<ele>44.579998</ele>
<time>2024-12-07T10:23:37.256Z</time>
</trkpt>
<trkpt lat="31.2292000" lon="35.3381000">
<ele>44.360001</ele>
<time>2024-12-07T10:23:37.256Z</time>
</trkpt>
<trkpt lat="31.2291100" lon="35.3383300">
<ele>43.799999</ele>
<time>2024-12-07T10:23:37.256Z</time>
</trkpt>
<trkpt lat="31.2290500" lon="35.3385200">
<ele>42.520000</ele>
<time>2024-12-07T10:23:37.256Z</time>
</trkpt>
<trkpt lat="31.2290200" lon="35.3387300">
<ele>41.369999</ele>
<time>2024-12-07T10:23:37.256Z</time>
</trkpt>
<trkpt lat="31.2290200" lon="35.3388800">
<ele>40.580002</ele>
<time>2024-12-07T10:23:37.256Z</time>
</trkpt>
<trkpt lat="31.2290200" lon="35.3389400">
<ele>40.160000</ele>
<time>2024-12-07T10:23:37.256Z</time>
</trkpt>
<trkpt lat="31.2290400" lon="35.3393900">
<ele>38.529999</ele>
<time>2024-12-07T10:23:37.256Z</time>
</trkpt>
<trkpt lat="31.2290500" lon="35.3394400">
<ele>38.580002</ele>
<time>2024-12-07T10:23:37.256Z</time>
</trkpt>
<trkpt lat="31.2290500" lon="35.3394900">
<ele>38.740002</ele>
<time>2024-12-07T10:23:37.256Z</time>
</trkpt>
<trkpt lat="31.2290600" lon="35.3395500">
<ele>39.000000</ele>
<time>2024-12-07T10:23:37.256Z</time>
</trkpt>
<trkpt lat="31.2290500" lon="35.3396400">
<ele>39.279999</ele>
<time>2024-12-07T10:23:37.256Z</time>
</trkpt>
<trkpt lat="31.2290600" lon="35.3396900">
<ele>39.500000</ele>
<time>2024-12-07T10:23:37.256Z</time>
</trkpt>
<trkpt lat="31.2290600" lon="35.3397700">
<ele>39.750000</ele>
<time>2024-12-07T10:23:37.256Z</time>
</trkpt>
<trkpt lat="31.2290600" lon="35.3399200">
<ele>40.160000</ele>
<time>2024-12-07T10:23:37.256Z</time>
</trkpt>
<trkpt lat="31.2290900" lon="35.3401400">
<ele>40.639999</ele>
<time>2024-12-07T10:23:37.256Z</time>
</trkpt>
<trkpt lat="31.2291900" lon="35.3404300">
<ele>40.619999</ele>
<time>2024-12-07T10:23:37.256Z</time>
</trkpt>
<trkpt lat="31.2292200" lon="35.3406800">
<ele>39.939999</ele>
<time>2024-12-07T10:23:37.256Z</time>
</trkpt>
<trkpt lat="31.2292400" lon="35.3410100">
<ele>38.419998</ele>
<time>2024-12-07T10:23:37.256Z</time>
</trkpt>
<trkpt lat="31.2292800" lon="35.3413400">
<ele>37.060001</ele>
<time>2024-12-07T10:23:37.256Z</time>
</trkpt>
<trkpt lat="31.2293300" lon="35.3415300">
<ele>36.880001</ele>
<time>2024-12-07T10:23:37.256Z</time>
</trkpt>
<trkpt lat="31.2293800" lon="35.3417000">
<ele>36.650002</ele>
<time>2024-12-07T10:23:37.256Z</time>
</trkpt>
<trkpt lat="31.2293900" lon="35.3417400">
<ele>36.540001</ele>
<time>2024-12-07T10:23:37.256Z</time>
</trkpt>
<trkpt lat="31.2294300" lon="35.3420300">
<ele>36.289997</ele>
<time>2024-12-07T10:23:37.256Z</time>
</trkpt>
<trkpt lat="31.2294600" lon="35.3421800">
<ele>37.220001</ele>
<time>2024-12-07T10:23:37.256Z</time>
</trkpt>
<trkpt lat="31.2294700" lon="35.3422800">
<ele>37.619999</ele>
<time>2024-12-07T10:23:37.256Z</time>
</trkpt>
<trkpt lat="31.2294900" lon="35.3423100">
<ele>38.099998</ele>
<time>2024-12-07T10:23:37.256Z</time>
</trkpt>
<trkpt lat="31.2295300" lon="35.3425200">
<ele>38.879997</ele>
<time>2024-12-07T10:23:37.256Z</time>
</trkpt>
<trkpt lat="31.2295500" lon="35.3425500">
<ele>39.300003</ele>
<time>2024-12-07T10:23:37.256Z</time>
</trkpt>
<trkpt lat="31.2296900" lon="35.3428600">
<ele>39.590004</ele>
<time>2024-12-07T10:23:37.256Z</time>
</trkpt>
<trkpt lat="31.2298300" lon="35.3431500">
<ele>38.610001</ele>
<time>2024-12-07T10:23:37.256Z</time>
</trkpt>
<trkpt lat="31.2298800" lon="35.3432400">
<ele>38.430000</ele>
<time>2024-12-07T10:23:37.256Z</time>
</trkpt>
<trkpt lat="31.2299600" lon="35.3433600">
<ele>37.950001</ele>
<time>2024-12-07T10:23:37.256Z</time>
</trkpt>
<trkpt lat="31.2301700" lon="35.3435900">
<ele>36.669998</ele>
<time>2024-12-07T10:23:37.256Z</time>
</trkpt>
<trkpt lat="31.2303100" lon="35.3438600">
<ele>35.090000</ele>
<time>2024-12-07T10:23:37.256Z</time>
</trkpt>
<trkpt lat="31.2304100" lon="35.3441400">
<ele>33.619999</ele>
<time>2024-12-07T10:23:37.256Z</time>
</trkpt>
<trkpt lat="31.2304300" lon="35.3441800">
<ele>33.410000</ele>
<time>2024-12-07T10:23:37.256Z</time>
</trkpt>
<trkpt lat="31.2305400" lon="35.3443900">
<ele>32.969997</ele>
<time>2024-12-07T10:23:37.256Z</time>
</trkpt>
<trkpt lat="31.2306300" lon="35.3445300">
<ele>32.880001</ele>
<time>2024-12-07T10:23:37.256Z</time>
</trkpt>
<trkpt lat="31.2306900" lon="35.3446000">
<ele>32.650002</ele>
<time>2024-12-07T10:23:37.256Z</time>
</trkpt>
<trkpt lat="31.2307100" lon="35.3446400">
<ele>32.459999</ele>
<time>2024-12-07T10:23:37.256Z</time>
</trkpt>
<trkpt lat="31.2308000" lon="35.3447500">
<ele>32.009998</ele>
<time>2024-12-07T10:23:37.256Z</time>
</trkpt>
<trkpt lat="31.2308300" lon="35.3447900">
<ele>32.000000</ele>
<time>2024-12-07T10:23:37.256Z</time>
</trkpt>
<trkpt lat="31.2310500" lon="35.3449900">
<ele>32.030003</ele>
<time>2024-12-07T10:23:37.256Z</time>
</trkpt>
<trkpt lat="31.2311800" lon="35.3451100">
<ele>30.410000</ele>
<time>2024-12-07T10:23:37.256Z</time>
</trkpt>
<trkpt lat="31.2313600" lon="35.3453000">
<ele>28.619999</ele>
<time>2024-12-07T10:23:37.256Z</time>
</trkpt>
<trkpt lat="31.2313900" lon="35.3453500">
<ele>29.039999</ele>
<time>2024-12-07T10:23:37.256Z</time>
</trkpt>
<trkpt lat="31.2314900" lon="35.3454400">
<ele>29.490000</ele>
<time>2024-12-07T10:23:37.256Z</time>
</trkpt>
<trkpt lat="31.2314900" lon="35.3454500">
<ele>29.580000</ele>
<time>2024-12-07T10:23:37.256Z</time>
</trkpt>
<trkpt lat="31.2315600" lon="35.3455000">
<ele>29.230000</ele>
<time>2024-12-07T10:23:37.256Z</time>
</trkpt>
<trkpt lat="31.2315800" lon="35.3456200">
<ele>29.570000</ele>
<time>2024-12-07T10:23:37.256Z</time>
</trkpt>
<trkpt lat="31.2315800" lon="35.3456200">
<ele>29.570000</ele>
<time>2024-12-07T10:23:37.256Z</time>
</trkpt>
<trkpt lat="31.2315500" lon="35.3457200">
<ele>30.369999</ele>
<time>2024-12-07T10:23:37.256Z</time>
</trkpt>
<trkpt lat="31.2311900" lon="35.3460300">
<ele>34.450001</ele>
<time>2024-12-07T10:23:37.256Z</time>
</trkpt>
<trkpt lat="31.2311300" lon="35.3462000">
<ele>35.040001</ele>
<time>2024-12-07T10:23:37.256Z</time>
</trkpt>
<trkpt lat="31.2311300" lon="35.3465500">
<ele>28.680000</ele>
<time>2024-12-07T10:23:37.256Z</time>
</trkpt>
<trkpt lat="31.2311300" lon="35.3465300">
<ele>29.290001</ele>
<time>2024-12-07T10:23:37.256Z</time>
</trkpt>
<trkpt lat="31.2314500" lon="35.3465600">
<ele>19.789999</ele>
<time>2024-12-07T10:23:37.256Z</time>
</trkpt>
<trkpt lat="31.2315300" lon="35.3466200">
<ele>18.559999</ele>
<time>2024-12-07T10:23:37.256Z</time>
</trkpt>
<trkpt lat="31.2314600" lon="35.3465600">
<ele>19.960001</ele>
<time>2024-12-07T10:23:37.256Z</time>
</trkpt>
<trkpt lat="31.2310700" lon="35.3465600">
<ele>29.400002</ele>
<time>2024-12-07T10:23:37.256Z</time>
</trkpt>
<trkpt lat="31.2310100" lon="35.3465800">
<ele>29.360001</ele>
<time>2024-12-07T10:23:37.256Z</time>
</trkpt>
<trkpt lat="31.2309300" lon="35.3465300">
<ele>31.250000</ele>
<time>2024-12-07T10:23:37.256Z</time>
</trkpt>
<trkpt lat="31.2308700" lon="35.3464200">
<ele>34.170002</ele>
<time>2024-12-07T10:23:37.256Z</time>
</trkpt>
<trkpt lat="31.2308900" lon="35.3462700">
<ele>35.310001</ele>
<time>2024-12-07T10:23:37.256Z</time>
</trkpt>
<trkpt lat="31.2308900" lon="35.3462700">
<ele>35.310001</ele>
<time>2024-12-07T10:23:37.256Z</time>
</trkpt>
<trkpt lat="31.2309000" lon="35.3462300">
<ele>35.470001</ele>
<time>2024-12-07T10:23:37.256Z</time>
</trkpt>
<trkpt lat="31.2309700" lon="35.3461500">
<ele>35.790001</ele>
<time>2024-12-07T10:23:37.256Z</time>
</trkpt>
<trkpt lat="31.2310800" lon="35.3460900">
<ele>35.840000</ele>
<time>2024-12-07T10:23:37.256Z</time>
</trkpt>
<trkpt lat="31.2311900" lon="35.3460300">
<ele>34.450001</ele>
<time>2024-12-07T10:23:37.256Z</time>
</trkpt>
<trkpt lat="31.2315500" lon="35.3457200">
<ele>30.369999</ele>
<time>2024-12-07T10:23:37.256Z</time>
</trkpt>
<trkpt lat="31.2315800" lon="35.3456000">
<ele>29.469999</ele>
<time>2024-12-07T10:23:37.256Z</time>
</trkpt>
<trkpt lat="31.2315700" lon="35.3456000">
<ele>29.600000</ele>
<time>2024-12-07T10:23:37.256Z</time>
</trkpt>
<trkpt lat="31.2315700" lon="35.3456000">
<ele>29.600000</ele>
<time>2024-12-07T10:23:37.256Z</time>
</trkpt>
<trkpt lat="31.2315600" lon="35.3455200">
<ele>29.340000</ele>
<time>2024-12-07T10:23:37.256Z</time>
</trkpt>
<trkpt lat="31.2315600" lon="35.3455200">
<ele>29.340000</ele>
<time>2024-12-07T10:23:37.256Z</time>
</trkpt>
<trkpt lat="31.2315600" lon="35.3455000">
<ele>29.230000</ele>
<time>2024-12-07T10:23:37.256Z</time>
</trkpt>
<trkpt lat="31.2317200" lon="35.3455300">
<ele>28.380001</ele>
<time>2024-12-07T10:23:37.256Z</time>
</trkpt>
<trkpt lat="31.2319100" lon="35.3454600">
<ele>29.750000</ele>
<time>2024-12-07T10:23:37.256Z</time>
</trkpt>
<trkpt lat="31.2321100" lon="35.3453400">
<ele>30.200001</ele>
<time>2024-12-07T10:23:37.256Z</time>
</trkpt>
<trkpt lat="31.2326100" lon="35.3451400">
<ele>29.600000</ele>
<time>2024-12-07T10:23:37.256Z</time>
</trkpt>
<trkpt lat="31.2328100" lon="35.3449700">
<ele>29.490000</ele>
<time>2024-12-07T10:23:37.256Z</time>
</trkpt>
<trkpt lat="31.2330700" lon="35.3449200">
<ele>27.650002</ele>
<time>2024-12-07T10:23:37.256Z</time>
</trkpt>
<trkpt lat="31.2331900" lon="35.3448500">
<ele>28.530001</ele>
<time>2024-12-07T10:23:37.256Z</time>
</trkpt>
<trkpt lat="31.2334400" lon="35.3448700">
<ele>30.379999</ele>
<time>2024-12-07T10:23:37.256Z</time>
</trkpt>
<trkpt lat="31.2336400" lon="35.3449500">
<ele>33.410000</ele>
<time>2024-12-07T10:23:37.256Z</time>
</trkpt>
<trkpt lat="31.2337400" lon="35.3449200">
<ele>33.070000</ele>
<time>2024-12-07T10:23:37.256Z</time>
</trkpt>
<trkpt lat="31.2341000" lon="35.3444900">
<ele>34.549999</ele>
<time>2024-12-07T10:23:37.256Z</time>
</trkpt>
<trkpt lat="31.2343700" lon="35.3442500">
<ele>36.059998</ele>
<time>2024-12-07T10:23:37.256Z</time>
</trkpt>
<trkpt lat="31.2345500" lon="35.3441700">
<ele>36.380001</ele>
<time>2024-12-07T10:23:37.256Z</time>
</trkpt>
<trkpt lat="31.2348200" lon="35.3441000">
<ele>36.450001</ele>
<time>2024-12-07T10:23:37.256Z</time>
</trkpt>
<trkpt lat="31.2351400" lon="35.3439500">
<ele>38.619999</ele>
<time>2024-12-07T10:23:37.256Z</time>
</trkpt>
<trkpt lat="31.2353800" lon="35.3439700">
<ele>34.989998</ele>
<time>2024-12-07T10:23:37.256Z</time>
</trkpt>
<trkpt lat="31.2356300" lon="35.3440400">
<ele>31.770000</ele>
<time>2024-12-07T10:23:37.256Z</time>
</trkpt>
<trkpt lat="31.2360200" lon="35.3439700">
<ele>27.900000</ele>
<time>2024-12-07T10:23:37.256Z</time>
</trkpt>
<trkpt lat="31.2365800" lon="35.3440200">
<ele>25.100000</ele>
<time>2024-12-07T10:23:37.256Z</time>
</trkpt>
<trkpt lat="31.2363900" lon="35.3441500">
<ele>21.370001</ele>
<time>2024-12-07T10:23:37.256Z</time>
</trkpt>
<trkpt lat="31.2359900" lon="35.3442600">
<ele>23.610001</ele>
<time>2024-12-07T10:23:37.256Z</time>
</trkpt>
<trkpt lat="31.2355300" lon="35.3443400">
<ele>24.830000</ele>
<time>2024-12-07T10:23:37.256Z</time>
</trkpt>
<trkpt lat="31.2352200" lon="35.3444200">
<ele>26.770000</ele>
<time>2024-12-07T10:23:37.256Z</time>
</trkpt>
<trkpt lat="31.2349100" lon="35.3444600">
<ele>35.139999</ele>
<time>2024-12-07T10:23:37.256Z</time>
</trkpt>
<trkpt lat="31.2347400" lon="35.3445500">
<ele>33.649998</ele>
<time>2024-12-07T10:23:37.256Z</time>
</trkpt>
<trkpt lat="31.2349100" lon="35.3444600">
<ele>35.139999</ele>
<time>2024-12-07T10:23:37.256Z</time>
</trkpt>
<trkpt lat="31.2352200" lon="35.3444200">
<ele>26.770000</ele>
<time>2024-12-07T10:23:37.256Z</time>
</trkpt>
<trkpt lat="31.2355300" lon="35.3443400">
<ele>24.830000</ele>
<time>2024-12-07T10:23:37.256Z</time>
</trkpt>
<trkpt lat="31.2359900" lon="35.3442600">
<ele>23.610001</ele>
<time>2024-12-07T10:23:37.256Z</time>
</trkpt>
<trkpt lat="31.2363900" lon="35.3441500">
<ele>21.370001</ele>
<time>2024-12-07T10:23:37.256Z</time>
</trkpt>
<trkpt lat="31.2365800" lon="35.3440200">
<ele>25.100000</ele>
<time>2024-12-07T10:23:37.256Z</time>
</trkpt>
<trkpt lat="31.2360200" lon="35.3439700">
<ele>27.900000</ele>
<time>2024-12-07T10:23:37.256Z</time>
</trkpt>
<trkpt lat="31.2356300" lon="35.3440400">
<ele>31.770000</ele>
<time>2024-12-07T10:23:37.256Z</time>
</trkpt>
<trkpt lat="31.2353800" lon="35.3439700">
<ele>34.989998</ele>
<time>2024-12-07T10:23:37.256Z</time>
</trkpt>
<trkpt lat="31.2351400" lon="35.3439500">
<ele>38.619999</ele>
<time>2024-12-07T10:23:37.256Z</time>
</trkpt>
<trkpt lat="31.2348200" lon="35.3441000">
<ele>36.450001</ele>
<time>2024-12-07T10:23:37.256Z</time>
</trkpt>
<trkpt lat="31.2345500" lon="35.3441700">
<ele>36.380001</ele>
<time>2024-12-07T10:23:37.256Z</time>
</trkpt>
<trkpt lat="31.2343700" lon="35.3442500">
<ele>36.059998</ele>
<time>2024-12-07T10:23:37.256Z</time>
</trkpt>
<trkpt lat="31.2341000" lon="35.3444900">
<ele>34.549999</ele>
<time>2024-12-07T10:23:37.256Z</time>
</trkpt>
<trkpt lat="31.2337400" lon="35.3449200">
<ele>33.070000</ele>
<time>2024-12-07T10:23:37.256Z</time>
</trkpt>
<trkpt lat="31.2336400" lon="35.3449500">
<ele>33.410000</ele>
<time>2024-12-07T10:23:37.256Z</time>
</trkpt>
<trkpt lat="31.2334400" lon="35.3448700">
<ele>30.379999</ele>
<time>2024-12-07T10:23:37.256Z</time>
</trkpt>
<trkpt lat="31.2331900" lon="35.3448500">
<ele>28.530001</ele>
<time>2024-12-07T10:23:37.256Z</time>
</trkpt>
<trkpt lat="31.2330700" lon="35.3449200">
<ele>27.650002</ele>
<time>2024-12-07T10:23:37.256Z</time>
</trkpt>
<trkpt lat="31.2328100" lon="35.3449700">
<ele>29.490000</ele>
<time>2024-12-07T10:23:37.256Z</time>
</trkpt>
<trkpt lat="31.2326100" lon="35.3451400">
<ele>29.600000</ele>
<time>2024-12-07T10:23:37.256Z</time>
</trkpt>
<trkpt lat="31.2321100" lon="35.3453400">
<ele>30.200001</ele>
<time>2024-12-07T10:23:37.256Z</time>
</trkpt>
<trkpt lat="31.2319100" lon="35.3454600">
<ele>29.750000</ele>
<time>2024-12-07T10:23:37.256Z</time>
</trkpt>
<trkpt lat="31.2317200" lon="35.3455300">
<ele>28.380001</ele>
<time>2024-12-07T10:23:37.256Z</time>
</trkpt>
<trkpt lat="31.2315600" lon="35.3455000">
<ele>29.230000</ele>
<time>2024-12-07T10:23:37.256Z</time>
</trkpt>
<trkpt lat="31.2315400" lon="35.3454900">
<ele>29.389999</ele>
<time>2024-12-07T10:23:37.256Z</time>
</trkpt>
<trkpt lat="31.2315400" lon="35.3454900">
<ele>29.389999</ele>
<time>2024-12-07T10:23:37.256Z</time>
</trkpt>
<trkpt lat="31.2314600" lon="35.3454000">
<ele>29.309999</ele>
<time>2024-12-07T10:23:37.256Z</time>
</trkpt>
<trkpt lat="31.2313700" lon="35.3453000">
<ele>28.510000</ele>
<time>2024-12-07T10:23:37.256Z</time>
</trkpt>
<trkpt lat="31.2312900" lon="35.3452000">
<ele>28.809999</ele>
<time>2024-12-07T10:23:37.256Z</time>
</trkpt>
<trkpt lat="31.2312000" lon="35.3451200">
<ele>30.059999</ele>
<time>2024-12-07T10:23:37.256Z</time>
</trkpt>
<trkpt lat="31.2311100" lon="35.3450500">
<ele>31.820000</ele>
<time>2024-12-07T10:23:37.256Z</time>
</trkpt>
<trkpt lat="31.2310900" lon="35.3450100">
<ele>31.960001</ele>
<time>2024-12-07T10:23:37.256Z</time>
</trkpt>
<trkpt lat="31.2310000" lon="35.3449400">
<ele>32.130001</ele>
<time>2024-12-07T10:23:37.256Z</time>
</trkpt>
<trkpt lat="31.2309200" lon="35.3448600">
<ele>32.160000</ele>
<time>2024-12-07T10:23:37.256Z</time>
</trkpt>
<trkpt lat="31.2309000" lon="35.3448300">
<ele>32.150002</ele>
<time>2024-12-07T10:23:37.256Z</time>
</trkpt>
<trkpt lat="31.2308000" lon="35.3447400">
<ele>32.009998</ele>
<time>2024-12-07T10:23:37.256Z</time>
</trkpt>
<trkpt lat="31.2306500" lon="35.3445200">
<ele>32.980000</ele>
<time>2024-12-07T10:23:37.256Z</time>
</trkpt>
<trkpt lat="31.2305800" lon="35.3444200">
<ele>33.100002</ele>
<time>2024-12-07T10:23:37.256Z</time>
</trkpt>
<trkpt lat="31.2305100" lon="35.3442900">
<ele>33.020000</ele>
<time>2024-12-07T10:23:37.256Z</time>
</trkpt>
<trkpt lat="31.2304200" lon="35.3441100">
<ele>33.689999</ele>
<time>2024-12-07T10:23:37.256Z</time>
</trkpt>
<trkpt lat="31.2303900" lon="35.3440500">
<ele>34.020000</ele>
<time>2024-12-07T10:23:37.256Z</time>
</trkpt>
<trkpt lat="31.2303600" lon="35.3439600">
<ele>34.450001</ele>
<time>2024-12-07T10:23:37.256Z</time>
</trkpt>
<trkpt lat="31.2303100" lon="35.3438500">
<ele>35.160000</ele>
<time>2024-12-07T10:23:37.256Z</time>
</trkpt>
<trkpt lat="31.2302900" lon="35.3438100">
<ele>35.520000</ele>
<time>2024-12-07T10:23:37.256Z</time>
</trkpt>
<trkpt lat="31.2302400" lon="35.3436900">
<ele>36.299999</ele>
<time>2024-12-07T10:23:37.256Z</time>
</trkpt>
<trkpt lat="31.2302200" lon="35.3436700">
<ele>36.370003</ele>
<time>2024-12-07T10:23:37.256Z</time>
</trkpt>
<trkpt lat="31.2301300" lon="35.3435400">
<ele>36.739998</ele>
<time>2024-12-07T10:23:37.256Z</time>
</trkpt>
<trkpt lat="31.2300400" lon="35.3434300">
<ele>37.259998</ele>
<time>2024-12-07T10:23:37.256Z</time>
</trkpt>
<trkpt lat="31.2300100" lon="35.3433900">
<ele>37.570000</ele>
<time>2024-12-07T10:23:37.256Z</time>
</trkpt>
<trkpt lat="31.2299000" lon="35.3432400">
<ele>38.360001</ele>
<time>2024-12-07T10:23:37.256Z</time>
</trkpt>
<trkpt lat="31.2298000" lon="35.3430700">
<ele>38.720001</ele>
<time>2024-12-07T10:23:37.256Z</time>
</trkpt>
<trkpt lat="31.2297900" lon="35.3430400">
<ele>38.829998</ele>
<time>2024-12-07T10:23:37.256Z</time>
</trkpt>
<trkpt lat="31.2297600" lon="35.3430200">
<ele>39.010002</ele>
<time>2024-12-07T10:23:37.256Z</time>
</trkpt>
<trkpt lat="31.2297400" lon="35.3429900">
<ele>39.189999</ele>
<time>2024-12-07T10:23:37.256Z</time>
</trkpt>
<trkpt lat="31.2296900" lon="35.3428700">
<ele>39.549999</ele>
<time>2024-12-07T10:23:37.256Z</time>
</trkpt>
<trkpt lat="31.2295900" lon="35.3426600">
<ele>39.790001</ele>
<time>2024-12-07T10:23:37.256Z</time>
</trkpt>
<trkpt lat="31.2295300" lon="35.3424800">
<ele>38.869999</ele>
<time>2024-12-07T10:23:37.256Z</time>
</trkpt>
<trkpt lat="31.2294900" lon="35.3423700">
<ele>38.060001</ele>
<time>2024-12-07T10:23:37.256Z</time>
</trkpt>
<trkpt lat="31.2294800" lon="35.3422800">
<ele>37.869999</ele>
<time>2024-12-07T10:23:37.256Z</time>
</trkpt>
<trkpt lat="31.2294600" lon="35.3421500">
<ele>37.100002</ele>
<time>2024-12-07T10:23:37.256Z</time>
</trkpt>
<trkpt lat="31.2294400" lon="35.3419400">
<ele>36.000000</ele>
<time>2024-12-07T10:23:37.256Z</time>
</trkpt>
<trkpt lat="31.2293200" lon="35.3413800">
<ele>37.150002</ele>
<time>2024-12-07T10:23:37.256Z</time>
</trkpt>
<trkpt lat="31.2292800" lon="35.3412700">
<ele>37.419998</ele>
<time>2024-12-07T10:23:37.256Z</time>
</trkpt>
<trkpt lat="31.2292500" lon="35.3410600">
<ele>38.209999</ele>
<time>2024-12-07T10:23:37.256Z</time>
</trkpt>
<trkpt lat="31.2292400" lon="35.3410200">
<ele>38.360001</ele>
<time>2024-12-07T10:23:37.256Z</time>
</trkpt>
<trkpt lat="31.2292300" lon="35.3407200">
<ele>39.860001</ele>
<time>2024-12-07T10:23:37.256Z</time>
</trkpt>
<trkpt lat="31.2292100" lon="35.3404200">
<ele>40.799999</ele>
<time>2024-12-07T10:23:37.256Z</time>
</trkpt>
<trkpt lat="31.2291600" lon="35.3401900">
<ele>40.689999</ele>
<time>2024-12-07T10:23:37.256Z</time>
</trkpt>
<trkpt lat="31.2290900" lon="35.3400000">
<ele>40.280003</ele>
<time>2024-12-07T10:23:37.256Z</time>
</trkpt>
<trkpt lat="31.2290700" lon="35.3397500">
<ele>39.719997</ele>
<time>2024-12-07T10:23:37.256Z</time>
</trkpt>
<trkpt lat="31.2290700" lon="35.3395500">
<ele>39.029999</ele>
<time>2024-12-07T10:23:37.256Z</time>
</trkpt>
<trkpt lat="31.2290600" lon="35.3394600">
<ele>38.670002</ele>
<time>2024-12-07T10:23:37.256Z</time>
</trkpt>
<trkpt lat="31.2290300" lon="35.3389800">
<ele>39.840000</ele>
<time>2024-12-07T10:23:37.256Z</time>
</trkpt>
<trkpt lat="31.2290300" lon="35.3389400">
<ele>40.120003</ele>
<time>2024-12-07T10:23:37.256Z</time>
</trkpt>
<trkpt lat="31.2290200" lon="35.3388500">
<ele>40.730003</ele>
<time>2024-12-07T10:23:37.256Z</time>
</trkpt>
<trkpt lat="31.2290200" lon="35.3387600">
<ele>41.209999</ele>
<time>2024-12-07T10:23:37.256Z</time>
</trkpt>
<trkpt lat="31.2290300" lon="35.3385600">
<ele>42.279999</ele>
<time>2024-12-07T10:23:37.256Z</time>
</trkpt>
<trkpt lat="31.2290300" lon="35.3384900">
<ele>42.660000</ele>
<time>2024-12-07T10:23:37.256Z</time>
</trkpt>
<trkpt lat="31.2290400" lon="35.3384300">
<ele>43.009998</ele>
<time>2024-12-07T10:23:37.256Z</time>
</trkpt>
<trkpt lat="31.2289800" lon="35.3383800">
<ele>43.100002</ele>
<time>2024-12-07T10:23:37.256Z</time>
</trkpt>
<trkpt lat="31.2289500" lon="35.3382900">
<ele>43.219997</ele>
<time>2024-12-07T10:23:37.256Z</time>
</trkpt>
<trkpt lat="31.2288400" lon="35.3383400">
<ele>42.980000</ele>
<time>2024-12-07T10:23:37.256Z</time>
</trkpt>
<trkpt lat="31.2283500" lon="35.3385600">
<ele>42.950001</ele>
<time>2024-12-07T10:23:37.256Z</time>
</trkpt>
<trkpt lat="31.2279200" lon="35.3388200">
<ele>39.750000</ele>
<time>2024-12-07T10:23:37.256Z</time>
</trkpt>
<trkpt lat="31.2274900" lon="35.3390800">
<ele>39.020000</ele>
<time>2024-12-07T10:23:37.256Z</time>
</trkpt>
<trkpt lat="31.2270100" lon="35.3392100">
<ele>39.879997</ele>
<time>2024-12-07T10:23:37.256Z</time>
</trkpt>
<trkpt lat="31.2262300" lon="35.3394600">
<ele>35.360001</ele>
<time>2024-12-07T10:23:37.256Z</time>
</trkpt>
<trkpt lat="31.2255500" lon="35.3394600">
<ele>41.740002</ele>
<time>2024-12-07T10:23:37.256Z</time>
</trkpt>
<trkpt lat="31.2248100" lon="35.3396000">
<ele>33.689999</ele>
<time>2024-12-07T10:23:37.256Z</time>
</trkpt>
<trkpt lat="31.2243800" lon="35.3396600">
<ele>31.040001</ele>
<time>2024-12-07T10:23:37.256Z</time>
</trkpt>
<trkpt lat="31.2239600" lon="35.3396000">
<ele>31.950001</ele>
<time>2024-12-07T10:23:37.256Z</time>
</trkpt>
<trkpt lat="31.2233500" lon="35.3398300">
<ele>30.139999</ele>
<time>2024-12-07T10:23:37.256Z</time>
</trkpt>
<trkpt lat="31.2229300" lon="35.3397900">
<ele>28.320000</ele>
<time>2024-12-07T10:23:37.256Z</time>
</trkpt>
<trkpt lat="31.2228000" lon="35.3398100">
<ele>26.590000</ele>
<time>2024-12-07T10:23:37.256Z</time>
</trkpt>
<trkpt lat="31.2225100" lon="35.3400500">
<ele>25.769999</ele>
<time>2024-12-07T10:23:37.256Z</time>
</trkpt>
<trkpt lat="31.2218200" lon="35.3401800">
<ele>34.590000</ele>
<time>2024-12-07T10:23:37.256Z</time>
</trkpt>
<trkpt lat="31.2211400" lon="35.3404300">
<ele>36.600002</ele>
<time>2024-12-07T10:23:37.256Z</time>
</trkpt>
<trkpt lat="31.2204500" lon="35.3408600">
<ele>35.840000</ele>
<time>2024-12-07T10:23:37.256Z</time>
</trkpt>
<trkpt lat="31.2200200" lon="35.3412000">
<ele>37.309998</ele>
<time>2024-12-07T10:23:37.256Z</time>
</trkpt>
<trkpt lat="31.2195800" lon="35.3415500">
<ele>35.070000</ele>
<time>2024-12-07T10:23:37.256Z</time>
</trkpt>
<trkpt lat="31.2191500" lon="35.3418900">
<ele>34.049999</ele>
<time>2024-12-07T10:23:37.256Z</time>
</trkpt>
<trkpt lat="31.2187700" lon="35.3420400">
<ele>35.049999</ele>
<time>2024-12-07T10:23:37.256Z</time>
</trkpt>
<trkpt lat="31.2184900" lon="35.3421900">
<ele>33.189999</ele>
<time>2024-12-07T10:23:37.256Z</time>
</trkpt>
<trkpt lat="31.2179900" lon="35.3426800">
<ele>31.000000</ele>
<time>2024-12-07T10:23:37.256Z</time>
</trkpt>
<trkpt lat="31.2174800" lon="35.3431500">
<ele>32.169998</ele>
<time>2024-12-07T10:23:37.256Z</time>
</trkpt>
<trkpt lat="31.2172300" lon="35.3433300">
<ele>33.000000</ele>
<time>2024-12-07T10:23:37.256Z</time>
</trkpt>
<trkpt lat="31.2169900" lon="35.3434100">
<ele>35.930000</ele>
<time>2024-12-07T10:23:37.256Z</time>
</trkpt>
<trkpt lat="31.2163500" lon="35.3434300">
<ele>25.990000</ele>
<time>2024-12-07T10:23:37.256Z</time>
</trkpt>
<trkpt lat="31.2161400" lon="35.3435400">
<ele>23.230001</ele>
<time>2024-12-07T10:23:37.256Z</time>
</trkpt>
<trkpt lat="31.2160100" lon="35.3435100">
<ele>24.710001</ele>
<time>2024-12-07T10:23:37.256Z</time>
</trkpt>
<trkpt lat="31.2158500" lon="35.3434200">
<ele>27.029999</ele>
<time>2024-12-07T10:23:37.256Z</time>
</trkpt>
<trkpt lat="31.2156100" lon="35.3434400">
<ele>24.129999</ele>
<time>2024-12-07T10:23:37.256Z</time>
</trkpt>
<trkpt lat="31.2153100" lon="35.3435300">
<ele>21.280001</ele>
<time>2024-12-07T10:23:37.256Z</time>
</trkpt>
<trkpt lat="31.2148800" lon="35.3435900">
<ele>20.129999</ele>
<time>2024-12-07T10:23:37.256Z</time>
</trkpt>
<trkpt lat="31.2144000" lon="35.3435100">
<ele>18.309999</ele>
<time>2024-12-07T10:23:37.256Z</time>
</trkpt>
<trkpt lat="31.2135400" lon="35.3434400">
<ele>19.080000</ele>
<time>2024-12-07T10:23:37.256Z</time>
</trkpt>
<trkpt lat="31.2131900" lon="35.3433400">
<ele>15.889999</ele>
<time>2024-12-07T10:23:37.256Z</time>
</trkpt>
<trkpt lat="31.2129800" lon="35.3434100">
<ele>13.600000</ele>
<time>2024-12-07T10:23:37.256Z</time>
</trkpt>
<trkpt lat="31.2127200" lon="35.3436500">
<ele>13.410000</ele>
<time>2024-12-07T10:23:37.256Z</time>
</trkpt>
<trkpt lat="31.2126200" lon="35.3436700">
<ele>12.530001</ele>
<time>2024-12-07T10:23:37.256Z</time>
</trkpt>
<trkpt lat="31.2122100" lon="35.3438900">
<ele>14.219999</ele>
<time>2024-12-07T10:23:37.256Z</time>
</trkpt>
<trkpt lat="31.2117900" lon="35.3441200">
<ele>19.920000</ele>
<time>2024-12-07T10:23:37.256Z</time>
</trkpt>
<trkpt lat="31.2113800" lon="35.3443400">
<ele>16.629999</ele>
<time>2024-12-07T10:23:37.256Z</time>
</trkpt>
<trkpt lat="31.2108600" lon="35.3445600">
<ele>16.020000</ele>
<time>2024-12-07T10:23:37.256Z</time>
</trkpt>
<trkpt lat="31.2103400" lon="35.3447700">
<ele>23.540001</ele>
<time>2024-12-07T10:23:37.256Z</time>
</trkpt>
<trkpt lat="31.2097400" lon="35.3449400">
<ele>27.270000</ele>
<time>2024-12-07T10:23:37.256Z</time>
</trkpt>
<trkpt lat="31.2091700" lon="35.3451700">
<ele>26.010000</ele>
<time>2024-12-07T10:23:37.256Z</time>
</trkpt>
<trkpt lat="31.2091700" lon="35.3451800">
<ele>26.020000</ele>
<time>2024-12-07T10:23:37.256Z</time>
</trkpt>
<trkpt lat="31.2090800" lon="35.3452100">
<ele>25.379999</ele>
<time>2024-12-07T10:23:37.256Z</time>
</trkpt>
<trkpt lat="31.2089000" lon="35.3452800">
<ele>24.090000</ele>
<time>2024-12-07T10:23:37.256Z</time>
</trkpt>
<trkpt lat="31.2087600" lon="35.3454600">
<ele>24.959999</ele>
<time>2024-12-07T10:23:37.256Z</time>
</trkpt>
<trkpt lat="31.2086200" lon="35.3456100">
<ele>26.550001</ele>
<time>2024-12-07T10:23:37.256Z</time>
</trkpt>
<trkpt lat="31.2084600" lon="35.3457300">
<ele>27.680000</ele>
<time>2024-12-07T10:23:37.256Z</time>
</trkpt>
<trkpt lat="31.2083300" lon="35.3459100">
<ele>28.710001</ele>
<time>2024-12-07T10:23:37.256Z</time>
</trkpt>
<trkpt lat="31.2082900" lon="35.3459500">
<ele>28.400000</ele>
<time>2024-12-07T10:23:37.256Z</time>
</trkpt>
<trkpt lat="31.2082500" lon="35.3460000">
<ele>28.160000</ele>
<time>2024-12-07T10:23:37.256Z</time>
</trkpt>
<trkpt lat="31.2082200" lon="35.3460400">
<ele>28.049999</ele>
<time>2024-12-07T10:23:37.256Z</time>
</trkpt>
<trkpt lat="31.2082000" lon="35.3460700">
<ele>28.010000</ele>
<time>2024-12-07T10:23:37.256Z</time>
</trkpt>
<trkpt lat="31.2081300" lon="35.3462100">
<ele>28.260000</ele>
<time>2024-12-07T10:23:37.256Z</time>
</trkpt>
<trkpt lat="31.2080900" lon="35.3463100">
<ele>28.629999</ele>
<time>2024-12-07T10:23:37.256Z</time>
</trkpt>
<trkpt lat="31.2080700" lon="35.3463300">
<ele>28.750000</ele>
<time>2024-12-07T10:23:37.256Z</time>
</trkpt>
<trkpt lat="31.2080500" lon="35.3463700">
<ele>28.870001</ele>
<time>2024-12-07T10:23:37.256Z</time>
</trkpt>
<trkpt lat="31.2080400" lon="35.3464100">
<ele>28.680000</ele>
<time>2024-12-07T10:23:37.256Z</time>
</trkpt>
<trkpt lat="31.2080400" lon="35.3464500">
<ele>28.400000</ele>
<time>2024-12-07T10:23:37.256Z</time>
</trkpt>
<trkpt lat="31.2080400" lon="35.3464900">
<ele>28.119999</ele>
<time>2024-12-07T10:23:37.256Z</time>
</trkpt>
<trkpt lat="31.2080500" lon="35.3465500">
<ele>27.789999</ele>
<time>2024-12-07T10:23:37.256Z</time>
</trkpt>
<trkpt lat="31.2080600" lon="35.3467400">
<ele>26.510000</ele>
<time>2024-12-07T10:23:37.256Z</time>
</trkpt>
<trkpt lat="31.2080600" lon="35.3469400">
<ele>25.100000</ele>
<time>2024-12-07T10:23:37.256Z</time>
</trkpt>
<trkpt lat="31.2080600" lon="35.3469700">
<ele>24.879999</ele>
<time>2024-12-07T10:23:37.256Z</time>
</trkpt>
<trkpt lat="31.2080600" lon="35.3470900">
<ele>24.000000</ele>
<time>2024-12-07T10:23:37.256Z</time>
</trkpt>
<trkpt lat="31.2080600" lon="35.3471300">
<ele>23.709999</ele>
<time>2024-12-07T10:23:37.256Z</time>
</trkpt>
<trkpt lat="31.2080600" lon="35.3472400">
<ele>22.709999</ele>
<time>2024-12-07T10:23:37.256Z</time>
</trkpt>
<trkpt lat="31.2080700" lon="35.3474100">
<ele>19.720001</ele>
<time>2024-12-07T10:23:37.256Z</time>
</trkpt>
<trkpt lat="31.2080800" lon="35.3477100">
<ele>15.020000</ele>
<time>2024-12-07T10:23:37.256Z</time>
</trkpt>
<trkpt lat="31.2080800" lon="35.3477600">
<ele>14.270000</ele>
<time>2024-12-07T10:23:37.256Z</time>
</trkpt>
<trkpt lat="31.2080800" lon="35.3478200">
<ele>13.700000</ele>
<time>2024-12-07T10:23:37.256Z</time>
</trkpt>
<trkpt lat="31.2080800" lon="35.3480200">
<ele>12.260000</ele>
<time>2024-12-07T10:23:37.256Z</time>
</trkpt>
<trkpt lat="31.2080800" lon="35.3480800">
<ele>11.980000</ele>
<time>2024-12-07T10:23:37.256Z</time>
</trkpt>
<trkpt lat="31.2080800" lon="35.3482000">
<ele>11.860001</ele>
<time>2024-12-07T10:23:37.256Z</time>
</trkpt>
<trkpt lat="31.2080900" lon="35.3482500">
<ele>11.740000</ele>
<time>2024-12-07T10:23:37.256Z</time>
</trkpt>
<trkpt lat="31.2081000" lon="35.3483600">
<ele>11.220000</ele>
<time>2024-12-07T10:23:37.256Z</time>
</trkpt>
<trkpt lat="31.2081000" lon="35.3484100">
<ele>10.650000</ele>
<time>2024-12-07T10:23:37.256Z</time>
</trkpt>
<trkpt lat="31.2081000" lon="35.3484600">
<ele>10.080000</ele>
<time>2024-12-07T10:23:37.256Z</time>
</trkpt>
<trkpt lat="31.2081000" lon="35.3485000">
<ele>9.620000</ele>
<time>2024-12-07T10:23:37.256Z</time>
</trkpt>
<trkpt lat="31.2081000" lon="35.3485900">
<ele>8.600000</ele>
<time>2024-12-07T10:23:37.256Z</time>
</trkpt>
<trkpt lat="31.2080900" lon="35.3487000">
<ele>7.340000</ele>
<time>2024-12-07T10:23:37.256Z</time>
</trkpt>
<trkpt lat="31.2080700" lon="35.3487700">
<ele>6.590000</ele>
<time>2024-12-07T10:23:37.256Z</time>
</trkpt>
<trkpt lat="31.2080200" lon="35.3489100">
<ele>5.130000</ele>
<time>2024-12-07T10:23:37.256Z</time>
</trkpt>
<trkpt lat="31.2079300" lon="35.3490200">
<ele>5.600000</ele>
<time>2024-12-07T10:23:37.256Z</time>
</trkpt>
<trkpt lat="31.2078800" lon="35.3490600">
<ele>6.200000</ele>
<time>2024-12-07T10:23:37.256Z</time>
</trkpt>
<trkpt lat="31.2078000" lon="35.3491100">
<ele>7.440000</ele>
<time>2024-12-07T10:23:37.256Z</time>
</trkpt>
<trkpt lat="31.2077700" lon="35.3492100">
<ele>8.140000</ele>
<time>2024-12-07T10:23:37.256Z</time>
</trkpt>
<trkpt lat="31.2077700" lon="35.3492500">
<ele>8.150001</ele>
<time>2024-12-07T10:23:37.256Z</time>
</trkpt>
<trkpt lat="31.2078100" lon="35.3494100">
<ele>7.420000</ele>
<time>2024-12-07T10:23:37.256Z</time>
</trkpt>
<trkpt lat="31.2078400" lon="35.3494500">
<ele>6.860000</ele>
<time>2024-12-07T10:23:37.256Z</time>
</trkpt>
<trkpt lat="31.2079000" lon="35.3496000">
<ele>4.990000</ele>
<time>2024-12-07T10:23:37.256Z</time>
</trkpt>
<trkpt lat="31.2079200" lon="35.3496500">
<ele>4.320000</ele>
<time>2024-12-07T10:23:37.256Z</time>
</trkpt>
<trkpt lat="31.2079300" lon="35.3498400">
<ele>2.670000</ele>
<time>2024-12-07T10:23:37.256Z</time>
</trkpt>
<trkpt lat="31.2079400" lon="35.3499700">
<ele>1.340000</ele>
<time>2024-12-07T10:23:37.256Z</time>
</trkpt>
<trkpt lat="31.2079600" lon="35.3500200">
<ele>0.760000</ele>
<time>2024-12-07T10:23:37.256Z</time>
</trkpt>
<trkpt lat="31.2079900" lon="35.3501300">
<ele>0.810000</ele>
<time>2024-12-07T10:23:37.256Z</time>
</trkpt>
<trkpt lat="31.2080400" lon="35.3502300">
<ele>1.440000</ele>
<time>2024-12-07T10:23:37.256Z</time>
</trkpt>
<trkpt lat="31.2080500" lon="35.3502400">
<ele>1.570000</ele>
<time>2024-12-07T10:23:37.256Z</time>
</trkpt>
<trkpt lat="31.2081300" lon="35.3503800">
<ele>-6.290000</ele>
<time>2024-12-07T10:23:37.256Z</time>
</trkpt>
<trkpt lat="31.2081800" lon="35.3504900">
<ele>-14.389999</ele>
<time>2024-12-07T10:23:37.256Z</time>
</trkpt>
<trkpt lat="31.2081900" lon="35.3505100">
<ele>-16.000000</ele>
<time>2024-12-07T10:23:37.256Z</time>
</trkpt>
<trkpt lat="31.2082000" lon="35.3505100">
<ele>-16.650000</ele>
<time>2024-12-07T10:23:37.256Z</time>
</trkpt>
<trkpt lat="31.2080300" lon="35.3504900">
<ele>-5.890000</ele>
<time>2024-12-07T10:23:37.256Z</time>
</trkpt>
<trkpt lat="31.2078600" lon="35.3504800">
<ele>-2.290000</ele>
<time>2024-12-07T10:23:37.256Z</time>
</trkpt>
<trkpt lat="31.2076600" lon="35.3505100">
<ele>1.850000</ele>
<time>2024-12-07T10:23:37.256Z</time>
</trkpt>
<trkpt lat="31.2074800" lon="35.3505100">
<ele>6.020000</ele>
<time>2024-12-07T10:23:37.256Z</time>
</trkpt>
<trkpt lat="31.2072900" lon="35.3504800">
<ele>11.040001</ele>
<time>2024-12-07T10:23:37.256Z</time>
</trkpt>
<trkpt lat="31.2074800" lon="35.3505100">
<ele>6.020000</ele>
<time>2024-12-07T10:23:37.256Z</time>
</trkpt>
<trkpt lat="31.2076600" lon="35.3505100">
<ele>1.850000</ele>
<time>2024-12-07T10:23:37.256Z</time>
</trkpt>
<trkpt lat="31.2078600" lon="35.3504800">
<ele>-2.290000</ele>
<time>2024-12-07T10:23:37.256Z</time>
</trkpt>
<trkpt lat="31.2080300" lon="35.3504900">
<ele>-5.890000</ele>
<time>2024-12-07T10:23:37.256Z</time>
</trkpt>
<trkpt lat="31.2082000" lon="35.3505100">
<ele>-16.650000</ele>
<time>2024-12-07T10:23:37.256Z</time>
</trkpt>
<trkpt lat="31.2081100" lon="35.3503200">
<ele>-2.560000</ele>
<time>2024-12-07T10:23:37.256Z</time>
</trkpt>
<trkpt lat="31.2081200" lon="35.3503100">
<ele>-2.660000</ele>
<time>2024-12-07T10:23:37.256Z</time>
</trkpt>
<trkpt lat="31.2080700" lon="35.3502300">
<ele>0.840000</ele>
<time>2024-12-07T10:23:37.256Z</time>
</trkpt>
<trkpt lat="31.2080200" lon="35.3501500">
<ele>0.780000</ele>
<time>2024-12-07T10:23:37.256Z</time>
</trkpt>
<trkpt lat="31.2079400" lon="35.3499000">
<ele>1.950000</ele>
<time>2024-12-07T10:23:37.256Z</time>
</trkpt>
<trkpt lat="31.2079300" lon="35.3496400">
<ele>4.170000</ele>
<time>2024-12-07T10:23:37.256Z</time>
</trkpt>
<trkpt lat="31.2078700" lon="35.3494500">
<ele>6.310000</ele>
<time>2024-12-07T10:23:37.256Z</time>
</trkpt>
<trkpt lat="31.2078000" lon="35.3493100">
<ele>7.600000</ele>
<time>2024-12-07T10:23:37.256Z</time>
</trkpt>
<trkpt lat="31.2077600" lon="35.3492100">
<ele>8.330000</ele>
<time>2024-12-07T10:23:37.256Z</time>
</trkpt>
<trkpt lat="31.2077600" lon="35.3491600">
<ele>8.300000</ele>
<time>2024-12-07T10:23:37.256Z</time>
</trkpt>
<trkpt lat="31.2077600" lon="35.3490900">
<ele>8.040000</ele>
<time>2024-12-07T10:23:37.256Z</time>
</trkpt>
<trkpt lat="31.2078100" lon="35.3490500">
<ele>7.150000</ele>
<time>2024-12-07T10:23:37.256Z</time>
</trkpt>
<trkpt lat="31.2079700" lon="35.3489300">
<ele>5.460000</ele>
<time>2024-12-07T10:23:37.256Z</time>
</trkpt>
<trkpt lat="31.2080500" lon="35.3488000">
<ele>6.300000</ele>
<time>2024-12-07T10:23:37.256Z</time>
</trkpt>
<trkpt lat="31.2080800" lon="35.3486000">
<ele>8.770000</ele>
<time>2024-12-07T10:23:37.256Z</time>
</trkpt>
<trkpt lat="31.2081000" lon="35.3484000">
<ele>10.760000</ele>
<time>2024-12-07T10:23:37.256Z</time>
</trkpt>
<trkpt lat="31.2081000" lon="35.3483600">
<ele>11.220000</ele>
<time>2024-12-07T10:23:37.256Z</time>
</trkpt>
<trkpt lat="31.2081000" lon="35.3482600">
<ele>11.650001</ele>
<time>2024-12-07T10:23:37.256Z</time>
</trkpt>
<trkpt lat="31.2080900" lon="35.3481800">
<ele>11.830000</ele>
<time>2024-12-07T10:23:37.256Z</time>
</trkpt>
<trkpt lat="31.2080900" lon="35.3481400">
<ele>11.889999</ele>
<time>2024-12-07T10:23:37.256Z</time>
</trkpt>
<trkpt lat="31.2080800" lon="35.3479400">
<ele>12.829999</ele>
<time>2024-12-07T10:23:37.256Z</time>
</trkpt>
<trkpt lat="31.2080800" lon="35.3479000">
<ele>13.120000</ele>
<time>2024-12-07T10:23:37.256Z</time>
</trkpt>
<trkpt lat="31.2080900" lon="35.3476800">
<ele>15.500000</ele>
<time>2024-12-07T10:23:37.256Z</time>
</trkpt>
<trkpt lat="31.2080900" lon="35.3476100">
<ele>16.570000</ele>
<time>2024-12-07T10:23:37.256Z</time>
</trkpt>
<trkpt lat="31.2080900" lon="35.3475700">
<ele>17.180000</ele>
<time>2024-12-07T10:23:37.256Z</time>
</trkpt>
<trkpt lat="31.2080900" lon="35.3474100">
<ele>19.870001</ele>
<time>2024-12-07T10:23:37.256Z</time>
</trkpt>
<trkpt lat="31.2080900" lon="35.3473300">
<ele>21.309999</ele>
<time>2024-12-07T10:23:37.256Z</time>
</trkpt>
<trkpt lat="31.2080700" lon="35.3472200">
<ele>23.120001</ele>
<time>2024-12-07T10:23:37.256Z</time>
</trkpt>
<trkpt lat="31.2080700" lon="35.3471300">
<ele>23.800001</ele>
<time>2024-12-07T10:23:37.256Z</time>
</trkpt>
<trkpt lat="31.2080600" lon="35.3470400">
<ele>24.359999</ele>
<time>2024-12-07T10:23:37.256Z</time>
</trkpt>
<trkpt lat="31.2080600" lon="35.3469900">
<ele>24.730000</ele>
<time>2024-12-07T10:23:37.256Z</time>
</trkpt>
<trkpt lat="31.2080700" lon="35.3469300">
<ele>25.309999</ele>
<time>2024-12-07T10:23:37.256Z</time>
</trkpt>
<trkpt lat="31.2080800" lon="35.3468300">
<ele>26.100000</ele>
<time>2024-12-07T10:23:37.256Z</time>
</trkpt>
<trkpt lat="31.2080900" lon="35.3467800">
<ele>26.529999</ele>
<time>2024-12-07T10:23:37.256Z</time>
</trkpt>
<trkpt lat="31.2080900" lon="35.3465900">
<ele>27.700001</ele>
<time>2024-12-07T10:23:37.256Z</time>
</trkpt>
<trkpt lat="31.2080600" lon="35.3464700">
<ele>28.410000</ele>
<time>2024-12-07T10:23:37.256Z</time>
</trkpt>
<trkpt lat="31.2080500" lon="35.3464300">
<ele>28.650000</ele>
<time>2024-12-07T10:23:37.256Z</time>
</trkpt>
<trkpt lat="31.2080500" lon="35.3463700">
<ele>28.870001</ele>
<time>2024-12-07T10:23:37.256Z</time>
</trkpt>
<trkpt lat="31.2080500" lon="35.3463400">
<ele>28.760000</ele>
<time>2024-12-07T10:23:37.256Z</time>
</trkpt>
<trkpt lat="31.2080600" lon="35.3462900">
<ele>28.629999</ele>
<time>2024-12-07T10:23:37.256Z</time>
</trkpt>
<trkpt lat="31.2080700" lon="35.3462400">
<ele>28.439999</ele>
<time>2024-12-07T10:23:37.256Z</time>
</trkpt>
<trkpt lat="31.2081100" lon="35.3462000">
<ele>28.260000</ele>
<time>2024-12-07T10:23:37.256Z</time>
</trkpt>
<trkpt lat="31.2081600" lon="35.3461100">
<ele>28.000000</ele>
<time>2024-12-07T10:23:37.256Z</time>
</trkpt>
<trkpt lat="31.2081800" lon="35.3460800">
<ele>27.990002</ele>
<time>2024-12-07T10:23:37.256Z</time>
</trkpt>
<trkpt lat="31.2082700" lon="35.3459200">
<ele>28.370001</ele>
<time>2024-12-07T10:23:37.256Z</time>
</trkpt>
<trkpt lat="31.2083300" lon="35.3458500">
<ele>28.920000</ele>
<time>2024-12-07T10:23:37.256Z</time>
</trkpt>
<trkpt lat="31.2084100" lon="35.3457600">
<ele>28.019999</ele>
<time>2024-12-07T10:23:37.256Z</time>
</trkpt>
<trkpt lat="31.2084800" lon="35.3456700">
<ele>26.960001</ele>
<time>2024-12-07T10:23:37.256Z</time>
</trkpt>
<trkpt lat="31.2085900" lon="35.3455800">
<ele>26.189999</ele>
<time>2024-12-07T10:23:37.256Z</time>
</trkpt>
<trkpt lat="31.2087500" lon="35.3454600">
<ele>24.980001</ele>
<time>2024-12-07T10:23:37.256Z</time>
</trkpt>
<trkpt lat="31.2087700" lon="35.3454300">
<ele>24.779999</ele>
<time>2024-12-07T10:23:37.256Z</time>
</trkpt>
<trkpt lat="31.2088000" lon="35.3454000">
<ele>24.580000</ele>
<time>2024-12-07T10:23:37.256Z</time>
</trkpt>
<trkpt lat="31.2088500" lon="35.3453100">
<ele>24.129999</ele>
<time>2024-12-07T10:23:37.256Z</time>
</trkpt>
<trkpt lat="31.2088600" lon="35.3452700">
<ele>24.000000</ele>
<time>2024-12-07T10:23:37.256Z</time>
</trkpt>
<trkpt lat="31.2088300" lon="35.3452500">
<ele>24.019999</ele>
<time>2024-12-07T10:23:37.256Z</time>
</trkpt>
<trkpt lat="31.2086700" lon="35.3452800">
<ele>24.010000</ele>
<time>2024-12-07T10:23:37.256Z</time>
</trkpt>
<trkpt lat="31.2085200" lon="35.3453200">
<ele>24.249998</ele>
<time>2024-12-07T10:23:37.256Z</time>
</trkpt>
<trkpt lat="31.2085300" lon="35.3453500">
<ele>24.439999</ele>
<time>2024-12-07T10:23:37.256Z</time>
</trkpt>
<trkpt lat="31.2077400" lon="35.3455800">
<ele>20.640001</ele>
<time>2024-12-07T10:23:37.256Z</time>
</trkpt>
<trkpt lat="31.2075400" lon="35.3456800">
<ele>22.759998</ele>
<time>2024-12-07T10:23:37.256Z</time>
</trkpt>
<trkpt lat="31.2073400" lon="35.3457100">
<ele>23.900000</ele>
<time>2024-12-07T10:23:37.256Z</time>
</trkpt>
<trkpt lat="31.2067800" lon="35.3459100">
<ele>23.859999</ele>
<time>2024-12-07T10:23:37.256Z</time>
</trkpt>
<trkpt lat="31.2063300" lon="35.3459500">
<ele>23.540001</ele>
<time>2024-12-07T10:23:37.256Z</time>
</trkpt>
<trkpt lat="31.2056900" lon="35.3464000">
<ele>26.520000</ele>
<time>2024-12-07T10:23:37.256Z</time>
</trkpt>
<trkpt lat="31.2054900" lon="35.3466500">
<ele>27.179998</ele>
<time>2024-12-07T10:23:37.256Z</time>
</trkpt>
<trkpt lat="31.2053900" lon="35.3468900">
<ele>29.360001</ele>
<time>2024-12-07T10:23:37.256Z</time>
</trkpt>
<trkpt lat="31.2053700" lon="35.3474600">
<ele>31.240000</ele>
<time>2024-12-07T10:23:37.256Z</time>
</trkpt>
<trkpt lat="31.2052400" lon="35.3475800">
<ele>29.710001</ele>
<time>2024-12-07T10:23:37.256Z</time>
</trkpt>
<trkpt lat="31.2049000" lon="35.3476800">
<ele>26.330000</ele>
<time>2024-12-07T10:23:37.256Z</time>
</trkpt>
<trkpt lat="31.2045500" lon="35.3478700">
<ele>23.750000</ele>
<time>2024-12-07T10:23:37.256Z</time>
</trkpt>
<trkpt lat="31.2043700" lon="35.3479600">
<ele>22.759998</ele>
<time>2024-12-07T10:23:37.256Z</time>
</trkpt>
<trkpt lat="31.2041300" lon="35.3480800">
<ele>21.680000</ele>
<time>2024-12-07T10:23:37.256Z</time>
</trkpt>
<trkpt lat="31.2039400" lon="35.3481500">
<ele>20.230000</ele>
<time>2024-12-07T10:23:37.256Z</time>
</trkpt>
<trkpt lat="31.2036600" lon="35.3481700">
<ele>18.940001</ele>
<time>2024-12-07T10:23:37.256Z</time>
</trkpt>
<trkpt lat="31.2031900" lon="35.3480700">
<ele>21.440001</ele>
<time>2024-12-07T10:23:37.256Z</time>
</trkpt>
<trkpt lat="31.2030200" lon="35.3481100">
<ele>21.219999</ele>
<time>2024-12-07T10:23:37.256Z</time>
</trkpt>
<trkpt lat="31.2026800" lon="35.3483000">
<ele>17.420000</ele>
<time>2024-12-07T10:23:37.256Z</time>
</trkpt>
<trkpt lat="31.2025200" lon="35.3484300">
<ele>18.250000</ele>
<time>2024-12-07T10:23:37.256Z</time>
</trkpt>
<trkpt lat="31.2023700" lon="35.3484600">
<ele>17.010000</ele>
<time>2024-12-07T10:23:37.256Z</time>
</trkpt>
<trkpt lat="31.2023700" lon="35.3484400">
<ele>16.870001</ele>
<time>2024-12-07T10:23:37.256Z</time>
</trkpt>
<trkpt lat="31.2023700" lon="35.3484600">
<ele>17.010000</ele>
<time>2024-12-07T10:23:37.256Z</time>
</trkpt>
<trkpt lat="31.2022500" lon="35.3484700">
<ele>15.780000</ele>
<time>2024-12-07T10:23:37.256Z</time>
</trkpt>
<trkpt lat="31.2021500" lon="35.3484600">
<ele>14.370000</ele>
<time>2024-12-07T10:23:37.256Z</time>
</trkpt>
<trkpt lat="31.2020300" lon="35.3484900">
<ele>12.750000</ele>
<time>2024-12-07T10:23:37.256Z</time>
</trkpt>
<trkpt lat="31.2018900" lon="35.3485200">
<ele>10.480000</ele>
<time>2024-12-07T10:23:37.256Z</time>
</trkpt>
<trkpt lat="31.2016800" lon="35.3485500">
<ele>7.200000</ele>
<time>2024-12-07T10:23:37.256Z</time>
</trkpt>
<trkpt lat="31.2015500" lon="35.3485600">
<ele>2.660000</ele>
<time>2024-12-07T10:23:37.256Z</time>
</trkpt>
<trkpt lat="31.2014600" lon="35.3486500">
<ele>-3.670000</ele>
<time>2024-12-07T10:23:37.256Z</time>
</trkpt>
<trkpt lat="31.2013500" lon="35.3486500">
<ele>-11.220000</ele>
<time>2024-12-07T10:23:37.256Z</time>
</trkpt>
<trkpt lat="31.2012800" lon="35.3485800">
<ele>-14.610000</ele>
<time>2024-12-07T10:23:37.256Z</time>
</trkpt>
<trkpt lat="31.2012000" lon="35.3485300">
<ele>-18.720001</ele>
<time>2024-12-07T10:23:37.256Z</time>
</trkpt>
<trkpt lat="31.2010900" lon="35.3485500">
<ele>-30.630001</ele>
<time>2024-12-07T10:23:37.256Z</time>
</trkpt>
<trkpt lat="31.2010600" lon="35.3484900">
<ele>-29.080000</ele>
<time>2024-12-07T10:23:37.256Z</time>
</trkpt>
<trkpt lat="31.2010800" lon="35.3484400">
<ele>-22.250000</ele>
<time>2024-12-07T10:23:37.256Z</time>
</trkpt>
<trkpt lat="31.2011300" lon="35.3484000">
<ele>-13.150000</ele>
<time>2024-12-07T10:23:37.256Z</time>
</trkpt>
<trkpt lat="31.2012300" lon="35.3484200">
<ele>-8.710000</ele>
<time>2024-12-07T10:23:37.256Z</time>
</trkpt>
<trkpt lat="31.2014000" lon="35.3483700">
<ele>2.980000</ele>
<time>2024-12-07T10:23:37.256Z</time>
</trkpt>
<trkpt lat="31.2015200" lon="35.3483300">
<ele>5.450000</ele>
<time>2024-12-07T10:23:37.256Z</time>
</trkpt>
<trkpt lat="31.2015300" lon="35.3482900">
<ele>5.990000</ele>
<time>2024-12-07T10:23:37.256Z</time>
</trkpt>
<trkpt lat="31.2015100" lon="35.3482200">
<ele>6.580000</ele>
<time>2024-12-07T10:23:37.256Z</time>
</trkpt>
<trkpt lat="31.2014400" lon="35.3481900">
<ele>6.430000</ele>
<time>2024-12-07T10:23:37.256Z</time>
</trkpt>
<trkpt lat="31.2013700" lon="35.3481700">
<ele>5.740000</ele>
<time>2024-12-07T10:23:37.256Z</time>
</trkpt>
<trkpt lat="31.2012800" lon="35.3481600">
<ele>3.020000</ele>
<time>2024-12-07T10:23:37.256Z</time>
</trkpt>
<trkpt lat="31.2011900" lon="35.3482100">
<ele>-1.230000</ele>
<time>2024-12-07T10:23:37.256Z</time>
</trkpt>
<trkpt lat="31.2010700" lon="35.3482200">
<ele>-10.020000</ele>
<time>2024-12-07T10:23:37.256Z</time>
</trkpt>
<trkpt lat="31.2009700" lon="35.3481700">
<ele>-20.790001</ele>
<time>2024-12-07T10:23:37.256Z</time>
</trkpt>
<trkpt lat="31.2009300" lon="35.3480600">
<ele>-18.219999</ele>
<time>2024-12-07T10:23:37.256Z</time>
</trkpt>
<trkpt lat="31.2009500" lon="35.3479500">
<ele>-10.210000</ele>
<time>2024-12-07T10:23:37.256Z</time>
</trkpt>
<trkpt lat="31.2010200" lon="35.3479000">
<ele>-3.350000</ele>
<time>2024-12-07T10:23:37.256Z</time>
</trkpt>
<trkpt lat="31.2011300" lon="35.3479100">
<ele>2.380000</ele>
<time>2024-12-07T10:23:37.256Z</time>
</trkpt>
<trkpt lat="31.2012500" lon="35.3478500">
<ele>4.500000</ele>
<time>2024-12-07T10:23:37.256Z</time>
</trkpt>
<trkpt lat="31.2014000" lon="35.3477900">
<ele>6.280000</ele>
<time>2024-12-07T10:23:37.256Z</time>
</trkpt>
<trkpt lat="31.2015000" lon="35.3477600">
<ele>8.030000</ele>
<time>2024-12-07T10:23:37.256Z</time>
</trkpt>
<trkpt lat="31.2016200" lon="35.3476900">
<ele>10.420000</ele>
<time>2024-12-07T10:23:37.256Z</time>
</trkpt>
<trkpt lat="31.2016900" lon="35.3476500">
<ele>11.540000</ele>
<time>2024-12-07T10:23:37.256Z</time>
</trkpt>
<trkpt lat="31.2017500" lon="35.3476200">
<ele>11.870000</ele>
<time>2024-12-07T10:23:37.256Z</time>
</trkpt>
<trkpt lat="31.2018400" lon="35.3476200">
<ele>12.190001</ele>
<time>2024-12-07T10:23:37.256Z</time>
</trkpt>
<trkpt lat="31.2019100" lon="35.3475200">
<ele>12.800000</ele>
<time>2024-12-07T10:23:37.256Z</time>
</trkpt>
<trkpt lat="31.2019000" lon="35.3474600">
<ele>12.700001</ele>
<time>2024-12-07T10:23:37.256Z</time>
</trkpt>
<trkpt lat="31.2011300" lon="35.3467400">
<ele>5.320000</ele>
<time>2024-12-07T10:23:37.256Z</time>
</trkpt>
<trkpt lat="31.2008300" lon="35.3465000">
<ele>6.620000</ele>
<time>2024-12-07T10:23:37.256Z</time>
</trkpt>
<trkpt lat="31.2003200" lon="35.3462700">
<ele>9.010000</ele>
<time>2024-12-07T10:23:37.256Z</time>
</trkpt>
<trkpt lat="31.2001700" lon="35.3461600">
<ele>9.190001</ele>
<time>2024-12-07T10:23:37.256Z</time>
</trkpt>
<trkpt lat="31.1996500" lon="35.3456900">
<ele>11.130000</ele>
<time>2024-12-07T10:23:37.256Z</time>
</trkpt>
<trkpt lat="31.1990800" lon="35.3452700">
<ele>13.080001</ele>
<time>2024-12-07T10:23:37.256Z</time>
</trkpt>
<trkpt lat="31.1988500" lon="35.3450400">
<ele>10.800000</ele>
<time>2024-12-07T10:23:37.256Z</time>
</trkpt>
<trkpt lat="31.1986800" lon="35.3448800">
<ele>10.460000</ele>
<time>2024-12-07T10:23:37.256Z</time>
</trkpt>
<trkpt lat="31.1986500" lon="35.3446400">
<ele>9.360001</ele>
<time>2024-12-07T10:23:37.256Z</time>
</trkpt>
<trkpt lat="31.1987600" lon="35.3443400">
<ele>7.130000</ele>
<time>2024-12-07T10:23:37.256Z</time>
</trkpt>
<trkpt lat="31.1990100" lon="35.3441000">
<ele>7.160000</ele>
<time>2024-12-07T10:23:37.256Z</time>
</trkpt>
<trkpt lat="31.1992100" lon="35.3439600">
<ele>10.210000</ele>
<time>2024-12-07T10:23:37.256Z</time>
</trkpt>
<trkpt lat="31.1994700" lon="35.3439800">
<ele>14.059999</ele>
<time>2024-12-07T10:23:37.256Z</time>
</trkpt>
<trkpt lat="31.1995900" lon="35.3441000">
<ele>14.800000</ele>
<time>2024-12-07T10:23:37.256Z</time>
</trkpt>
<trkpt lat="31.1997700" lon="35.3440800">
<ele>17.410000</ele>
<time>2024-12-07T10:23:37.256Z</time>
</trkpt>
<trkpt lat="31.1999700" lon="35.3441700">
<ele>24.010000</ele>
<time>2024-12-07T10:23:37.256Z</time>
</trkpt>
<trkpt lat="31.2000200" lon="35.3441400">
<ele>26.880001</ele>
<time>2024-12-07T10:23:37.256Z</time>
</trkpt>
<trkpt lat="31.2000000" lon="35.3440800">
<ele>27.179998</ele>
<time>2024-12-07T10:23:37.256Z</time>
</trkpt>
<trkpt lat="31.1998800" lon="35.3440200">
<ele>22.759998</ele>
<time>2024-12-07T10:23:37.256Z</time>
</trkpt>
<trkpt lat="31.1998800" lon="35.3440200">
<ele>22.759998</ele>
<time>2024-12-07T10:23:37.256Z</time>
</trkpt>
<trkpt lat="31.1998100" lon="35.3439000">
<ele>19.650002</ele>
<time>2024-12-07T10:23:37.256Z</time>
</trkpt>
<trkpt lat="31.1996700" lon="35.3438200">
<ele>16.559999</ele>
<time>2024-12-07T10:23:37.256Z</time>
</trkpt>
<trkpt lat="31.1995300" lon="35.3438500">
<ele>14.809999</ele>
<time>2024-12-07T10:23:37.256Z</time>
</trkpt>
<trkpt lat="31.1993500" lon="35.3437800">
<ele>12.809999</ele>
<time>2024-12-07T10:23:37.256Z</time>
</trkpt>
<trkpt lat="31.1990400" lon="35.3438000">
<ele>4.260000</ele>
<time>2024-12-07T10:23:37.256Z</time>
</trkpt>
<trkpt lat="31.1989100" lon="35.3438400">
<ele>0.330000</ele>
<time>2024-12-07T10:23:37.256Z</time>
</trkpt>
<trkpt lat="31.1987400" lon="35.3439500">
<ele>-0.520000</ele>
<time>2024-12-07T10:23:37.256Z</time>
</trkpt>
<trkpt lat="31.1985600" lon="35.3439000">
<ele>-3.400000</ele>
<time>2024-12-07T10:23:37.256Z</time>
</trkpt>
<trkpt lat="31.1982800" lon="35.3436600">
<ele>-6.610000</ele>
<time>2024-12-07T10:23:37.256Z</time>
</trkpt>
<trkpt lat="31.1982800" lon="35.3436500">
<ele>-6.600000</ele>
<time>2024-12-07T10:23:37.256Z</time>
</trkpt>
<trkpt lat="31.1982700" lon="35.3436300">
<ele>-6.700000</ele>
<time>2024-12-07T10:23:37.256Z</time>
</trkpt>
<trkpt lat="31.1981400" lon="35.3435300">
<ele>-7.450000</ele>
<time>2024-12-07T10:23:37.256Z</time>
</trkpt>
<trkpt lat="31.1980700" lon="35.3434500">
<ele>-6.700000</ele>
<time>2024-12-07T10:23:37.256Z</time>
</trkpt>
<trkpt lat="31.1980400" lon="35.3434000">
<ele>-5.950000</ele>
<time>2024-12-07T10:23:37.256Z</time>
</trkpt>
<trkpt lat="31.1979700" lon="35.3432700">
<ele>-4.400000</ele>
<time>2024-12-07T10:23:37.256Z</time>
</trkpt>
<trkpt lat="31.1979400" lon="35.3432400">
<ele>-4.050000</ele>
<time>2024-12-07T10:23:37.256Z</time>
</trkpt>
<trkpt lat="31.1978200" lon="35.3431600">
<ele>-2.690000</ele>
<time>2024-12-07T10:23:37.256Z</time>
</trkpt>
<trkpt lat="31.1977300" lon="35.3431200">
<ele>-2.360000</ele>
<time>2024-12-07T10:23:37.256Z</time>
</trkpt>
<trkpt lat="31.1977100" lon="35.3431000">
<ele>-2.290000</ele>
<time>2024-12-07T10:23:37.256Z</time>
</trkpt>
<trkpt lat="31.1976900" lon="35.3429900">
<ele>-1.480000</ele>
<time>2024-12-07T10:23:37.256Z</time>
</trkpt>
<trkpt lat="31.1976800" lon="35.3429600">
<ele>-1.370000</ele>
<time>2024-12-07T10:23:37.256Z</time>
</trkpt>
<trkpt lat="31.1976700" lon="35.3429300">
<ele>-1.260000</ele>
<time>2024-12-07T10:23:37.256Z</time>
</trkpt>
<trkpt lat="31.1976500" lon="35.3428100">
<ele>-0.610000</ele>
<time>2024-12-07T10:23:37.256Z</time>
</trkpt>
<trkpt lat="31.1976300" lon="35.3427700">
<ele>-0.580000</ele>
<time>2024-12-07T10:23:37.256Z</time>
</trkpt>
<trkpt lat="31.1975700" lon="35.3427000">
<ele>-1.170000</ele>
<time>2024-12-07T10:23:37.256Z</time>
</trkpt>
<trkpt lat="31.1975100" lon="35.3426500">
<ele>-1.880000</ele>
<time>2024-12-07T10:23:37.256Z</time>
</trkpt>
<trkpt lat="31.1973600" lon="35.3424600">
<ele>-5.020000</ele>
<time>2024-12-07T10:23:37.256Z</time>
</trkpt>
<trkpt lat="31.1973000" lon="35.3423300">
<ele>-5.780000</ele>
<time>2024-12-07T10:23:37.256Z</time>
</trkpt>
<trkpt lat="31.1972700" lon="35.3422900">
<ele>-5.980000</ele>
<time>2024-12-07T10:23:37.256Z</time>
</trkpt>
<trkpt lat="31.1971800" lon="35.3421400">
<ele>-6.410000</ele>
<time>2024-12-07T10:23:37.256Z</time>
</trkpt>
<trkpt lat="31.1971300" lon="35.3419400">
<ele>-6.630000</ele>
<time>2024-12-07T10:23:37.256Z</time>
</trkpt>
<trkpt lat="31.1971000" lon="35.3418400">
<ele>-5.890000</ele>
<time>2024-12-07T10:23:37.256Z</time>
</trkpt>
<trkpt lat="31.1970900" lon="35.3418100">
<ele>-5.570000</ele>
<time>2024-12-07T10:23:37.256Z</time>
</trkpt>
<trkpt lat="31.1970300" lon="35.3416800">
<ele>-3.430000</ele>
<time>2024-12-07T10:23:37.256Z</time>
</trkpt>
<trkpt lat="31.1970100" lon="35.3416500">
<ele>-2.860000</ele>
<time>2024-12-07T10:23:37.256Z</time>
</trkpt>
<trkpt lat="31.1969400" lon="35.3416200">
<ele>-1.820000</ele>
<time>2024-12-07T10:23:37.256Z</time>
</trkpt>
<trkpt lat="31.1969200" lon="35.3416000">
<ele>-1.700000</ele>
<time>2024-12-07T10:23:37.256Z</time>
</trkpt>
<trkpt lat="31.1968000" lon="35.3414400">
<ele>0.090000</ele>
<time>2024-12-07T10:23:37.256Z</time>
</trkpt>
<trkpt lat="31.1967500" lon="35.3412500">
<ele>2.250000</ele>
<time>2024-12-07T10:23:37.256Z</time>
</trkpt>
<trkpt lat="31.1967300" lon="35.3411900">
<ele>2.910000</ele>
<time>2024-12-07T10:23:37.256Z</time>
</trkpt>
<trkpt lat="31.1966700" lon="35.3410300">
<ele>4.270000</ele>
<time>2024-12-07T10:23:37.256Z</time>
</trkpt>
<trkpt lat="31.1966300" lon="35.3410200">
<ele>4.110000</ele>
<time>2024-12-07T10:23:37.256Z</time>
</trkpt>
<trkpt lat="31.1965700" lon="35.3410300">
<ele>3.740000</ele>
<time>2024-12-07T10:23:37.256Z</time>
</trkpt>
<trkpt lat="31.1964600" lon="35.3410900">
<ele>3.220000</ele>
<time>2024-12-07T10:23:37.256Z</time>
</trkpt>
<trkpt lat="31.1964400" lon="35.3411100">
<ele>3.180000</ele>
<time>2024-12-07T10:23:37.256Z</time>
</trkpt>
<trkpt lat="31.1963200" lon="35.3411500">
<ele>2.080000</ele>
<time>2024-12-07T10:23:37.256Z</time>
</trkpt>
<trkpt lat="31.1962900" lon="35.3411800">
<ele>1.540000</ele>
<time>2024-12-07T10:23:37.256Z</time>
</trkpt>
<trkpt lat="31.1961400" lon="35.3413200">
<ele>-1.050000</ele>
<time>2024-12-07T10:23:37.256Z</time>
</trkpt>
<trkpt lat="31.1959600" lon="35.3415200">
<ele>-6.100000</ele>
<time>2024-12-07T10:23:37.256Z</time>
</trkpt>
<trkpt lat="31.1958900" lon="35.3416000">
<ele>-10.770000</ele>
<time>2024-12-07T10:23:37.256Z</time>
</trkpt>
<trkpt lat="31.1958100" lon="35.3416000">
<ele>-16.010000</ele>
<time>2024-12-07T10:23:37.256Z</time>
</trkpt>
<trkpt lat="31.1957700" lon="35.3415600">
<ele>-18.230000</ele>
<time>2024-12-07T10:23:37.256Z</time>
</trkpt>
<trkpt lat="31.1957600" lon="35.3415000">
<ele>-16.230000</ele>
<time>2024-12-07T10:23:37.256Z</time>
</trkpt>
<trkpt lat="31.1957500" lon="35.3413900">
<ele>-11.460000</ele>
<time>2024-12-07T10:23:37.256Z</time>
</trkpt>
<trkpt lat="31.1957500" lon="35.3413200">
<ele>-9.990000</ele>
<time>2024-12-07T10:23:37.256Z</time>
</trkpt>
<trkpt lat="31.1957600" lon="35.3412900">
<ele>-8.840000</ele>
<time>2024-12-07T10:23:37.256Z</time>
</trkpt>
<trkpt lat="31.1957700" lon="35.3412600">
<ele>-7.760000</ele>
<time>2024-12-07T10:23:37.256Z</time>
</trkpt>
<trkpt lat="31.1958000" lon="35.3412000">
<ele>-5.390000</ele>
<time>2024-12-07T10:23:37.256Z</time>
</trkpt>
<trkpt lat="31.1958100" lon="35.3411600">
<ele>-4.420000</ele>
<time>2024-12-07T10:23:37.256Z</time>
</trkpt>
<trkpt lat="31.1958400" lon="35.3409900">
<ele>-2.050000</ele>
<time>2024-12-07T10:23:37.256Z</time>
</trkpt>
<trkpt lat="31.1958600" lon="35.3408700">
<ele>-1.050000</ele>
<time>2024-12-07T10:23:37.256Z</time>
</trkpt>
<trkpt lat="31.1958600" lon="35.3408000">
<ele>-0.590000</ele>
<time>2024-12-07T10:23:37.256Z</time>
</trkpt>
<trkpt lat="31.1958700" lon="35.3407700">
<ele>-0.340000</ele>
<time>2024-12-07T10:23:37.256Z</time>
</trkpt>
<trkpt lat="31.1958700" lon="35.3406500">
<ele>0.410000</ele>
<time>2024-12-07T10:23:37.256Z</time>
</trkpt>
<trkpt lat="31.1957700" lon="35.3406200">
<ele>-0.480000</ele>
<time>2024-12-07T10:23:37.256Z</time>
</trkpt>
<trkpt lat="31.1956700" lon="35.3406100">
<ele>-1.970000</ele>
<time>2024-12-07T10:23:37.256Z</time>
</trkpt>
<trkpt lat="31.1956000" lon="35.3405900">
<ele>-2.820000</ele>
<time>2024-12-07T10:23:37.256Z</time>
</trkpt>
<trkpt lat="31.1955700" lon="35.3405400">
<ele>-2.680000</ele>
<time>2024-12-07T10:23:37.256Z</time>
</trkpt>
<trkpt lat="31.1955300" lon="35.3404900">
<ele>-2.620000</ele>
<time>2024-12-07T10:23:37.256Z</time>
</trkpt>
<trkpt lat="31.1954500" lon="35.3404000">
<ele>-2.260000</ele>
<time>2024-12-07T10:23:37.256Z</time>
</trkpt>
<trkpt lat="31.1953100" lon="35.3403900">
<ele>-2.690000</ele>
<time>2024-12-07T10:23:37.256Z</time>
</trkpt>
<trkpt lat="31.1952400" lon="35.3403900">
<ele>-2.830000</ele>
<time>2024-12-07T10:23:37.256Z</time>
</trkpt>
<trkpt lat="31.1952000" lon="35.3403800">
<ele>-2.810000</ele>
<time>2024-12-07T10:23:37.256Z</time>
</trkpt>
<trkpt lat="31.1951100" lon="35.3403600">
<ele>-2.840000</ele>
<time>2024-12-07T10:23:37.256Z</time>
</trkpt>
<trkpt lat="31.1950600" lon="35.3403300">
<ele>-2.870000</ele>
<time>2024-12-07T10:23:37.256Z</time>
</trkpt>
<trkpt lat="31.1949600" lon="35.3402600">
<ele>-4.110000</ele>
<time>2024-12-07T10:23:37.256Z</time>
</trkpt>
<trkpt lat="31.1948800" lon="35.3401600">
<ele>-6.320000</ele>
<time>2024-12-07T10:23:37.256Z</time>
</trkpt>
<trkpt lat="31.1948000" lon="35.3399600">
<ele>-8.050000</ele>
<time>2024-12-07T10:23:37.256Z</time>
</trkpt>
<trkpt lat="31.1947900" lon="35.3399300">
<ele>-8.340000</ele>
<time>2024-12-07T10:23:37.256Z</time>
</trkpt>
<trkpt lat="31.1947900" lon="35.3398300">
<ele>-8.800000</ele>
<time>2024-12-07T10:23:37.256Z</time>
</trkpt>
<trkpt lat="31.1947900" lon="35.3397900">
<ele>-8.980000</ele>
<time>2024-12-07T10:23:37.256Z</time>
</trkpt>
<trkpt lat="31.1947900" lon="35.3396900">
<ele>-9.610000</ele>
<time>2024-12-07T10:23:37.256Z</time>
</trkpt>
<trkpt lat="31.1947900" lon="35.3395200">
<ele>-11.300000</ele>
<time>2024-12-07T10:23:37.256Z</time>
</trkpt>
<trkpt lat="31.1947400" lon="35.3393600">
<ele>-14.150001</ele>
<time>2024-12-07T10:23:37.256Z</time>
</trkpt>
<trkpt lat="31.1947200" lon="35.3393500">
<ele>-14.650000</ele>
<time>2024-12-07T10:23:37.256Z</time>
</trkpt>
<trkpt lat="31.1946900" lon="35.3393500">
<ele>-14.179999</ele>
<time>2024-12-07T10:23:37.256Z</time>
</trkpt>
<trkpt lat="31.1946700" lon="35.3393700">
<ele>-13.730000</ele>
<time>2024-12-07T10:23:37.256Z</time>
</trkpt>
<trkpt lat="31.1946400" lon="35.3394000">
<ele>-13.090000</ele>
<time>2024-12-07T10:23:37.256Z</time>
</trkpt>
<trkpt lat="31.1946200" lon="35.3394200">
<ele>-12.670000</ele>
<time>2024-12-07T10:23:37.256Z</time>
</trkpt>
<trkpt lat="31.1945900" lon="35.3394300">
<ele>-12.179999</ele>
<time>2024-12-07T10:23:37.256Z</time>
</trkpt>
<trkpt lat="31.1945600" lon="35.3394400">
<ele>-11.690001</ele>
<time>2024-12-07T10:23:37.256Z</time>
</trkpt>
<trkpt lat="31.1945100" lon="35.3394300">
<ele>-11.010000</ele>
<time>2024-12-07T10:23:37.256Z</time>
</trkpt>
<trkpt lat="31.1943700" lon="35.3394300">
<ele>-9.470000</ele>
<time>2024-12-07T10:23:37.256Z</time>
</trkpt>
<trkpt lat="31.1943000" lon="35.3394300">
<ele>-8.930000</ele>
<time>2024-12-07T10:23:37.256Z</time>
</trkpt>
<trkpt lat="31.1942800" lon="35.3394900">
<ele>-8.620000</ele>
<time>2024-12-07T10:23:37.256Z</time>
</trkpt>
<trkpt lat="31.1942900" lon="35.3395300">
<ele>-8.550000</ele>
<time>2024-12-07T10:23:37.256Z</time>
</trkpt>
<trkpt lat="31.1943200" lon="35.3395700">
<ele>-8.700000</ele>
<time>2024-12-07T10:23:37.256Z</time>
</trkpt>
<trkpt lat="31.1943600" lon="35.3396100">
<ele>-9.030000</ele>
<time>2024-12-07T10:23:37.256Z</time>
</trkpt>
<trkpt lat="31.1943600" lon="35.3396600">
<ele>-8.920000</ele>
<time>2024-12-07T10:23:37.256Z</time>
</trkpt>
<trkpt lat="31.1943700" lon="35.3396900">
<ele>-8.990000</ele>
<time>2024-12-07T10:23:37.256Z</time>
</trkpt>
<trkpt lat="31.1943600" lon="35.3398100">
<ele>-8.470000</ele>
<time>2024-12-07T10:23:37.256Z</time>
</trkpt>
<trkpt lat="31.1943600" lon="35.3398700">
<ele>-8.250000</ele>
<time>2024-12-07T10:23:37.256Z</time>
</trkpt>
<trkpt lat="31.1943500" lon="35.3400000">
<ele>-7.640000</ele>
<time>2024-12-07T10:23:37.256Z</time>
</trkpt>
<trkpt lat="31.1943600" lon="35.3400400">
<ele>-7.830000</ele>
<time>2024-12-07T10:23:37.256Z</time>
</trkpt>
<trkpt lat="31.1943700" lon="35.3401600">
<ele>-8.080000</ele>
<time>2024-12-07T10:23:37.256Z</time>
</trkpt>
<trkpt lat="31.1943700" lon="35.3404200">
<ele>-8.370000</ele>
<time>2024-12-07T10:23:37.256Z</time>
</trkpt>
<trkpt lat="31.1943800" lon="35.3405200">
<ele>-8.440000</ele>
<time>2024-12-07T10:23:37.256Z</time>
</trkpt>
<trkpt lat="31.1943800" lon="35.3405600">
<ele>-8.590000</ele>
<time>2024-12-07T10:23:37.256Z</time>
</trkpt>
<trkpt lat="31.1943500" lon="35.3405500">
<ele>-8.670000</ele>
<time>2024-12-07T10:23:37.256Z</time>
</trkpt>
<trkpt lat="31.1943400" lon="35.3405000">
<ele>-8.580000</ele>
<time>2024-12-07T10:23:37.256Z</time>
</trkpt>
<trkpt lat="31.1943300" lon="35.3404200">
<ele>-8.309999</ele>
<time>2024-12-07T10:23:37.256Z</time>
</trkpt>
<trkpt lat="31.1943100" lon="35.3402400">
<ele>-7.480000</ele>
<time>2024-12-07T10:23:37.256Z</time>
</trkpt>
<trkpt lat="31.1942800" lon="35.3400600">
<ele>-6.760000</ele>
<time>2024-12-07T10:23:37.256Z</time>
</trkpt>
<trkpt lat="31.1942300" lon="35.3399800">
<ele>-5.980000</ele>
<time>2024-12-07T10:23:37.256Z</time>
</trkpt>
<trkpt lat="31.1942200" lon="35.3399400">
<ele>-5.980000</ele>
<time>2024-12-07T10:23:37.256Z</time>
</trkpt>
<trkpt lat="31.1942100" lon="35.3399100">
<ele>-5.950000</ele>
<time>2024-12-07T10:23:37.256Z</time>
</trkpt>
<trkpt lat="31.1942000" lon="35.3398400">
<ele>-6.060000</ele>
<time>2024-12-07T10:23:37.256Z</time>
</trkpt>
<trkpt lat="31.1941900" lon="35.3398100">
<ele>-6.020000</ele>
<time>2024-12-07T10:23:37.256Z</time>
</trkpt>
<trkpt lat="31.1941800" lon="35.3397400">
<ele>-6.130000</ele>
<time>2024-12-07T10:23:37.256Z</time>
</trkpt>
<trkpt lat="31.1941400" lon="35.3397400">
<ele>-5.460000</ele>
<time>2024-12-07T10:23:37.256Z</time>
</trkpt>
<trkpt lat="31.1941300" lon="35.3398500">
<ele>-4.940000</ele>
<time>2024-12-07T10:23:37.256Z</time>
</trkpt>
<trkpt lat="31.1941600" lon="35.3400100">
<ele>-4.940000</ele>
<time>2024-12-07T10:23:37.256Z</time>
</trkpt>
<trkpt lat="31.1941700" lon="35.3401000">
<ele>-5.400000</ele>
<time>2024-12-07T10:23:37.256Z</time>
</trkpt>
<trkpt lat="31.1941600" lon="35.3402200">
<ele>-5.620000</ele>
<time>2024-12-07T10:23:37.256Z</time>
</trkpt>
<trkpt lat="31.1941500" lon="35.3402400">
<ele>-5.420000</ele>
<time>2024-12-07T10:23:37.256Z</time>
</trkpt>
<trkpt lat="31.1941700" lon="35.3402600">
<ele>-5.970000</ele>
<time>2024-12-07T10:23:37.256Z</time>
</trkpt>
<trkpt lat="31.1941300" lon="35.3403100">
<ele>-5.360000</ele>
<time>2024-12-07T10:23:37.256Z</time>
</trkpt>
<trkpt lat="31.1940800" lon="35.3403400">
<ele>-4.190000</ele>
<time>2024-12-07T10:23:37.256Z</time>
</trkpt>
<trkpt lat="31.1941400" lon="35.3405200">
<ele>-8.470000</ele>
<time>2024-12-07T10:23:37.256Z</time>
</trkpt>
<trkpt lat="31.1940900" lon="35.3407400">
<ele>-8.840000</ele>
<time>2024-12-07T10:23:37.256Z</time>
</trkpt>
<trkpt lat="31.1940700" lon="35.3411500">
<ele>-13.390000</ele>
<time>2024-12-07T10:23:37.256Z</time>
</trkpt>
<trkpt lat="31.1939900" lon="35.3415500">
<ele>-14.020000</ele>
<time>2024-12-07T10:23:37.256Z</time>
</trkpt>
<trkpt lat="31.1940700" lon="35.3411500">
<ele>-13.390000</ele>
<time>2024-12-07T10:23:37.256Z</time>
</trkpt>
<trkpt lat="31.1940900" lon="35.3407400">
<ele>-8.840000</ele>
<time>2024-12-07T10:23:37.256Z</time>
</trkpt>
<trkpt lat="31.1941400" lon="35.3405200">
<ele>-8.470000</ele>
<time>2024-12-07T10:23:37.256Z</time>
</trkpt>
<trkpt lat="31.1940800" lon="35.3403400">
<ele>-4.190000</ele>
<time>2024-12-07T10:23:37.256Z</time>
</trkpt>
<trkpt lat="31.1940600" lon="35.3401900">
<ele>-3.100000</ele>
<time>2024-12-07T10:23:37.256Z</time>
</trkpt>
<trkpt lat="31.1940300" lon="35.3402000">
<ele>-2.340000</ele>
<time>2024-12-07T10:23:37.256Z</time>
</trkpt>
<trkpt lat="31.1940600" lon="35.3401900">
<ele>-3.100000</ele>
<time>2024-12-07T10:23:37.256Z</time>
</trkpt>
<trkpt lat="31.1940500" lon="35.3401400">
<ele>-2.980000</ele>
<time>2024-12-07T10:23:37.256Z</time>
</trkpt>
<trkpt lat="31.1939500" lon="35.3398600">
<ele>-1.990000</ele>
<time>2024-12-07T10:23:37.256Z</time>
</trkpt>
<trkpt lat="31.1938400" lon="35.3397500">
<ele>0.210000</ele>
<time>2024-12-07T10:23:37.256Z</time>
</trkpt>
<trkpt lat="31.1931500" lon="35.3394900">
<ele>2.900000</ele>
<time>2024-12-07T10:23:37.256Z</time>
</trkpt>
<trkpt lat="31.1930200" lon="35.3394600">
<ele>1.950000</ele>
<time>2024-12-07T10:23:37.256Z</time>
</trkpt>
<trkpt lat="31.1929000" lon="35.3394300">
<ele>1.470000</ele>
<time>2024-12-07T10:23:37.256Z</time>
</trkpt>
<trkpt lat="31.1928400" lon="35.3393600">
<ele>1.460000</ele>
<time>2024-12-07T10:23:37.256Z</time>
</trkpt>
<trkpt lat="31.1926800" lon="35.3391100">
<ele>2.760000</ele>
<time>2024-12-07T10:23:37.256Z</time>
</trkpt>
<trkpt lat="31.1926400" lon="35.3390200">
<ele>3.550000</ele>
<time>2024-12-07T10:23:37.256Z</time>
</trkpt>
<trkpt lat="31.1926400" lon="35.3387900">
<ele>3.790000</ele>
<time>2024-12-07T10:23:37.256Z</time>
</trkpt>
<trkpt lat="31.1927500" lon="35.3385200">
<ele>2.570000</ele>
<time>2024-12-07T10:23:37.256Z</time>
</trkpt>
<trkpt lat="31.1928100" lon="35.3383300">
<ele>1.980000</ele>
<time>2024-12-07T10:23:37.256Z</time>
</trkpt>
<trkpt lat="31.1928000" lon="35.3380800">
<ele>0.320000</ele>
<time>2024-12-07T10:23:37.256Z</time>
</trkpt>
<trkpt lat="31.1928500" lon="35.3379600">
<ele>-0.350000</ele>
<time>2024-12-07T10:23:37.256Z</time>
</trkpt>
<trkpt lat="31.1929000" lon="35.3378500">
<ele>-1.250000</ele>
<time>2024-12-07T10:23:37.256Z</time>
</trkpt>
<trkpt lat="31.1930000" lon="35.3377500">
<ele>-2.020000</ele>
<time>2024-12-07T10:23:37.256Z</time>
</trkpt>
<trkpt lat="31.1929900" lon="35.3377200">
<ele>-2.050000</ele>
<time>2024-12-07T10:23:37.256Z</time>
</trkpt>
<trkpt lat="31.1929900" lon="35.3376600">
<ele>-2.100000</ele>
<time>2024-12-07T10:23:37.256Z</time>
</trkpt>
<trkpt lat="31.1928500" lon="35.3375400">
<ele>-2.630000</ele>
<time>2024-12-07T10:23:37.256Z</time>
</trkpt>
<trkpt lat="31.1928100" lon="35.3374100">
<ele>-2.560000</ele>
<time>2024-12-07T10:23:37.256Z</time>
</trkpt>
<trkpt lat="31.1928200" lon="35.3371300">
<ele>-1.470000</ele>
<time>2024-12-07T10:23:37.256Z</time>
</trkpt>
<trkpt lat="31.1926300" lon="35.3368900">
<ele>0.460000</ele>
<time>2024-12-07T10:23:37.256Z</time>
</trkpt>
<trkpt lat="31.1925700" lon="35.3366700">
<ele>2.470000</ele>
<time>2024-12-07T10:23:37.256Z</time>
</trkpt>
<trkpt lat="31.1922800" lon="35.3364200">
<ele>7.240000</ele>
<time>2024-12-07T10:23:37.256Z</time>
</trkpt>
<trkpt lat="31.1922200" lon="35.3362700">
<ele>8.400000</ele>
<time>2024-12-07T10:23:37.256Z</time>
</trkpt>
<trkpt lat="31.1921500" lon="35.3362100">
<ele>7.530000</ele>
<time>2024-12-07T10:23:37.256Z</time>
</trkpt>
<trkpt lat="31.1920500" lon="35.3363700">
<ele>6.120000</ele>
<time>2024-12-07T10:23:37.256Z</time>
</trkpt>
<trkpt lat="31.1918200" lon="35.3364000">
<ele>5.040000</ele>
<time>2024-12-07T10:23:37.256Z</time>
</trkpt>
<trkpt lat="31.1916700" lon="35.3365700">
<ele>5.650000</ele>
<time>2024-12-07T10:23:37.256Z</time>
</trkpt>
<trkpt lat="31.1916700" lon="35.3365800">
<ele>5.690000</ele>
<time>2024-12-07T10:23:37.256Z</time>
</trkpt>
<trkpt lat="31.1916700" lon="35.3365800">
<ele>5.690000</ele>
<time>2024-12-07T10:23:37.256Z</time>
</trkpt>
<trkpt lat="31.1915400" lon="35.3366600">
<ele>5.090000</ele>
<time>2024-12-07T10:23:37.256Z</time>
</trkpt>
<trkpt lat="31.1915100" lon="35.3366800">
<ele>4.970000</ele>
<time>2024-12-07T10:23:37.256Z</time>
</trkpt>
<trkpt lat="31.1913400" lon="35.3367200">
<ele>4.530000</ele>
<time>2024-12-07T10:23:37.256Z</time>
</trkpt>
<trkpt lat="31.1912200" lon="35.3367400">
<ele>4.980000</ele>
<time>2024-12-07T10:23:37.256Z</time>
</trkpt>
<trkpt lat="31.1910400" lon="35.3367500">
<ele>6.320000</ele>
<time>2024-12-07T10:23:37.256Z</time>
</trkpt>
<trkpt lat="31.1909900" lon="35.3367800">
<ele>7.150000</ele>
<time>2024-12-07T10:23:37.256Z</time>
</trkpt>
<trkpt lat="31.1909000" lon="35.3368100">
<ele>8.560000</ele>
<time>2024-12-07T10:23:37.256Z</time>
</trkpt>
<trkpt lat="31.1908200" lon="35.3368400">
<ele>9.660000</ele>
<time>2024-12-07T10:23:37.256Z</time>
</trkpt>
<trkpt lat="31.1907300" lon="35.3368600">
<ele>9.920000</ele>
<time>2024-12-07T10:23:37.256Z</time>
</trkpt>
<trkpt lat="31.1904900" lon="35.3368800">
<ele>10.760000</ele>
<time>2024-12-07T10:23:37.256Z</time>
</trkpt>
<trkpt lat="31.1903300" lon="35.3369000">
<ele>11.910000</ele>
<time>2024-12-07T10:23:37.256Z</time>
</trkpt>
<trkpt lat="31.1901400" lon="35.3369400">
<ele>13.020000</ele>
<time>2024-12-07T10:23:37.256Z</time>
</trkpt>
<trkpt lat="31.1900200" lon="35.3369900">
<ele>13.700000</ele>
<time>2024-12-07T10:23:37.256Z</time>
</trkpt>
<trkpt lat="31.1899500" lon="35.3370300">
<ele>13.460000</ele>
<time>2024-12-07T10:23:37.256Z</time>
</trkpt>
<trkpt lat="31.1898900" lon="35.3370500">
<ele>13.070000</ele>
<time>2024-12-07T10:23:37.256Z</time>
</trkpt>
<trkpt lat="31.1898000" lon="35.3370700">
<ele>12.500000</ele>
<time>2024-12-07T10:23:37.256Z</time>
</trkpt>
<trkpt lat="31.1897400" lon="35.3371200">
<ele>11.840000</ele>
<time>2024-12-07T10:23:37.256Z</time>
</trkpt>
<trkpt lat="31.1896700" lon="35.3371300">
<ele>11.850000</ele>
<time>2024-12-07T10:23:37.256Z</time>
</trkpt>
<trkpt lat="31.1896200" lon="35.3371200">
<ele>12.099999</ele>
<time>2024-12-07T10:23:37.256Z</time>
</trkpt>
<trkpt lat="31.1895400" lon="35.3370500">
<ele>12.900000</ele>
<time>2024-12-07T10:23:37.256Z</time>
</trkpt>
<trkpt lat="31.1895000" lon="35.3369900">
<ele>13.470000</ele>
<time>2024-12-07T10:23:37.256Z</time>
</trkpt>
<trkpt lat="31.1893400" lon="35.3368400">
<ele>14.520000</ele>
<time>2024-12-07T10:23:37.256Z</time>
</trkpt>
<trkpt lat="31.1893200" lon="35.3368300">
<ele>14.559999</ele>
<time>2024-12-07T10:23:37.256Z</time>
</trkpt>
<trkpt lat="31.1891800" lon="35.3368000">
<ele>14.580000</ele>
<time>2024-12-07T10:23:37.256Z</time>
</trkpt>
<trkpt lat="31.1891100" lon="35.3368300">
<ele>14.480000</ele>
<time>2024-12-07T10:23:37.256Z</time>
</trkpt>
<trkpt lat="31.1890900" lon="35.3369200">
<ele>13.770000</ele>
<time>2024-12-07T10:23:37.256Z</time>
</trkpt>
<trkpt lat="31.1890800" lon="35.3369700">
<ele>13.450000</ele>
<time>2024-12-07T10:23:37.256Z</time>
</trkpt>
<trkpt lat="31.1890400" lon="35.3371900">
<ele>11.820000</ele>
<time>2024-12-07T10:23:37.256Z</time>
</trkpt>
<trkpt lat="31.1889800" lon="35.3372400">
<ele>11.460000</ele>
<time>2024-12-07T10:23:37.256Z</time>
</trkpt>
<trkpt lat="31.1889500" lon="35.3372500">
<ele>11.450000</ele>
<time>2024-12-07T10:23:37.256Z</time>
</trkpt>
<trkpt lat="31.1889200" lon="35.3372600">
<ele>11.470000</ele>
<time>2024-12-07T10:23:37.256Z</time>
</trkpt>
<trkpt lat="31.1888000" lon="35.3372600">
<ele>11.680000</ele>
<time>2024-12-07T10:23:37.256Z</time>
</trkpt>
<trkpt lat="31.1887700" lon="35.3372700">
<ele>11.870000</ele>
<time>2024-12-07T10:23:37.256Z</time>
</trkpt>
<trkpt lat="31.1886900" lon="35.3373100">
<ele>12.440000</ele>
<time>2024-12-07T10:23:37.256Z</time>
</trkpt>
<trkpt lat="31.1886600" lon="35.3373200">
<ele>12.590000</ele>
<time>2024-12-07T10:23:37.256Z</time>
</trkpt>
<trkpt lat="31.1884900" lon="35.3373600">
<ele>14.090000</ele>
<time>2024-12-07T10:23:37.256Z</time>
</trkpt>
<trkpt lat="31.1884300" lon="35.3374000">
<ele>14.640000</ele>
<time>2024-12-07T10:23:37.256Z</time>
</trkpt>
<trkpt lat="31.1883500" lon="35.3374800">
<ele>15.000000</ele>
<time>2024-12-07T10:23:37.256Z</time>
</trkpt>
<trkpt lat="31.1882100" lon="35.3375600">
<ele>15.320000</ele>
<time>2024-12-07T10:23:37.256Z</time>
</trkpt>
<trkpt lat="31.1881600" lon="35.3375600">
<ele>15.540000</ele>
<time>2024-12-07T10:23:37.256Z</time>
</trkpt>
<trkpt lat="31.1881100" lon="35.3375600">
<ele>15.759999</ele>
<time>2024-12-07T10:23:37.256Z</time>
</trkpt>
<trkpt lat="31.1880800" lon="35.3375600">
<ele>15.889999</ele>
<time>2024-12-07T10:23:37.256Z</time>
</trkpt>
<trkpt lat="31.1878500" lon="35.3375200">
<ele>17.480000</ele>
<time>2024-12-07T10:23:37.256Z</time>
</trkpt>
<trkpt lat="31.1877200" lon="35.3374800">
<ele>18.219999</ele>
<time>2024-12-07T10:23:37.256Z</time>
</trkpt>
<trkpt lat="31.1875700" lon="35.3373800">
<ele>19.299999</ele>
<time>2024-12-07T10:23:37.256Z</time>
</trkpt>
<trkpt lat="31.1874200" lon="35.3372900">
<ele>19.540001</ele>
<time>2024-12-07T10:23:37.256Z</time>
</trkpt>
<trkpt lat="31.1873700" lon="35.3372500">
<ele>19.389999</ele>
<time>2024-12-07T10:23:37.256Z</time>
</trkpt>
<trkpt lat="31.1872700" lon="35.3371800">
<ele>18.520000</ele>
<time>2024-12-07T10:23:37.256Z</time>
</trkpt>
<trkpt lat="31.1871800" lon="35.3371000">
<ele>18.150000</ele>
<time>2024-12-07T10:23:37.256Z</time>
</trkpt>
<trkpt lat="31.1870200" lon="35.3369200">
<ele>18.789999</ele>
<time>2024-12-07T10:23:37.256Z</time>
</trkpt>
<trkpt lat="31.1869700" lon="35.3368500">
<ele>19.219999</ele>
<time>2024-12-07T10:23:37.256Z</time>
</trkpt>
<trkpt lat="31.1868800" lon="35.3367500">
<ele>19.700001</ele>
<time>2024-12-07T10:23:37.256Z</time>
</trkpt>
<trkpt lat="31.1867600" lon="35.3365800">
<ele>20.619999</ele>
<time>2024-12-07T10:23:37.256Z</time>
</trkpt>
<trkpt lat="31.1866100" lon="35.3364500">
<ele>21.809999</ele>
<time>2024-12-07T10:23:37.256Z</time>
</trkpt>
<trkpt lat="31.1865400" lon="35.3363600">
<ele>22.570000</ele>
<time>2024-12-07T10:23:37.256Z</time>
</trkpt>
<trkpt lat="31.1864600" lon="35.3362700">
<ele>22.960001</ele>
<time>2024-12-07T10:23:37.256Z</time>
</trkpt>
<trkpt lat="31.1863500" lon="35.3361300">
<ele>22.839998</ele>
<time>2024-12-07T10:23:37.256Z</time>
</trkpt>
<trkpt lat="31.1863000" lon="35.3360800">
<ele>22.600000</ele>
<time>2024-12-07T10:23:37.256Z</time>
</trkpt>
<trkpt lat="31.1862000" lon="35.3359700">
<ele>22.160002</ele>
<time>2024-12-07T10:23:37.256Z</time>
</trkpt>
<trkpt lat="31.1861600" lon="35.3359300">
<ele>22.059999</ele>
<time>2024-12-07T10:23:37.256Z</time>
</trkpt>
<trkpt lat="31.1861000" lon="35.3358600">
<ele>21.959999</ele>
<time>2024-12-07T10:23:37.256Z</time>
</trkpt>
<trkpt lat="31.1860200" lon="35.3357700">
<ele>21.370001</ele>
<time>2024-12-07T10:23:37.256Z</time>
</trkpt>
<trkpt lat="31.1859600" lon="35.3357000">
<ele>21.020000</ele>
<time>2024-12-07T10:23:37.256Z</time>
</trkpt>
<trkpt lat="31.1857500" lon="35.3354400">
<ele>20.190001</ele>
<time>2024-12-07T10:23:37.256Z</time>
</trkpt>
<trkpt lat="31.1856500" lon="35.3353000">
<ele>19.850000</ele>
<time>2024-12-07T10:23:37.256Z</time>
</trkpt>
<trkpt lat="31.1855700" lon="35.3352100">
<ele>20.799999</ele>
<time>2024-12-07T10:23:37.256Z</time>
</trkpt>
<trkpt lat="31.1853200" lon="35.3349000">
<ele>26.070000</ele>
<time>2024-12-07T10:23:37.256Z</time>
</trkpt>
<trkpt lat="31.1851700" lon="35.3347000">
<ele>27.690001</ele>
<time>2024-12-07T10:23:37.256Z</time>
</trkpt>
<trkpt lat="31.1851400" lon="35.3346800">
<ele>27.660000</ele>
<time>2024-12-07T10:23:37.256Z</time>
</trkpt>
<trkpt lat="31.1850100" lon="35.3345800">
<ele>27.549999</ele>
<time>2024-12-07T10:23:37.256Z</time>
</trkpt>
<trkpt lat="31.1849500" lon="35.3345400">
<ele>28.010000</ele>
<time>2024-12-07T10:23:37.256Z</time>
</trkpt>
<trkpt lat="31.1849200" lon="35.3345200">
<ele>28.359999</ele>
<time>2024-12-07T10:23:37.256Z</time>
</trkpt>
<trkpt lat="31.1847500" lon="35.3344600">
<ele>30.490000</ele>
<time>2024-12-07T10:23:37.256Z</time>
</trkpt>
<trkpt lat="31.1846300" lon="35.3344200">
<ele>30.789999</ele>
<time>2024-12-07T10:23:37.256Z</time>
</trkpt>
<trkpt lat="31.1845400" lon="35.3343800">
<ele>30.730001</ele>
<time>2024-12-07T10:23:37.256Z</time>
</trkpt>
<trkpt lat="31.1844800" lon="35.3343600">
<ele>30.700001</ele>
<time>2024-12-07T10:23:37.256Z</time>
</trkpt>
<trkpt lat="31.1843500" lon="35.3342600">
<ele>30.200001</ele>
<time>2024-12-07T10:23:37.256Z</time>
</trkpt>
<trkpt lat="31.1843300" lon="35.3342400">
<ele>30.039999</ele>
<time>2024-12-07T10:23:37.256Z</time>
</trkpt>
<trkpt lat="31.1842800" lon="35.3341800">
<ele>29.590000</ele>
<time>2024-12-07T10:23:37.256Z</time>
</trkpt>
<trkpt lat="31.1842500" lon="35.3341200">
<ele>29.570000</ele>
<time>2024-12-07T10:23:37.256Z</time>
</trkpt>
<trkpt lat="31.1842300" lon="35.3340800">
<ele>29.730000</ele>
<time>2024-12-07T10:23:37.256Z</time>
</trkpt>
<trkpt lat="31.1841800" lon="35.3340200">
<ele>30.150000</ele>
<time>2024-12-07T10:23:37.256Z</time>
</trkpt>
<trkpt lat="31.1840800" lon="35.3340100">
<ele>30.529999</ele>
<time>2024-12-07T10:23:37.256Z</time>
</trkpt>
<trkpt lat="31.1840100" lon="35.3340200">
<ele>30.639999</ele>
<time>2024-12-07T10:23:37.256Z</time>
</trkpt>
<trkpt lat="31.1839700" lon="35.3340300">
<ele>30.690001</ele>
<time>2024-12-07T10:23:37.256Z</time>
</trkpt>
<trkpt lat="31.1838800" lon="35.3340300">
<ele>31.029999</ele>
<time>2024-12-07T10:23:37.256Z</time>
</trkpt>
<trkpt lat="31.1837700" lon="35.3340200">
<ele>31.690001</ele>
<time>2024-12-07T10:23:37.256Z</time>
</trkpt>
<trkpt lat="31.1837000" lon="35.3339900">
<ele>32.200001</ele>
<time>2024-12-07T10:23:37.256Z</time>
</trkpt>
<trkpt lat="31.1836900" lon="35.3339300">
<ele>32.529999</ele>
<time>2024-12-07T10:23:37.256Z</time>
</trkpt>
<trkpt lat="31.1837400" lon="35.3339000">
<ele>32.480000</ele>
<time>2024-12-07T10:23:37.256Z</time>
</trkpt>
<trkpt lat="31.1837600" lon="35.3338800">
<ele>32.590000</ele>
<time>2024-12-07T10:23:37.256Z</time>
</trkpt>
<trkpt lat="31.1838300" lon="35.3338800">
<ele>32.340000</ele>
<time>2024-12-07T10:23:37.256Z</time>
</trkpt>
<trkpt lat="31.1838700" lon="35.3338600">
<ele>32.480000</ele>
<time>2024-12-07T10:23:37.256Z</time>
</trkpt>
<trkpt lat="31.1838800" lon="35.3338300">
<ele>32.880001</ele>
<time>2024-12-07T10:23:37.256Z</time>
</trkpt>
<trkpt lat="31.1838600" lon="35.3338100">
<ele>33.239998</ele>
<time>2024-12-07T10:23:37.256Z</time>
</trkpt>
<trkpt lat="31.1838400" lon="35.3337800">
<ele>33.740002</ele>
<time>2024-12-07T10:23:37.256Z</time>
</trkpt>
<trkpt lat="31.1837700" lon="35.3337000">
<ele>35.150002</ele>
<time>2024-12-07T10:23:37.256Z</time>
</trkpt>
<trkpt lat="31.1837400" lon="35.3336500">
<ele>35.980000</ele>
<time>2024-12-07T10:23:37.256Z</time>
</trkpt>
<trkpt lat="31.1836900" lon="35.3335900">
<ele>37.000000</ele>
<time>2024-12-07T10:23:37.256Z</time>
</trkpt>
<trkpt lat="31.1836500" lon="35.3335700">
<ele>37.430000</ele>
<time>2024-12-07T10:23:37.256Z</time>
</trkpt>
<trkpt lat="31.1836100" lon="35.3335200">
<ele>38.310001</ele>
<time>2024-12-07T10:23:37.256Z</time>
</trkpt>
<trkpt lat="31.1835600" lon="35.3335000">
<ele>38.340000</ele>
<time>2024-12-07T10:23:37.256Z</time>
</trkpt>
<trkpt lat="31.1835100" lon="35.3334900">
<ele>38.220001</ele>
<time>2024-12-07T10:23:37.256Z</time>
</trkpt>
<trkpt lat="31.1834600" lon="35.3334800">
<ele>38.090000</ele>
<time>2024-12-07T10:23:37.256Z</time>
</trkpt>
<trkpt lat="31.1834300" lon="35.3334700">
<ele>38.049999</ele>
<time>2024-12-07T10:23:37.256Z</time>
</trkpt>
<trkpt lat="31.1832500" lon="35.3333600">
<ele>38.439999</ele>
<time>2024-12-07T10:23:37.256Z</time>
</trkpt>
<trkpt lat="31.1832300" lon="35.3333400">
<ele>38.560001</ele>
<time>2024-12-07T10:23:37.256Z</time>
</trkpt>
<trkpt lat="31.1831900" lon="35.3333100">
<ele>38.570000</ele>
<time>2024-12-07T10:23:37.256Z</time>
</trkpt>
<trkpt lat="31.1831300" lon="35.3332600">
<ele>38.529999</ele>
<time>2024-12-07T10:23:37.256Z</time>
</trkpt>
<trkpt lat="31.1831100" lon="35.3332500">
<ele>38.500000</ele>
<time>2024-12-07T10:23:37.256Z</time>
</trkpt>
<trkpt lat="31.1830800" lon="35.3332200">
<ele>38.500000</ele>
<time>2024-12-07T10:23:37.256Z</time>
</trkpt>
<trkpt lat="31.1829400" lon="35.3331100">
<ele>40.050003</ele>
<time>2024-12-07T10:23:37.256Z</time>
</trkpt>
<trkpt lat="31.1829200" lon="35.3330900">
<ele>40.339996</ele>
<time>2024-12-07T10:23:37.256Z</time>
</trkpt>
<trkpt lat="31.1827800" lon="35.3330000">
<ele>42.369999</ele>
<time>2024-12-07T10:23:37.256Z</time>
</trkpt>
<trkpt lat="31.1827500" lon="35.3329800">
<ele>42.320000</ele>
<time>2024-12-07T10:23:37.256Z</time>
</trkpt>
<trkpt lat="31.1826300" lon="35.3328800">
<ele>41.859997</ele>
<time>2024-12-07T10:23:37.256Z</time>
</trkpt>
<trkpt lat="31.1825300" lon="35.3328100">
<ele>41.200001</ele>
<time>2024-12-07T10:23:37.256Z</time>
</trkpt>
<trkpt lat="31.1825100" lon="35.3327900">
<ele>41.060001</ele>
<time>2024-12-07T10:23:37.256Z</time>
</trkpt>
<trkpt lat="31.1824700" lon="35.3326600">
<ele>41.849998</ele>
<time>2024-12-07T10:23:37.256Z</time>
</trkpt>
<trkpt lat="31.1825000" lon="35.3326000">
<ele>42.279999</ele>
<time>2024-12-07T10:23:37.256Z</time>
</trkpt>
<trkpt lat="31.1827100" lon="35.3325900">
<ele>46.660000</ele>
<time>2024-12-07T10:23:37.256Z</time>
</trkpt>
<trkpt lat="31.1828100" lon="35.3325700">
<ele>47.820004</ele>
<time>2024-12-07T10:23:37.256Z</time>
</trkpt>
<trkpt lat="31.1828700" lon="35.3325500">
<ele>46.990002</ele>
<time>2024-12-07T10:23:37.256Z</time>
</trkpt>
<trkpt lat="31.1829800" lon="35.3324900">
<ele>45.840000</ele>
<time>2024-12-07T10:23:37.256Z</time>
</trkpt>
<trkpt lat="31.1830000" lon="35.3324700">
<ele>45.889999</ele>
<time>2024-12-07T10:23:37.256Z</time>
</trkpt>
<trkpt lat="31.1830400" lon="35.3323300">
<ele>48.960003</ele>
<time>2024-12-07T10:23:37.256Z</time>
</trkpt>
<trkpt lat="31.1830400" lon="35.3323000">
<ele>49.770000</ele>
<time>2024-12-07T10:23:37.256Z</time>
</trkpt>
<trkpt lat="31.1830300" lon="35.3322300">
<ele>51.609997</ele>
<time>2024-12-07T10:23:37.256Z</time>
</trkpt>
<trkpt lat="31.1830100" lon="35.3321800">
<ele>52.149998</ele>
<time>2024-12-07T10:23:37.256Z</time>
</trkpt>
<trkpt lat="31.1828500" lon="35.3319900">
<ele>53.650002</ele>
<time>2024-12-07T10:23:37.256Z</time>
</trkpt>
<trkpt lat="31.1828300" lon="35.3319700">
<ele>53.840000</ele>
<time>2024-12-07T10:23:37.256Z</time>
</trkpt>
<trkpt lat="31.1827800" lon="35.3319400">
<ele>54.090000</ele>
<time>2024-12-07T10:23:37.256Z</time>
</trkpt>
<trkpt lat="31.1827500" lon="35.3319300">
<ele>53.969997</ele>
<time>2024-12-07T10:23:37.256Z</time>
</trkpt>
<trkpt lat="31.1826400" lon="35.3319200">
<ele>53.040001</ele>
<time>2024-12-07T10:23:37.256Z</time>
</trkpt>
<trkpt lat="31.1825800" lon="35.3319000">
<ele>52.889999</ele>
<time>2024-12-07T10:23:37.256Z</time>
</trkpt>
<trkpt lat="31.1825100" lon="35.3318800">
<ele>52.720001</ele>
<time>2024-12-07T10:23:37.256Z</time>
</trkpt>
<trkpt lat="31.1823900" lon="35.3318000">
<ele>53.439999</ele>
<time>2024-12-07T10:23:37.256Z</time>
</trkpt>
<trkpt lat="31.1822500" lon="35.3317800">
<ele>52.279999</ele>
<time>2024-12-07T10:23:37.256Z</time>
</trkpt>
<trkpt lat="31.1820700" lon="35.3317800">
<ele>51.290001</ele>
<time>2024-12-07T10:23:37.256Z</time>
</trkpt>
<trkpt lat="31.1819800" lon="35.3317900">
<ele>50.619999</ele>
<time>2024-12-07T10:23:37.256Z</time>
</trkpt>
<trkpt lat="31.1819300" lon="35.3317900">
<ele>50.629997</ele>
<time>2024-12-07T10:23:37.256Z</time>
</trkpt>
<trkpt lat="31.1819000" lon="35.3317900">
<ele>51.020000</ele>
<time>2024-12-07T10:23:37.256Z</time>
</trkpt>
<trkpt lat="31.1818200" lon="35.3317900">
<ele>52.040001</ele>
<time>2024-12-07T10:23:37.256Z</time>
</trkpt>
<trkpt lat="31.1817500" lon="35.3317900">
<ele>52.940002</ele>
<time>2024-12-07T10:23:37.256Z</time>
</trkpt>
<trkpt lat="31.1817000" lon="35.3317900">
<ele>53.579998</ele>
<time>2024-12-07T10:23:37.256Z</time>
</trkpt>
<trkpt lat="31.1816500" lon="35.3318000">
<ele>53.980000</ele>
<time>2024-12-07T10:23:37.256Z</time>
</trkpt>
<trkpt lat="31.1816200" lon="35.3318100">
<ele>54.209999</ele>
<time>2024-12-07T10:23:37.256Z</time>
</trkpt>
<trkpt lat="31.1815800" lon="35.3318400">
<ele>54.099998</ele>
<time>2024-12-07T10:23:37.256Z</time>
</trkpt>
<trkpt lat="31.1815000" lon="35.3319200">
<ele>53.780003</ele>
<time>2024-12-07T10:23:37.256Z</time>
</trkpt>
<trkpt lat="31.1813200" lon="35.3319400">
<ele>56.080002</ele>
<time>2024-12-07T10:23:37.256Z</time>
</trkpt>
<trkpt lat="31.1811800" lon="35.3319600">
<ele>55.610001</ele>
<time>2024-12-07T10:23:37.256Z</time>
</trkpt>
<trkpt lat="31.1810400" lon="35.3319800">
<ele>54.110001</ele>
<time>2024-12-07T10:23:37.256Z</time>
</trkpt>
<trkpt lat="31.1808100" lon="35.3320500">
<ele>49.610001</ele>
<time>2024-12-07T10:23:37.256Z</time>
</trkpt>
<trkpt lat="31.1807700" lon="35.3320700">
<ele>48.900002</ele>
<time>2024-12-07T10:23:37.256Z</time>
</trkpt>
<trkpt lat="31.1807000" lon="35.3321000">
<ele>47.509998</ele>
<time>2024-12-07T10:23:37.256Z</time>
</trkpt>
<trkpt lat="31.1806600" lon="35.3321300">
<ele>46.119999</ele>
<time>2024-12-07T10:23:37.256Z</time>
</trkpt>
<trkpt lat="31.1806300" lon="35.3321600">
<ele>44.669998</ele>
<time>2024-12-07T10:23:37.256Z</time>
</trkpt>
<trkpt lat="31.1805600" lon="35.3322200">
<ele>41.179996</ele>
<time>2024-12-07T10:23:37.256Z</time>
</trkpt>
<trkpt lat="31.1804300" lon="35.3323000">
<ele>44.320004</ele>
<time>2024-12-07T10:23:37.256Z</time>
</trkpt>
<trkpt lat="31.1802600" lon="35.3323900">
<ele>48.320000</ele>
<time>2024-12-07T10:23:37.256Z</time>
</trkpt>
<trkpt lat="31.1801400" lon="35.3324500">
<ele>49.930000</ele>
<time>2024-12-07T10:23:37.256Z</time>
</trkpt>
<trkpt lat="31.1801100" lon="35.3324700">
<ele>50.139999</ele>
<time>2024-12-07T10:23:37.256Z</time>
</trkpt>
<trkpt lat="31.1798400" lon="35.3325800">
<ele>50.820000</ele>
<time>2024-12-07T10:23:37.256Z</time>
</trkpt>
<trkpt lat="31.1797000" lon="35.3326000">
<ele>50.539997</ele>
<time>2024-12-07T10:23:37.256Z</time>
</trkpt>
<trkpt lat="31.1795900" lon="35.3326500">
<ele>49.889999</ele>
<time>2024-12-07T10:23:37.256Z</time>
</trkpt>
<trkpt lat="31.1795600" lon="35.3326700">
<ele>49.670002</ele>
<time>2024-12-07T10:23:37.256Z</time>
</trkpt>
<trkpt lat="31.1795300" lon="35.3326900">
<ele>49.529999</ele>
<time>2024-12-07T10:23:37.256Z</time>
</trkpt>
<trkpt lat="31.1794000" lon="35.3327200">
<ele>50.040001</ele>
<time>2024-12-07T10:23:37.256Z</time>
</trkpt>
<trkpt lat="31.1793700" lon="35.3327300">
<ele>49.859997</ele>
<time>2024-12-07T10:23:37.256Z</time>
</trkpt>
<trkpt lat="31.1792400" lon="35.3327400">
<ele>49.680000</ele>
<time>2024-12-07T10:23:37.256Z</time>
</trkpt>
<trkpt lat="31.1791300" lon="35.3326600">
<ele>51.250004</ele>
<time>2024-12-07T10:23:37.256Z</time>
</trkpt>
<trkpt lat="31.1790200" lon="35.3324600">
<ele>55.180000</ele>
<time>2024-12-07T10:23:37.256Z</time>
</trkpt>
<trkpt lat="31.1789500" lon="35.3324100">
<ele>56.329998</ele>
<time>2024-12-07T10:23:37.256Z</time>
</trkpt>
<trkpt lat="31.1789400" lon="35.3324400">
<ele>55.860001</ele>
<time>2024-12-07T10:23:37.256Z</time>
</trkpt>
<trkpt lat="31.1789300" lon="35.3324900">
<ele>55.029999</ele>
<time>2024-12-07T10:23:37.256Z</time>
</trkpt>
<trkpt lat="31.1789200" lon="35.3325500">
<ele>53.990002</ele>
<time>2024-12-07T10:23:37.256Z</time>
</trkpt>
<trkpt lat="31.1789200" lon="35.3328400">
<ele>49.040001</ele>
<time>2024-12-07T10:23:37.256Z</time>
</trkpt>
<trkpt lat="31.1788400" lon="35.3329500">
<ele>47.980003</ele>
<time>2024-12-07T10:23:37.256Z</time>
</trkpt>
<trkpt lat="31.1787000" lon="35.3329600">
<ele>49.179996</ele>
<time>2024-12-07T10:23:37.256Z</time>
</trkpt>
<trkpt lat="31.1786100" lon="35.3329400">
<ele>50.249996</ele>
<time>2024-12-07T10:23:37.256Z</time>
</trkpt>
<trkpt lat="31.1785500" lon="35.3328900">
<ele>50.699997</ele>
<time>2024-12-07T10:23:37.256Z</time>
</trkpt>
<trkpt lat="31.1785100" lon="35.3329400">
<ele>50.040001</ele>
<time>2024-12-07T10:23:37.256Z</time>
</trkpt>
<trkpt lat="31.1784800" lon="35.3330400">
<ele>48.719997</ele>
<time>2024-12-07T10:23:37.256Z</time>
</trkpt>
<trkpt lat="31.1784000" lon="35.3331000">
<ele>47.719997</ele>
<time>2024-12-07T10:23:37.256Z</time>
</trkpt>
<trkpt lat="31.1783700" lon="35.3331200">
<ele>47.410000</ele>
<time>2024-12-07T10:23:37.256Z</time>
</trkpt>
<trkpt lat="31.1782500" lon="35.3331900">
<ele>46.270000</ele>
<time>2024-12-07T10:23:37.256Z</time>
</trkpt>
<trkpt lat="31.1781600" lon="35.3332300">
<ele>45.170002</ele>
<time>2024-12-07T10:23:37.256Z</time>
</trkpt>
<trkpt lat="31.1781100" lon="35.3332500">
<ele>44.449997</ele>
<time>2024-12-07T10:23:37.256Z</time>
</trkpt>
<trkpt lat="31.1778600" lon="35.3332600">
<ele>44.369999</ele>
<time>2024-12-07T10:23:37.256Z</time>
</trkpt>
<trkpt lat="31.1777400" lon="35.3332700">
<ele>44.969997</ele>
<time>2024-12-07T10:23:37.256Z</time>
</trkpt>
<trkpt lat="31.1776800" lon="35.3332900">
<ele>45.449997</ele>
<time>2024-12-07T10:23:37.256Z</time>
</trkpt>
<trkpt lat="31.1776300" lon="35.3333500">
<ele>44.689999</ele>
<time>2024-12-07T10:23:37.256Z</time>
</trkpt>
<trkpt lat="31.1776100" lon="35.3333200">
<ele>45.760002</ele>
<time>2024-12-07T10:23:37.256Z</time>
</trkpt>
<trkpt lat="31.1775900" lon="35.3333500">
<ele>45.310001</ele>
<time>2024-12-07T10:23:37.256Z</time>
</trkpt>
<trkpt lat="31.1775300" lon="35.3334300">
<ele>44.639999</ele>
<time>2024-12-07T10:23:37.256Z</time>
</trkpt>
<trkpt lat="31.1774300" lon="35.3334900">
<ele>44.320004</ele>
<time>2024-12-07T10:23:37.256Z</time>
</trkpt>
<trkpt lat="31.1772600" lon="35.3334900">
<ele>44.669998</ele>
<time>2024-12-07T10:23:37.256Z</time>
</trkpt>
<trkpt lat="31.1771400" lon="35.3335100">
<ele>44.669998</ele>
<time>2024-12-07T10:23:37.256Z</time>
</trkpt>
<trkpt lat="31.1769700" lon="35.3335500">
<ele>44.279999</ele>
<time>2024-12-07T10:23:37.256Z</time>
</trkpt>
<trkpt lat="31.1768400" lon="35.3334700">
<ele>46.049999</ele>
<time>2024-12-07T10:23:37.256Z</time>
</trkpt>
<trkpt lat="31.1766200" lon="35.3335500">
<ele>44.410000</ele>
<time>2024-12-07T10:23:37.256Z</time>
</trkpt>
<trkpt lat="31.1765400" lon="35.3336600">
<ele>42.220001</ele>
<time>2024-12-07T10:23:37.256Z</time>
</trkpt>
<trkpt lat="31.1764400" lon="35.3337600">
<ele>40.060001</ele>
<time>2024-12-07T10:23:37.256Z</time>
</trkpt>
<trkpt lat="31.1762100" lon="35.3338500">
<ele>38.259998</ele>
<time>2024-12-07T10:23:37.256Z</time>
</trkpt>
<trkpt lat="31.1758500" lon="35.3339100">
<ele>36.750000</ele>
<time>2024-12-07T10:23:37.256Z</time>
</trkpt>
<trkpt lat="31.1755200" lon="35.3340900">
<ele>33.980000</ele>
<time>2024-12-07T10:23:37.256Z</time>
</trkpt>
<trkpt lat="31.1754600" lon="35.3341800">
<ele>33.639999</ele>
<time>2024-12-07T10:23:37.256Z</time>
</trkpt>
<trkpt lat="31.1754100" lon="35.3343100">
<ele>33.529999</ele>
<time>2024-12-07T10:23:37.256Z</time>
</trkpt>
<trkpt lat="31.1752900" lon="35.3343800">
<ele>34.139999</ele>
<time>2024-12-07T10:23:37.256Z</time>
</trkpt>
<trkpt lat="31.1752000" lon="35.3342400">
<ele>35.709999</ele>
<time>2024-12-07T10:23:37.256Z</time>
</trkpt>
<trkpt lat="31.1751700" lon="35.3341000">
<ele>36.370003</ele>
<time>2024-12-07T10:23:37.256Z</time>
</trkpt>
<trkpt lat="31.1749200" lon="35.3337900">
<ele>38.270000</ele>
<time>2024-12-07T10:23:37.256Z</time>
</trkpt>
<trkpt lat="31.1748100" lon="35.3337100">
<ele>39.020000</ele>
<time>2024-12-07T10:23:37.256Z</time>
</trkpt>
<trkpt lat="31.1745900" lon="35.3336300">
<ele>38.560001</ele>
<time>2024-12-07T10:23:37.256Z</time>
</trkpt>
<trkpt lat="31.1743800" lon="35.3336400">
<ele>37.070000</ele>
<time>2024-12-07T10:23:37.256Z</time>
</trkpt>
<trkpt lat="31.1742200" lon="35.3334400">
<ele>35.380001</ele>
<time>2024-12-07T10:23:37.256Z</time>
</trkpt>
<trkpt lat="31.1741400" lon="35.3334300">
<ele>34.520000</ele>
<time>2024-12-07T10:23:37.256Z</time>
</trkpt>
<trkpt lat="31.1738800" lon="35.3333600">
<ele>33.840000</ele>
<time>2024-12-07T10:23:37.256Z</time>
</trkpt>
<trkpt lat="31.1737300" lon="35.3331700">
<ele>36.420002</ele>
<time>2024-12-07T10:23:37.256Z</time>
</trkpt>
<trkpt lat="31.1736600" lon="35.3330600">
<ele>38.410000</ele>
<time>2024-12-07T10:23:37.256Z</time>
</trkpt>
<trkpt lat="31.1736300" lon="35.3328200">
<ele>40.489998</ele>
<time>2024-12-07T10:23:37.256Z</time>
</trkpt>
<trkpt lat="31.1735600" lon="35.3326100">
<ele>39.980003</ele>
<time>2024-12-07T10:23:37.256Z</time>
</trkpt>
<trkpt lat="31.1734700" lon="35.3326400">
<ele>40.520000</ele>
<time>2024-12-07T10:23:37.256Z</time>
</trkpt>
<trkpt lat="31.1734000" lon="35.3328700">
<ele>40.840000</ele>
<time>2024-12-07T10:23:37.256Z</time>
</trkpt>
<trkpt lat="31.1733100" lon="35.3329500">
<ele>40.139999</ele>
<time>2024-12-07T10:23:37.256Z</time>
</trkpt>
<trkpt lat="31.1731600" lon="35.3329000">
<ele>40.680000</ele>
<time>2024-12-07T10:23:37.256Z</time>
</trkpt>
<trkpt lat="31.1728200" lon="35.3326600">
<ele>43.989998</ele>
<time>2024-12-07T10:23:37.256Z</time>
</trkpt>
<trkpt lat="31.1726100" lon="35.3325000">
<ele>48.020000</ele>
<time>2024-12-07T10:23:37.256Z</time>
</trkpt>
<trkpt lat="31.1725200" lon="35.3324600">
<ele>49.369999</ele>
<time>2024-12-07T10:23:37.256Z</time>
</trkpt>
<trkpt lat="31.1724500" lon="35.3325200">
<ele>50.570004</ele>
<time>2024-12-07T10:23:37.256Z</time>
</trkpt>
<trkpt lat="31.1724900" lon="35.3326600">
<ele>50.149998</ele>
<time>2024-12-07T10:23:37.256Z</time>
</trkpt>
<trkpt lat="31.1726300" lon="35.3332000">
<ele>44.200001</ele>
<time>2024-12-07T10:23:37.256Z</time>
</trkpt>
<trkpt lat="31.1727100" lon="35.3335200">
<ele>43.400002</ele>
<time>2024-12-07T10:23:37.256Z</time>
</trkpt>
<trkpt lat="31.1727500" lon="35.3336800">
<ele>43.500000</ele>
<time>2024-12-07T10:23:37.256Z</time>
</trkpt>
<trkpt lat="31.1726200" lon="35.3342100">
<ele>41.420002</ele>
<time>2024-12-07T10:23:37.256Z</time>
</trkpt>
<trkpt lat="31.1726400" lon="35.3342200">
<ele>40.470001</ele>
<time>2024-12-07T10:23:37.256Z</time>
</trkpt>
<trkpt lat="31.1726200" lon="35.3342100">
<ele>41.420002</ele>
<time>2024-12-07T10:23:37.256Z</time>
</trkpt>
<trkpt lat="31.1725500" lon="35.3344900">
<ele>41.450001</ele>
<time>2024-12-07T10:23:37.256Z</time>
</trkpt>
<trkpt lat="31.1724900" lon="35.3346900">
<ele>40.570000</ele>
<time>2024-12-07T10:23:37.256Z</time>
</trkpt>
<trkpt lat="31.1724300" lon="35.3351000">
<ele>37.209999</ele>
<time>2024-12-07T10:23:37.256Z</time>
</trkpt>
<trkpt lat="31.1722900" lon="35.3350700">
<ele>38.630001</ele>
<time>2024-12-07T10:23:37.256Z</time>
</trkpt>
<trkpt lat="31.1721400" lon="35.3349000">
<ele>43.049999</ele>
<time>2024-12-07T10:23:37.256Z</time>
</trkpt>
<trkpt lat="31.1721000" lon="35.3352100">
<ele>40.150002</ele>
<time>2024-12-07T10:23:37.256Z</time>
</trkpt>
<trkpt lat="31.1718300" lon="35.3347400">
<ele>50.960003</ele>
<time>2024-12-07T10:23:37.256Z</time>
</trkpt>
<trkpt lat="31.1716200" lon="35.3342700">
<ele>53.250000</ele>
<time>2024-12-07T10:23:37.256Z</time>
</trkpt>
<trkpt lat="31.1716200" lon="35.3342700">
<ele>53.250000</ele>
<time>2024-12-07T10:23:37.256Z</time>
</trkpt>
<trkpt lat="31.1715200" lon="35.3340600">
<ele>54.150002</ele>
<time>2024-12-07T10:23:37.256Z</time>
</trkpt>
<trkpt lat="31.1715400" lon="35.3338300">
<ele>55.340000</ele>
<time>2024-12-07T10:23:37.256Z</time>
</trkpt>
<trkpt lat="31.1712900" lon="35.3334500">
<ele>58.880001</ele>
<time>2024-12-07T10:23:37.256Z</time>
</trkpt>
<trkpt lat="31.1707400" lon="35.3333400">
<ele>61.720001</ele>
<time>2024-12-07T10:23:37.256Z</time>
</trkpt>
<trkpt lat="31.1707000" lon="35.3332700">
<ele>61.279999</ele>
<time>2024-12-07T10:23:37.256Z</time>
</trkpt>
<trkpt lat="31.1705400" lon="35.3330000">
<ele>59.699997</ele>
<time>2024-12-07T10:23:37.256Z</time>
</trkpt>
<trkpt lat="31.1702400" lon="35.3327900">
<ele>59.389999</ele>
<time>2024-12-07T10:23:37.256Z</time>
</trkpt>
<trkpt lat="31.1701600" lon="35.3323700">
<ele>56.670002</ele>
<time>2024-12-07T10:23:37.256Z</time>
</trkpt>
<trkpt lat="31.1699400" lon="35.3322200">
<ele>53.990002</ele>
<time>2024-12-07T10:23:37.256Z</time>
</trkpt>
<trkpt lat="31.1694200" lon="35.3319900">
<ele>53.310001</ele>
<time>2024-12-07T10:23:37.256Z</time>
</trkpt>
<trkpt lat="31.1692800" lon="35.3319200">
<ele>53.090000</ele>
<time>2024-12-07T10:23:37.256Z</time>
</trkpt>
<trkpt lat="31.1692800" lon="35.3319400">
<ele>53.020000</ele>
<time>2024-12-07T10:23:37.256Z</time>
</trkpt>
<trkpt lat="31.1692700" lon="35.3319300">
<ele>53.049999</ele>
<time>2024-12-07T10:23:37.256Z</time>
</trkpt>
<trkpt lat="31.1691200" lon="35.3318800">
<ele>52.899998</ele>
<time>2024-12-07T10:23:37.256Z</time>
</trkpt>
<trkpt lat="31.1690900" lon="35.3318800">
<ele>52.680000</ele>
<time>2024-12-07T10:23:37.256Z</time>
</trkpt>
<trkpt lat="31.1690600" lon="35.3318800">
<ele>52.459999</ele>
<time>2024-12-07T10:23:37.256Z</time>
</trkpt>
<trkpt lat="31.1689000" lon="35.3319100">
<ele>51.200001</ele>
<time>2024-12-07T10:23:37.256Z</time>
</trkpt>
<trkpt lat="31.1688000" lon="35.3319500">
<ele>50.049999</ele>
<time>2024-12-07T10:23:37.256Z</time>
</trkpt>
<trkpt lat="31.1687100" lon="35.3320000">
<ele>49.200001</ele>
<time>2024-12-07T10:23:37.256Z</time>
</trkpt>
<trkpt lat="31.1686500" lon="35.3320400">
<ele>48.719997</ele>
<time>2024-12-07T10:23:37.256Z</time>
</trkpt>
<trkpt lat="31.1684900" lon="35.3321000">
<ele>48.750000</ele>
<time>2024-12-07T10:23:37.256Z</time>
</trkpt>
<trkpt lat="31.1683000" lon="35.3321700">
<ele>49.000000</ele>
<time>2024-12-07T10:23:37.256Z</time>
</trkpt>
<trkpt lat="31.1681600" lon="35.3322200">
<ele>49.000000</ele>
<time>2024-12-07T10:23:37.256Z</time>
</trkpt>
<trkpt lat="31.1679900" lon="35.3322300">
<ele>48.820000</ele>
<time>2024-12-07T10:23:37.256Z</time>
</trkpt>
<trkpt lat="31.1679500" lon="35.3322400">
<ele>48.750000</ele>
<time>2024-12-07T10:23:37.256Z</time>
</trkpt>
<trkpt lat="31.1677900" lon="35.3322500">
<ele>48.239998</ele>
<time>2024-12-07T10:23:37.256Z</time>
</trkpt>
<trkpt lat="31.1677000" lon="35.3322600">
<ele>47.360001</ele>
<time>2024-12-07T10:23:37.256Z</time>
</trkpt>
<trkpt lat="31.1675600" lon="35.3322900">
<ele>45.750000</ele>
<time>2024-12-07T10:23:37.256Z</time>
</trkpt>
<trkpt lat="31.1675100" lon="35.3323000">
<ele>45.129997</ele>
<time>2024-12-07T10:23:37.256Z</time>
</trkpt>
<trkpt lat="31.1674700" lon="35.3323300">
<ele>45.090000</ele>
<time>2024-12-07T10:23:37.256Z</time>
</trkpt>
<trkpt lat="31.1673200" lon="35.3324200">
<ele>44.910000</ele>
<time>2024-12-07T10:23:37.256Z</time>
</trkpt>
<trkpt lat="31.1672900" lon="35.3324500">
<ele>44.650002</ele>
<time>2024-12-07T10:23:37.256Z</time>
</trkpt>
<trkpt lat="31.1670600" lon="35.3325100">
<ele>42.209999</ele>
<time>2024-12-07T10:23:37.256Z</time>
</trkpt>
<trkpt lat="31.1669600" lon="35.3325400">
<ele>41.019997</ele>
<time>2024-12-07T10:23:37.256Z</time>
</trkpt>
<trkpt lat="31.1668000" lon="35.3326000">
<ele>39.080002</ele>
<time>2024-12-07T10:23:37.256Z</time>
</trkpt>
<trkpt lat="31.1667100" lon="35.3326600">
<ele>37.889999</ele>
<time>2024-12-07T10:23:37.256Z</time>
</trkpt>
<trkpt lat="31.1666700" lon="35.3326800">
<ele>37.389999</ele>
<time>2024-12-07T10:23:37.256Z</time>
</trkpt>
<trkpt lat="31.1665700" lon="35.3327200">
<ele>36.529999</ele>
<time>2024-12-07T10:23:37.256Z</time>
</trkpt>
<trkpt lat="31.1664800" lon="35.3327700">
<ele>35.110001</ele>
<time>2024-12-07T10:23:37.256Z</time>
</trkpt>
<trkpt lat="31.1663100" lon="35.3328800">
<ele>36.880001</ele>
<time>2024-12-07T10:23:37.256Z</time>
</trkpt>
<trkpt lat="31.1662400" lon="35.3329400">
<ele>38.879997</ele>
<time>2024-12-07T10:23:37.256Z</time>
</trkpt>
<trkpt lat="31.1661600" lon="35.3330200">
<ele>40.949997</ele>
<time>2024-12-07T10:23:37.256Z</time>
</trkpt>
<trkpt lat="31.1661300" lon="35.3330600">
<ele>41.650002</ele>
<time>2024-12-07T10:23:37.256Z</time>
</trkpt>
<trkpt lat="31.1660600" lon="35.3331200">
<ele>42.929996</ele>
<time>2024-12-07T10:23:37.256Z</time>
</trkpt>
<trkpt lat="31.1659300" lon="35.3331300">
<ele>45.770000</ele>
<time>2024-12-07T10:23:37.256Z</time>
</trkpt>
<trkpt lat="31.1657800" lon="35.3331400">
<ele>47.779999</ele>
<time>2024-12-07T10:23:37.256Z</time>
</trkpt>
<trkpt lat="31.1656900" lon="35.3331500">
<ele>47.639999</ele>
<time>2024-12-07T10:23:37.256Z</time>
</trkpt>
<trkpt lat="31.1656500" lon="35.3331600">
<ele>47.500000</ele>
<time>2024-12-07T10:23:37.256Z</time>
</trkpt>
<trkpt lat="31.1655900" lon="35.3332200">
<ele>46.630001</ele>
<time>2024-12-07T10:23:37.256Z</time>
</trkpt>
<trkpt lat="31.1654000" lon="35.3333700">
<ele>44.180000</ele>
<time>2024-12-07T10:23:37.256Z</time>
</trkpt>
<trkpt lat="31.1652700" lon="35.3334700">
<ele>43.000000</ele>
<time>2024-12-07T10:23:37.256Z</time>
</trkpt>
<trkpt lat="31.1652600" lon="35.3335000">
<ele>42.750000</ele>
<time>2024-12-07T10:23:37.256Z</time>
</trkpt>
<trkpt lat="31.1652500" lon="35.3336400">
<ele>41.680000</ele>
<time>2024-12-07T10:23:37.256Z</time>
</trkpt>
<trkpt lat="31.1652700" lon="35.3337200">
<ele>41.529999</ele>
<time>2024-12-07T10:23:37.256Z</time>
</trkpt>
<trkpt lat="31.1653000" lon="35.3337500">
<ele>41.580002</ele>
<time>2024-12-07T10:23:37.256Z</time>
</trkpt>
<trkpt lat="31.1653000" lon="35.3337900">
<ele>41.440002</ele>
<time>2024-12-07T10:23:37.256Z</time>
</trkpt>
<trkpt lat="31.1652700" lon="35.3338700">
<ele>40.960003</ele>
<time>2024-12-07T10:23:37.256Z</time>
</trkpt>
<trkpt lat="31.1651400" lon="35.3340200">
<ele>37.130001</ele>
<time>2024-12-07T10:23:37.256Z</time>
</trkpt>
<trkpt lat="31.1650000" lon="35.3340700">
<ele>33.740002</ele>
<time>2024-12-07T10:23:37.256Z</time>
</trkpt>
<trkpt lat="31.1647900" lon="35.3341000">
<ele>26.910000</ele>
<time>2024-12-07T10:23:37.256Z</time>
</trkpt>
<trkpt lat="31.1647600" lon="35.3341200">
<ele>25.219999</ele>
<time>2024-12-07T10:23:37.256Z</time>
</trkpt>
<trkpt lat="31.1646900" lon="35.3341900">
<ele>20.619999</ele>
<time>2024-12-07T10:23:37.256Z</time>
</trkpt>
<trkpt lat="31.1646700" lon="35.3342100">
<ele>19.650002</ele>
<time>2024-12-07T10:23:37.256Z</time>
</trkpt>
<trkpt lat="31.1645500" lon="35.3342800">
<ele>15.310000</ele>
<time>2024-12-07T10:23:37.256Z</time>
</trkpt>
<trkpt lat="31.1645300" lon="35.3343200">
<ele>14.059999</ele>
<time>2024-12-07T10:23:37.256Z</time>
</trkpt>
<trkpt lat="31.1645100" lon="35.3343600">
<ele>12.840000</ele>
<time>2024-12-07T10:23:37.256Z</time>
</trkpt>
<trkpt lat="31.1645000" lon="35.3344000">
<ele>11.860001</ele>
<time>2024-12-07T10:23:37.256Z</time>
</trkpt>
<trkpt lat="31.1645100" lon="35.3344000">
<ele>12.059999</ele>
<time>2024-12-07T10:23:37.256Z</time>
</trkpt>
<trkpt lat="31.1642200" lon="35.3347500">
<ele>9.840000</ele>
<time>2024-12-07T10:23:37.256Z</time>
</trkpt>
<trkpt lat="31.1642100" lon="35.3342000">
<ele>7.850000</ele>
<time>2024-12-07T10:23:37.256Z</time>
</trkpt>
<trkpt lat="31.1641500" lon="35.3339600">
<ele>12.820000</ele>
<time>2024-12-07T10:23:37.256Z</time>
</trkpt>
<trkpt lat="31.1639900" lon="35.3339300">
<ele>12.450001</ele>
<time>2024-12-07T10:23:37.256Z</time>
</trkpt>
<trkpt lat="31.1637100" lon="35.3341300">
<ele>6.730000</ele>
<time>2024-12-07T10:23:37.256Z</time>
</trkpt>
<trkpt lat="31.1635300" lon="35.3342000">
<ele>7.580000</ele>
<time>2024-12-07T10:23:37.256Z</time>
</trkpt>
<trkpt lat="31.1633600" lon="35.3342900">
<ele>10.960000</ele>
<time>2024-12-07T10:23:37.256Z</time>
</trkpt>
<trkpt lat="31.1630200" lon="35.3343500">
<ele>14.050000</ele>
<time>2024-12-07T10:23:37.256Z</time>
</trkpt>
<trkpt lat="31.1626800" lon="35.3344600">
<ele>12.999999</ele>
<time>2024-12-07T10:23:37.256Z</time>
</trkpt>
<trkpt lat="31.1623700" lon="35.3344900">
<ele>10.720000</ele>
<time>2024-12-07T10:23:37.256Z</time>
</trkpt>
<trkpt lat="31.1622500" lon="35.3345600">
<ele>8.190001</ele>
<time>2024-12-07T10:23:37.256Z</time>
</trkpt>
<trkpt lat="31.1621500" lon="35.3346100">
<ele>5.600000</ele>
<time>2024-12-07T10:23:37.256Z</time>
</trkpt>
<trkpt lat="31.1622100" lon="35.3348900">
<ele>6.350000</ele>
<time>2024-12-07T10:23:37.256Z</time>
</trkpt>
<trkpt lat="31.1620600" lon="35.3351000">
<ele>4.650000</ele>
<time>2024-12-07T10:23:37.256Z</time>
</trkpt>
<trkpt lat="31.1619500" lon="35.3351800">
<ele>3.380000</ele>
<time>2024-12-07T10:23:37.256Z</time>
</trkpt>
<trkpt lat="31.1618400" lon="35.3352700">
<ele>4.340000</ele>
<time>2024-12-07T10:23:37.256Z</time>
</trkpt>
<trkpt lat="31.1617700" lon="35.3353300">
<ele>5.030000</ele>
<time>2024-12-07T10:23:37.256Z</time>
</trkpt>
<trkpt lat="31.1616300" lon="35.3356600">
<ele>6.110000</ele>
<time>2024-12-07T10:23:37.256Z</time>
</trkpt>
<trkpt lat="31.1615600" lon="35.3356600">
<ele>5.610000</ele>
<time>2024-12-07T10:23:37.256Z</time>
</trkpt>
<trkpt lat="31.1615200" lon="35.3357300">
<ele>5.570000</ele>
<time>2024-12-07T10:23:37.256Z</time>
</trkpt>
<trkpt lat="31.1613700" lon="35.3357700">
<ele>4.740000</ele>
<time>2024-12-07T10:23:37.256Z</time>
</trkpt>
<trkpt lat="31.1613700" lon="35.3357700">
<ele>4.740000</ele>
<time>2024-12-07T10:23:37.256Z</time>
</trkpt>
<trkpt lat="31.1613700" lon="35.3357700">
<ele>4.740000</ele>
<time>2024-12-07T10:23:37.256Z</time>
</trkpt>
<trkpt lat="31.1613200" lon="35.3357500">
<ele>4.550000</ele>
<time>2024-12-07T10:23:37.256Z</time>
</trkpt>
<trkpt lat="31.1613100" lon="35.3357000">
<ele>4.250000</ele>
<time>2024-12-07T10:23:37.256Z</time>
</trkpt>
<trkpt lat="31.1613100" lon="35.3356800">
<ele>4.130000</ele>
<time>2024-12-07T10:23:37.256Z</time>
</trkpt>
<trkpt lat="31.1613400" lon="35.3356100">
<ele>3.910000</ele>
<time>2024-12-07T10:23:37.256Z</time>
</trkpt>
<trkpt lat="31.1614200" lon="35.3355400">
<ele>4.220000</ele>
<time>2024-12-07T10:23:37.256Z</time>
</trkpt>
<trkpt lat="31.1614500" lon="35.3354500">
<ele>4.360000</ele>
<time>2024-12-07T10:23:37.256Z</time>
</trkpt>
<trkpt lat="31.1614200" lon="35.3353300">
<ele>4.130000</ele>
<time>2024-12-07T10:23:37.256Z</time>
</trkpt>
<trkpt lat="31.1614200" lon="35.3351100">
<ele>2.500000</ele>
<time>2024-12-07T10:23:37.256Z</time>
</trkpt>
<trkpt lat="31.1613500" lon="35.3350000">
<ele>0.020000</ele>
<time>2024-12-07T10:23:37.256Z</time>
</trkpt>
<trkpt lat="31.1612400" lon="35.3350200">
<ele>-2.540000</ele>
<time>2024-12-07T10:23:37.256Z</time>
</trkpt>
<trkpt lat="31.1611600" lon="35.3351100">
<ele>-3.580000</ele>
<time>2024-12-07T10:23:37.256Z</time>
</trkpt>
<trkpt lat="31.1610500" lon="35.3351500">
<ele>-5.870000</ele>
<time>2024-12-07T10:23:37.256Z</time>
</trkpt>
<trkpt lat="31.1610200" lon="35.3353800">
<ele>-2.350000</ele>
<time>2024-12-07T10:23:37.256Z</time>
</trkpt>
<trkpt lat="31.1608700" lon="35.3354900">
<ele>-1.990000</ele>
<time>2024-12-07T10:23:37.256Z</time>
</trkpt>
<trkpt lat="31.1606700" lon="35.3354600">
<ele>-6.190000</ele>
<time>2024-12-07T10:23:37.256Z</time>
</trkpt>
<trkpt lat="31.1606100" lon="35.3356200">
<ele>-4.940000</ele>
<time>2024-12-07T10:23:37.256Z</time>
</trkpt>
<trkpt lat="31.1606100" lon="35.3357200">
<ele>-3.570000</ele>
<time>2024-12-07T10:23:37.256Z</time>
</trkpt>
<trkpt lat="31.1605100" lon="35.3357500">
<ele>-5.200000</ele>
<time>2024-12-07T10:23:37.256Z</time>
</trkpt>
<trkpt lat="31.1604300" lon="35.3356200">
<ele>-8.190001</ele>
<time>2024-12-07T10:23:37.256Z</time>
</trkpt>
<trkpt lat="31.1602600" lon="35.3356800">
<ele>-10.880000</ele>
<time>2024-12-07T10:23:37.256Z</time>
</trkpt>
<trkpt lat="31.1601700" lon="35.3359100">
<ele>-11.440001</ele>
<time>2024-12-07T10:23:37.256Z</time>
</trkpt>
<trkpt lat="31.1601300" lon="35.3363400">
<ele>-10.000000</ele>
<time>2024-12-07T10:23:37.256Z</time>
</trkpt>
<trkpt lat="31.1600700" lon="35.3364000">
<ele>-10.760000</ele>
<time>2024-12-07T10:23:37.256Z</time>
</trkpt>
<trkpt lat="31.1600300" lon="35.3363800">
<ele>-11.500000</ele>
<time>2024-12-07T10:23:37.256Z</time>
</trkpt>
<trkpt lat="31.1599800" lon="35.3363400">
<ele>-12.270000</ele>
<time>2024-12-07T10:23:37.256Z</time>
</trkpt>
<trkpt lat="31.1597700" lon="35.3362900">
<ele>-12.829999</ele>
<time>2024-12-07T10:23:37.256Z</time>
</trkpt>
<trkpt lat="31.1596500" lon="35.3361300">
<ele>-11.450000</ele>
<time>2024-12-07T10:23:37.256Z</time>
</trkpt>
<trkpt lat="31.1595000" lon="35.3361000">
<ele>-12.000000</ele>
<time>2024-12-07T10:23:37.256Z</time>
</trkpt>
<trkpt lat="31.1593500" lon="35.3361000">
<ele>-14.320001</ele>
<time>2024-12-07T10:23:37.256Z</time>
</trkpt>
<trkpt lat="31.1592000" lon="35.3360300">
<ele>-19.800001</ele>
<time>2024-12-07T10:23:37.256Z</time>
</trkpt>
<trkpt lat="31.1590500" lon="35.3360200">
<ele>-24.459999</ele>
<time>2024-12-07T10:23:37.256Z</time>
</trkpt>
<trkpt lat="31.1588900" lon="35.3361700">
<ele>-25.490000</ele>
<time>2024-12-07T10:23:37.256Z</time>
</trkpt>
<trkpt lat="31.1588400" lon="35.3362900">
<ele>-23.840000</ele>
<time>2024-12-07T10:23:37.256Z</time>
</trkpt>
<trkpt lat="31.1586700" lon="35.3363300">
<ele>-27.620001</ele>
<time>2024-12-07T10:23:37.256Z</time>
</trkpt>
<trkpt lat="31.1586100" lon="35.3364200">
<ele>-27.330000</ele>
<time>2024-12-07T10:23:37.256Z</time>
</trkpt>
<trkpt lat="31.1584500" lon="35.3364000">
<ele>-28.249998</ele>
<time>2024-12-07T10:23:37.256Z</time>
</trkpt>
<trkpt lat="31.1582000" lon="35.3364800">
<ele>-26.990000</ele>
<time>2024-12-07T10:23:37.256Z</time>
</trkpt>
<trkpt lat="31.1580400" lon="35.3365300">
<ele>-27.190001</ele>
<time>2024-12-07T10:23:37.256Z</time>
</trkpt>
<trkpt lat="31.1579600" lon="35.3365500">
<ele>-27.939999</ele>
<time>2024-12-07T10:23:37.256Z</time>
</trkpt>
<trkpt lat="31.1579200" lon="35.3366600">
<ele>-25.619999</ele>
<time>2024-12-07T10:23:37.256Z</time>
</trkpt>
<trkpt lat="31.1579200" lon="35.3366600">
<ele>-25.619999</ele>
<time>2024-12-07T10:23:37.256Z</time>
</trkpt>
<trkpt lat="31.1579700" lon="35.3367200">
<ele>-24.359999</ele>
<time>2024-12-07T10:23:37.256Z</time>
</trkpt>
<trkpt lat="31.1580700" lon="35.3367000">
<ele>-22.789999</ele>
<time>2024-12-07T10:23:37.256Z</time>
</trkpt>
<trkpt lat="31.1581900" lon="35.3366500">
<ele>-21.600000</ele>
<time>2024-12-07T10:23:37.256Z</time>
</trkpt>
<trkpt lat="31.1583200" lon="35.3367500">
<ele>-19.190001</ele>
<time>2024-12-07T10:23:37.256Z</time>
</trkpt>
<trkpt lat="31.1582900" lon="35.3368000">
<ele>-19.620001</ele>
<time>2024-12-07T10:23:37.256Z</time>
</trkpt>
<trkpt lat="31.1582700" lon="35.3368300">
<ele>-19.910002</ele>
<time>2024-12-07T10:23:37.256Z</time>
</trkpt>
<trkpt lat="31.1578500" lon="35.3368400">
<ele>-25.309999</ele>
<time>2024-12-07T10:23:37.256Z</time>
</trkpt>
<trkpt lat="31.1577100" lon="35.3367700">
<ele>-28.870001</ele>
<time>2024-12-07T10:23:37.256Z</time>
</trkpt>
<trkpt lat="31.1576200" lon="35.3367800">
<ele>-31.300001</ele>
<time>2024-12-07T10:23:37.256Z</time>
</trkpt>
<trkpt lat="31.1575900" lon="35.3368900">
<ele>-29.630001</ele>
<time>2024-12-07T10:23:37.256Z</time>
</trkpt>
<trkpt lat="31.1576500" lon="35.3369300">
<ele>-27.580000</ele>
<time>2024-12-07T10:23:37.256Z</time>
</trkpt>
<trkpt lat="31.1577300" lon="35.3369300">
<ele>-26.059999</ele>
<time>2024-12-07T10:23:37.256Z</time>
</trkpt>
<trkpt lat="31.1577300" lon="35.3369300">
<ele>-26.059999</ele>
<time>2024-12-07T10:23:37.256Z</time>
</trkpt>
<trkpt lat="31.1577300" lon="35.3369300">
<ele>-26.059999</ele>
<time>2024-12-07T10:23:37.256Z</time>
</trkpt>
<trkpt lat="31.1583500" lon="35.3369000">
<ele>-19.129999</ele>
<time>2024-12-07T10:23:37.256Z</time>
</trkpt>
<trkpt lat="31.1587500" lon="35.3366300">
<ele>-21.400002</ele>
<time>2024-12-07T10:23:37.256Z</time>
</trkpt>
<trkpt lat="31.1588800" lon="35.3367900">
<ele>-20.049999</ele>
<time>2024-12-07T10:23:37.256Z</time>
</trkpt>
<trkpt lat="31.1588700" lon="35.3369800">
<ele>-19.930000</ele>
<time>2024-12-07T10:23:37.256Z</time>
</trkpt>
<trkpt lat="31.1589100" lon="35.3370900">
<ele>-19.400000</ele>
<time>2024-12-07T10:23:37.256Z</time>
</trkpt>
<trkpt lat="31.1589400" lon="35.3371800">
<ele>-18.840000</ele>
<time>2024-12-07T10:23:37.256Z</time>
</trkpt>
<trkpt lat="31.1590200" lon="35.3373000">
<ele>-17.629999</ele>
<time>2024-12-07T10:23:37.256Z</time>
</trkpt>
<trkpt lat="31.1590500" lon="35.3374400">
<ele>-16.730000</ele>
<time>2024-12-07T10:23:37.256Z</time>
</trkpt>
<trkpt lat="31.1589400" lon="35.3375100">
<ele>-16.850000</ele>
<time>2024-12-07T10:23:37.256Z</time>
</trkpt>
<trkpt lat="31.1588200" lon="35.3374400">
<ele>-18.600000</ele>
<time>2024-12-07T10:23:37.256Z</time>
</trkpt>
<trkpt lat="31.1587700" lon="35.3371500">
<ele>-19.370001</ele>
<time>2024-12-07T10:23:37.256Z</time>
</trkpt>
<trkpt lat="31.1586800" lon="35.3371400">
<ele>-19.519999</ele>
<time>2024-12-07T10:23:37.256Z</time>
</trkpt>
<trkpt lat="31.1586100" lon="35.3372000">
<ele>-19.170000</ele>
<time>2024-12-07T10:23:37.256Z</time>
</trkpt>
<trkpt lat="31.1586100" lon="35.3372700">
<ele>-19.700001</ele>
<time>2024-12-07T10:23:37.256Z</time>
</trkpt>
<trkpt lat="31.1587200" lon="35.3373600">
<ele>-19.820000</ele>
<time>2024-12-07T10:23:37.256Z</time>
</trkpt>
<trkpt lat="31.1587100" lon="35.3374500">
<ele>-20.530001</ele>
<time>2024-12-07T10:23:37.256Z</time>
</trkpt>
<trkpt lat="31.1586700" lon="35.3375700">
<ele>-22.379999</ele>
<time>2024-12-07T10:23:37.256Z</time>
</trkpt>
<trkpt lat="31.1586000" lon="35.3376200">
<ele>-24.420000</ele>
<time>2024-12-07T10:23:37.256Z</time>
</trkpt>
<trkpt lat="31.1585100" lon="35.3376000">
<ele>-25.170000</ele>
<time>2024-12-07T10:23:37.256Z</time>
</trkpt>
<trkpt lat="31.1583900" lon="35.3375000">
<ele>-25.389999</ele>
<time>2024-12-07T10:23:37.256Z</time>
</trkpt>
<trkpt lat="31.1582900" lon="35.3374500">
<ele>-25.680000</ele>
<time>2024-12-07T10:23:37.256Z</time>
</trkpt>
<trkpt lat="31.1581700" lon="35.3374900">
<ele>-27.670000</ele>
<time>2024-12-07T10:23:37.256Z</time>
</trkpt>
<trkpt lat="31.1581400" lon="35.3374700">
<ele>-27.850000</ele>
<time>2024-12-07T10:23:37.256Z</time>
</trkpt>
<trkpt lat="31.1581400" lon="35.3374700">
<ele>-27.850000</ele>
<time>2024-12-07T10:23:37.256Z</time>
</trkpt>
<trkpt lat="31.1581400" lon="35.3374700">
<ele>-27.850000</ele>
<time>2024-12-07T10:23:37.256Z</time>
</trkpt>
<trkpt lat="31.1579100" lon="35.3373500">
<ele>-28.420000</ele>
<time>2024-12-07T10:23:37.256Z</time>
</trkpt>
<trkpt lat="31.1577800" lon="35.3373100">
<ele>-27.950001</ele>
<time>2024-12-07T10:23:37.256Z</time>
</trkpt>
<trkpt lat="31.1577400" lon="35.3373200">
<ele>-28.190001</ele>
<time>2024-12-07T10:23:37.256Z</time>
</trkpt>
<trkpt lat="31.1576200" lon="35.3374600">
<ele>-30.139999</ele>
<time>2024-12-07T10:23:37.256Z</time>
</trkpt>
<trkpt lat="31.1574600" lon="35.3374600">
<ele>-31.120001</ele>
<time>2024-12-07T10:23:37.256Z</time>
</trkpt>
<trkpt lat="31.1573600" lon="35.3375500">
<ele>-33.469997</ele>
<time>2024-12-07T10:23:37.256Z</time>
</trkpt>
<trkpt lat="31.1573800" lon="35.3376100">
<ele>-33.689999</ele>
<time>2024-12-07T10:23:37.256Z</time>
</trkpt>
<trkpt lat="31.1574000" lon="35.3377000">
<ele>-34.139999</ele>
<time>2024-12-07T10:23:37.256Z</time>
</trkpt>
<trkpt lat="31.1575400" lon="35.3377300">
<ele>-32.389999</ele>
<time>2024-12-07T10:23:37.256Z</time>
</trkpt>
<trkpt lat="31.1576800" lon="35.3376600">
<ele>-31.129999</ele>
<time>2024-12-07T10:23:37.256Z</time>
</trkpt>
<trkpt lat="31.1578900" lon="35.3377800">
<ele>-30.210001</ele>
<time>2024-12-07T10:23:37.256Z</time>
</trkpt>
<trkpt lat="31.1579000" lon="35.3379100">
<ele>-31.070000</ele>
<time>2024-12-07T10:23:37.256Z</time>
</trkpt>
<trkpt lat="31.1577500" lon="35.3378300">
<ele>-31.559999</ele>
<time>2024-12-07T10:23:37.256Z</time>
</trkpt>
<trkpt lat="31.1575400" lon="35.3378700">
<ele>-33.090000</ele>
<time>2024-12-07T10:23:37.256Z</time>
</trkpt>
<trkpt lat="31.1574500" lon="35.3379000">
<ele>-34.340000</ele>
<time>2024-12-07T10:23:37.256Z</time>
</trkpt>
<trkpt lat="31.1574500" lon="35.3379000">
<ele>-34.340000</ele>
<time>2024-12-07T10:23:37.256Z</time>
</trkpt>
<trkpt lat="31.1574500" lon="35.3379000">
<ele>-34.340000</ele>
<time>2024-12-07T10:23:37.256Z</time>
</trkpt>
<trkpt lat="31.1572100" lon="35.3378500">
<ele>-38.510002</ele>
<time>2024-12-07T10:23:37.256Z</time>
</trkpt>
<trkpt lat="31.1570800" lon="35.3378400">
<ele>-41.179996</ele>
<time>2024-12-07T10:23:37.256Z</time>
</trkpt>
<trkpt lat="31.1569100" lon="35.3377500">
<ele>-44.260002</ele>
<time>2024-12-07T10:23:37.256Z</time>
</trkpt>
<trkpt lat="31.1568700" lon="35.3377800">
<ele>-45.070000</ele>
<time>2024-12-07T10:23:37.256Z</time>
</trkpt>
<trkpt lat="31.1568700" lon="35.3378400">
<ele>-45.129997</ele>
<time>2024-12-07T10:23:37.256Z</time>
</trkpt>
<trkpt lat="31.1570900" lon="35.3380800">
<ele>-41.689999</ele>
<time>2024-12-07T10:23:37.256Z</time>
</trkpt>
<trkpt lat="31.1572000" lon="35.3382500">
<ele>-41.559998</ele>
<time>2024-12-07T10:23:37.256Z</time>
</trkpt>
<trkpt lat="31.1573600" lon="35.3382700">
<ele>-39.220001</ele>
<time>2024-12-07T10:23:37.256Z</time>
</trkpt>
<trkpt lat="31.1574200" lon="35.3383900">
<ele>-40.459999</ele>
<time>2024-12-07T10:23:37.256Z</time>
</trkpt>
<trkpt lat="31.1574100" lon="35.3385000">
<ele>-43.110001</ele>
<time>2024-12-07T10:23:37.256Z</time>
</trkpt>
<trkpt lat="31.1575500" lon="35.3386200">
<ele>-44.620003</ele>
<time>2024-12-07T10:23:37.256Z</time>
</trkpt>
<trkpt lat="31.1574600" lon="35.3386900">
<ele>-46.750004</ele>
<time>2024-12-07T10:23:37.256Z</time>
</trkpt>
<trkpt lat="31.1573000" lon="35.3386400">
<ele>-47.029999</ele>
<time>2024-12-07T10:23:37.256Z</time>
</trkpt>
<trkpt lat="31.1570000" lon="35.3385100">
<ele>-49.469997</ele>
<time>2024-12-07T10:23:37.256Z</time>
</trkpt>
<trkpt lat="31.1565900" lon="35.3381800">
<ele>-52.750000</ele>
<time>2024-12-07T10:23:37.256Z</time>
</trkpt>
<trkpt lat="31.1563800" lon="35.3381500">
<ele>-57.789997</ele>
<time>2024-12-07T10:23:37.256Z</time>
</trkpt>
<trkpt lat="31.1562400" lon="35.3380800">
<ele>-58.829998</ele>
<time>2024-12-07T10:23:37.256Z</time>
</trkpt>
<trkpt lat="31.1562400" lon="35.3380800">
<ele>-58.829998</ele>
<time>2024-12-07T10:23:37.256Z</time>
</trkpt>
<trkpt lat="31.1562400" lon="35.3380800">
<ele>-58.829998</ele>
<time>2024-12-07T10:23:37.256Z</time>
</trkpt>
<trkpt lat="31.1561600" lon="35.3379600">
<ele>-58.040001</ele>
<time>2024-12-07T10:23:37.256Z</time>
</trkpt>
<trkpt lat="31.1560500" lon="35.3377900">
<ele>-56.169998</ele>
<time>2024-12-07T10:23:37.256Z</time>
</trkpt>
<trkpt lat="31.1559300" lon="35.3377800">
<ele>-56.029999</ele>
<time>2024-12-07T10:23:37.256Z</time>
</trkpt>
<trkpt lat="31.1558000" lon="35.3378800">
<ele>-56.939999</ele>
<time>2024-12-07T10:23:37.256Z</time>
</trkpt>
<trkpt lat="31.1557700" lon="35.3379000">
<ele>-56.990002</ele>
<time>2024-12-07T10:23:37.256Z</time>
</trkpt>
<trkpt lat="31.1556500" lon="35.3379600">
<ele>-56.879997</ele>
<time>2024-12-07T10:23:37.256Z</time>
</trkpt>
<trkpt lat="31.1553700" lon="35.3379600">
<ele>-59.190002</ele>
<time>2024-12-07T10:23:37.256Z</time>
</trkpt>
<trkpt lat="31.1551700" lon="35.3378000">
<ele>-62.170002</ele>
<time>2024-12-07T10:23:37.256Z</time>
</trkpt>
<trkpt lat="31.1549500" lon="35.3376600">
<ele>-66.010002</ele>
<time>2024-12-07T10:23:37.256Z</time>
</trkpt>
<trkpt lat="31.1548400" lon="35.3376000">
<ele>-66.769997</ele>
<time>2024-12-07T10:23:37.256Z</time>
</trkpt>
<trkpt lat="31.1548800" lon="35.3374800">
<ele>-63.719997</ele>
<time>2024-12-07T10:23:37.256Z</time>
</trkpt>
<trkpt lat="31.1549700" lon="35.3373400">
<ele>-61.899998</ele>
<time>2024-12-07T10:23:37.256Z</time>
</trkpt>
<trkpt lat="31.1550400" lon="35.3372000">
<ele>-60.309998</ele>
<time>2024-12-07T10:23:37.256Z</time>
</trkpt>
<trkpt lat="31.1552000" lon="35.3370700">
<ele>-58.149998</ele>
<time>2024-12-07T10:23:37.256Z</time>
</trkpt>
<trkpt lat="31.1552000" lon="35.3370800">
<ele>-58.009998</ele>
<time>2024-12-07T10:23:37.256Z</time>
</trkpt>
<trkpt lat="31.1552000" lon="35.3370700">
<ele>-58.149998</ele>
<time>2024-12-07T10:23:37.256Z</time>
</trkpt>
<trkpt lat="31.1552200" lon="35.3370500">
<ele>-57.939999</ele>
<time>2024-12-07T10:23:37.256Z</time>
</trkpt>
<trkpt lat="31.1552000" lon="35.3369300">
<ele>-59.970001</ele>
<time>2024-12-07T10:23:37.256Z</time>
</trkpt>
<trkpt lat="31.1550900" lon="35.3368800">
<ele>-63.129997</ele>
<time>2024-12-07T10:23:37.256Z</time>
</trkpt>
<trkpt lat="31.1549500" lon="35.3369000">
<ele>-67.580002</ele>
<time>2024-12-07T10:23:37.256Z</time>
</trkpt>
<trkpt lat="31.1548700" lon="35.3370200">
<ele>-69.269997</ele>
<time>2024-12-07T10:23:37.256Z</time>
</trkpt>
<trkpt lat="31.1548800" lon="35.3371800">
<ele>-66.059998</ele>
<time>2024-12-07T10:23:37.256Z</time>
</trkpt>
<trkpt lat="31.1547700" lon="35.3372300">
<ele>-69.190002</ele>
<time>2024-12-07T10:23:37.256Z</time>
</trkpt>
<trkpt lat="31.1545000" lon="35.3372200">
<ele>-79.830002</ele>
<time>2024-12-07T10:23:37.256Z</time>
</trkpt>
<trkpt lat="31.1542400" lon="35.3372300">
<ele>-85.510002</ele>
<time>2024-12-07T10:23:37.256Z</time>
</trkpt>
<trkpt lat="31.1541500" lon="35.3372800">
<ele>-86.120003</ele>
<time>2024-12-07T10:23:37.256Z</time>
</trkpt>
<trkpt lat="31.1540800" lon="35.3373700">
<ele>-85.849998</ele>
<time>2024-12-07T10:23:37.256Z</time>
</trkpt>
<trkpt lat="31.1540600" lon="35.3373900">
<ele>-85.910004</ele>
<time>2024-12-07T10:23:37.256Z</time>
</trkpt>
<trkpt lat="31.1540300" lon="35.3375300">
<ele>-84.120003</ele>
<time>2024-12-07T10:23:37.256Z</time>
</trkpt>
<trkpt lat="31.1540300" lon="35.3375900">
<ele>-83.470001</ele>
<time>2024-12-07T10:23:37.256Z</time>
</trkpt>
<trkpt lat="31.1541600" lon="35.3376600">
<ele>-79.439995</ele>
<time>2024-12-07T10:23:37.256Z</time>
</trkpt>
<trkpt lat="31.1542000" lon="35.3377300">
<ele>-78.110001</ele>
<time>2024-12-07T10:23:37.256Z</time>
</trkpt>
<trkpt lat="31.1542200" lon="35.3378200">
<ele>-77.700005</ele>
<time>2024-12-07T10:23:37.256Z</time>
</trkpt>
<trkpt lat="31.1541500" lon="35.3378300">
<ele>-78.770004</ele>
<time>2024-12-07T10:23:37.256Z</time>
</trkpt>
<trkpt lat="31.1540700" lon="35.3377200">
<ele>-81.059998</ele>
<time>2024-12-07T10:23:37.256Z</time>
</trkpt>
<trkpt lat="31.1539800" lon="35.3377000">
<ele>-83.540001</ele>
<time>2024-12-07T10:23:37.256Z</time>
</trkpt>
<trkpt lat="31.1539500" lon="35.3377400">
<ele>-83.869995</ele>
<time>2024-12-07T10:23:37.256Z</time>
</trkpt>
<trkpt lat="31.1539900" lon="35.3378600">
<ele>-82.669998</ele>
<time>2024-12-07T10:23:37.256Z</time>
</trkpt>
<trkpt lat="31.1539400" lon="35.3381600">
<ele>-85.510002</ele>
<time>2024-12-07T10:23:37.256Z</time>
</trkpt>
<trkpt lat="31.1539000" lon="35.3383000">
<ele>-88.279999</ele>
<time>2024-12-07T10:23:37.256Z</time>
</trkpt>
<trkpt lat="31.1539100" lon="35.3384100">
<ele>-89.939995</ele>
<time>2024-12-07T10:23:37.256Z</time>
</trkpt>
<trkpt lat="31.1538200" lon="35.3385000">
<ele>-93.489998</ele>
<time>2024-12-07T10:23:37.256Z</time>
</trkpt>
<trkpt lat="31.1538000" lon="35.3383700">
<ele>-92.330002</ele>
<time>2024-12-07T10:23:37.256Z</time>
</trkpt>
<trkpt lat="31.1536500" lon="35.3382400">
<ele>-95.680000</ele>
<time>2024-12-07T10:23:37.256Z</time>
</trkpt>
<trkpt lat="31.1536100" lon="35.3379900">
<ele>-95.030006</ele>
<time>2024-12-07T10:23:37.256Z</time>
</trkpt>
<trkpt lat="31.1534900" lon="35.3378600">
<ele>-98.790001</ele>
<time>2024-12-07T10:23:37.256Z</time>
</trkpt>
<trkpt lat="31.1534400" lon="35.3378900">
<ele>-100.299995</ele>
<time>2024-12-07T10:23:37.256Z</time>
</trkpt>
<trkpt lat="31.1533700" lon="35.3379900">
<ele>-102.149994</ele>
<time>2024-12-07T10:23:37.256Z</time>
</trkpt>
<trkpt lat="31.1534600" lon="35.3381500">
<ele>-100.000000</ele>
<time>2024-12-07T10:23:37.256Z</time>
</trkpt>
<trkpt lat="31.1534400" lon="35.3382600">
<ele>-101.229996</ele>
<time>2024-12-07T10:23:37.256Z</time>
</trkpt>
<trkpt lat="31.1533200" lon="35.3384400">
<ele>-104.780006</ele>
<time>2024-12-07T10:23:37.256Z</time>
</trkpt>
<trkpt lat="31.1533200" lon="35.3384400">
<ele>-104.780006</ele>
<time>2024-12-07T10:23:37.256Z</time>
</trkpt>
<trkpt lat="31.1533200" lon="35.3384400">
<ele>-104.780006</ele>
<time>2024-12-07T10:23:37.256Z</time>
</trkpt>
<trkpt lat="31.1532100" lon="35.3386000">
<ele>-109.350006</ele>
<time>2024-12-07T10:23:37.256Z</time>
</trkpt>
<trkpt lat="31.1530500" lon="35.3386900">
<ele>-115.389999</ele>
<time>2024-12-07T10:23:37.256Z</time>
</trkpt>
<trkpt lat="31.1530900" lon="35.3388500">
<ele>-114.829994</ele>
<time>2024-12-07T10:23:37.256Z</time>
</trkpt>
<trkpt lat="31.1532200" lon="35.3389300">
<ele>-111.670006</ele>
<time>2024-12-07T10:23:37.256Z</time>
</trkpt>
<trkpt lat="31.1533400" lon="35.3390100">
<ele>-109.580002</ele>
<time>2024-12-07T10:23:37.256Z</time>
</trkpt>
<trkpt lat="31.1533100" lon="35.3390500">
<ele>-110.849998</ele>
<time>2024-12-07T10:23:37.256Z</time>
</trkpt>
<trkpt lat="31.1532500" lon="35.3390400">
<ele>-112.089996</ele>
<time>2024-12-07T10:23:37.256Z</time>
</trkpt>
<trkpt lat="31.1531700" lon="35.3390100">
<ele>-113.680000</ele>
<time>2024-12-07T10:23:37.256Z</time>
</trkpt>
<trkpt lat="31.1531200" lon="35.3390800">
<ele>-115.310005</ele>
<time>2024-12-07T10:23:37.256Z</time>
</trkpt>
<trkpt lat="31.1531800" lon="35.3391700">
<ele>-114.820000</ele>
<time>2024-12-07T10:23:37.256Z</time>
</trkpt>
<trkpt lat="31.1531800" lon="35.3392600">
<ele>-116.410004</ele>
<time>2024-12-07T10:23:37.256Z</time>
</trkpt>
<trkpt lat="31.1531200" lon="35.3393800">
<ele>-119.270004</ele>
<time>2024-12-07T10:23:37.256Z</time>
</trkpt>
<trkpt lat="31.1531100" lon="35.3395000">
<ele>-121.610001</ele>
<time>2024-12-07T10:23:37.256Z</time>
</trkpt>
<trkpt lat="31.1531100" lon="35.3395000">
<ele>-121.610001</ele>
<time>2024-12-07T10:23:37.256Z</time>
</trkpt>
<trkpt lat="31.1530900" lon="35.3395900">
<ele>-123.769997</ele>
<time>2024-12-07T10:23:37.256Z</time>
</trkpt>
<trkpt lat="31.1531900" lon="35.3396600">
<ele>-124.199997</ele>
<time>2024-12-07T10:23:37.256Z</time>
</trkpt>
<trkpt lat="31.1532900" lon="35.3396100">
<ele>-122.040001</ele>
<time>2024-12-07T10:23:37.256Z</time>
</trkpt>
<trkpt lat="31.1533700" lon="35.3394900">
<ele>-117.930000</ele>
<time>2024-12-07T10:23:37.256Z</time>
</trkpt>
<trkpt lat="31.1534300" lon="35.3394300">
<ele>-114.900002</ele>
<time>2024-12-07T10:23:37.256Z</time>
</trkpt>
<trkpt lat="31.1535900" lon="35.3395100">
<ele>-112.019997</ele>
<time>2024-12-07T10:23:37.256Z</time>
</trkpt>
<trkpt lat="31.1536800" lon="35.3395900">
<ele>-112.139999</ele>
<time>2024-12-07T10:23:37.256Z</time>
</trkpt>
<trkpt lat="31.1537700" lon="35.3396500">
<ele>-111.879997</ele>
<time>2024-12-07T10:23:37.256Z</time>
</trkpt>
<trkpt lat="31.1538600" lon="35.3396900">
<ele>-111.030006</ele>
<time>2024-12-07T10:23:37.256Z</time>
</trkpt>
<trkpt lat="31.1539900" lon="35.3397400">
<ele>-111.849998</ele>
<time>2024-12-07T10:23:37.256Z</time>
</trkpt>
<trkpt lat="31.1540600" lon="35.3397800">
<ele>-112.979996</ele>
<time>2024-12-07T10:23:37.256Z</time>
</trkpt>
<trkpt lat="31.1540600" lon="35.3398500">
<ele>-114.620003</ele>
<time>2024-12-07T10:23:37.256Z</time>
</trkpt>
<trkpt lat="31.1539900" lon="35.3398800">
<ele>-115.650002</ele>
<time>2024-12-07T10:23:37.256Z</time>
</trkpt>
<trkpt lat="31.1539000" lon="35.3398100">
<ele>-113.830002</ele>
<time>2024-12-07T10:23:37.256Z</time>
</trkpt>
<trkpt lat="31.1538200" lon="35.3397600">
<ele>-113.459999</ele>
<time>2024-12-07T10:23:37.256Z</time>
</trkpt>
<trkpt lat="31.1537400" lon="35.3397300">
<ele>-113.930000</ele>
<time>2024-12-07T10:23:37.256Z</time>
</trkpt>
<trkpt lat="31.1536400" lon="35.3397100">
<ele>-115.229996</ele>
<time>2024-12-07T10:23:37.256Z</time>
</trkpt>
<trkpt lat="31.1535500" lon="35.3396700">
<ele>-116.629997</ele>
<time>2024-12-07T10:23:37.256Z</time>
</trkpt>
<trkpt lat="31.1534700" lon="35.3397100">
<ele>-119.799995</ele>
<time>2024-12-07T10:23:37.256Z</time>
</trkpt>
<trkpt lat="31.1536000" lon="35.3398100">
<ele>-119.150002</ele>
<time>2024-12-07T10:23:37.256Z</time>
</trkpt>
<trkpt lat="31.1536800" lon="35.3398100">
<ele>-117.600006</ele>
<time>2024-12-07T10:23:37.256Z</time>
</trkpt>
<trkpt lat="31.1537200" lon="35.3398600">
<ele>-118.500008</ele>
<time>2024-12-07T10:23:37.256Z</time>
</trkpt>
<trkpt lat="31.1537500" lon="35.3399500">
<ele>-120.879997</ele>
<time>2024-12-07T10:23:37.256Z</time>
</trkpt>
<trkpt lat="31.1537800" lon="35.3400500">
<ele>-123.180000</ele>
<time>2024-12-07T10:23:37.256Z</time>
</trkpt>
<trkpt lat="31.1538400" lon="35.3401400">
<ele>-124.080002</ele>
<time>2024-12-07T10:23:37.256Z</time>
</trkpt>
<trkpt lat="31.1539000" lon="35.3402600">
<ele>-125.380005</ele>
<time>2024-12-07T10:23:37.256Z</time>
</trkpt>
<trkpt lat="31.1539700" lon="35.3403700">
<ele>-126.000000</ele>
<time>2024-12-07T10:23:37.256Z</time>
</trkpt>
<trkpt lat="31.1539500" lon="35.3404700">
<ele>-128.290009</ele>
<time>2024-12-07T10:23:37.256Z</time>
</trkpt>
<trkpt lat="31.1538600" lon="35.3404300">
<ele>-129.520004</ele>
<time>2024-12-07T10:23:37.256Z</time>
</trkpt>
<trkpt lat="31.1537600" lon="35.3402600">
<ele>-128.800003</ele>
<time>2024-12-07T10:23:37.256Z</time>
</trkpt>
<trkpt lat="31.1536500" lon="35.3401200">
<ele>-127.640007</ele>
<time>2024-12-07T10:23:37.256Z</time>
</trkpt>
<trkpt lat="31.1535900" lon="35.3400800">
<ele>-127.840004</ele>
<time>2024-12-07T10:23:37.256Z</time>
</trkpt>
<trkpt lat="31.1535000" lon="35.3401200">
<ele>-131.259995</ele>
<time>2024-12-07T10:23:37.256Z</time>
</trkpt>
<trkpt lat="31.1534000" lon="35.3402500">
<ele>-137.519989</ele>
<time>2024-12-07T10:23:37.256Z</time>
</trkpt>
<trkpt lat="31.1533300" lon="35.3403100">
<ele>-140.750000</ele>
<time>2024-12-07T10:23:37.256Z</time>
</trkpt>
<trkpt lat="31.1532600" lon="35.3403700">
<ele>-142.960007</ele>
<time>2024-12-07T10:23:37.256Z</time>
</trkpt>
<trkpt lat="31.1531700" lon="35.3404500">
<ele>-145.199997</ele>
<time>2024-12-07T10:23:37.256Z</time>
</trkpt>
<trkpt lat="31.1530500" lon="35.3404900">
<ele>-146.550003</ele>
<time>2024-12-07T10:23:37.256Z</time>
</trkpt>
<trkpt lat="31.1528400" lon="35.3405200">
<ele>-148.000000</ele>
<time>2024-12-07T10:23:37.256Z</time>
</trkpt>
<trkpt lat="31.1527600" lon="35.3405300">
<ele>-148.559998</ele>
<time>2024-12-07T10:23:37.256Z</time>
</trkpt>
<trkpt lat="31.1527500" lon="35.3405300">
<ele>-148.570007</ele>
<time>2024-12-07T10:23:37.256Z</time>
</trkpt>
<trkpt lat="31.1527600" lon="35.3405300">
<ele>-148.559998</ele>
<time>2024-12-07T10:23:37.256Z</time>
</trkpt>
<trkpt lat="31.1527300" lon="35.3405300">
<ele>-148.589996</ele>
<time>2024-12-07T10:23:37.256Z</time>
</trkpt>
<trkpt lat="31.1526400" lon="35.3404000">
<ele>-147.029999</ele>
<time>2024-12-07T10:23:37.256Z</time>
</trkpt>
<trkpt lat="31.1525300" lon="35.3402300">
<ele>-145.800003</ele>
<time>2024-12-07T10:23:37.256Z</time>
</trkpt>
<trkpt lat="31.1524900" lon="35.3401300">
<ele>-144.600006</ele>
<time>2024-12-07T10:23:37.256Z</time>
</trkpt>
<trkpt lat="31.1523900" lon="35.3401400">
<ele>-147.289993</ele>
<time>2024-12-07T10:23:37.256Z</time>
</trkpt>
<trkpt lat="31.1522700" lon="35.3402400">
<ele>-150.910004</ele>
<time>2024-12-07T10:23:37.256Z</time>
</trkpt>
<trkpt lat="31.1522000" lon="35.3403200">
<ele>-152.550003</ele>
<time>2024-12-07T10:23:37.256Z</time>
</trkpt>
<trkpt lat="31.1521800" lon="35.3403500">
<ele>-153.020004</ele>
<time>2024-12-07T10:23:37.256Z</time>
</trkpt>
<trkpt lat="31.1521000" lon="35.3404300">
<ele>-154.839996</ele>
<time>2024-12-07T10:23:37.256Z</time>
</trkpt>
<trkpt lat="31.1520100" lon="35.3404100">
<ele>-156.979996</ele>
<time>2024-12-07T10:23:37.256Z</time>
</trkpt>
<trkpt lat="31.1519700" lon="35.3404100">
<ele>-157.919998</ele>
<time>2024-12-07T10:23:37.256Z</time>
</trkpt>
<trkpt lat="31.1519000" lon="35.3403900">
<ele>-159.300003</ele>
<time>2024-12-07T10:23:37.256Z</time>
</trkpt>
<trkpt lat="31.1518500" lon="35.3404000">
<ele>-160.070007</ele>
<time>2024-12-07T10:23:37.256Z</time>
</trkpt>
<trkpt lat="31.1518500" lon="35.3404300">
<ele>-160.000000</ele>
<time>2024-12-07T10:23:37.256Z</time>
</trkpt>
<trkpt lat="31.1518400" lon="35.3404900">
<ele>-160.030014</ele>
<time>2024-12-07T10:23:37.256Z</time>
</trkpt>
<trkpt lat="31.1518900" lon="35.3405400">
<ele>-159.029999</ele>
<time>2024-12-07T10:23:37.256Z</time>
</trkpt>
<trkpt lat="31.1519900" lon="35.3406000">
<ele>-157.310013</ele>
<time>2024-12-07T10:23:37.256Z</time>
</trkpt>
<trkpt lat="31.1520600" lon="35.3406000">
<ele>-156.000000</ele>
<time>2024-12-07T10:23:37.256Z</time>
</trkpt>
<trkpt lat="31.1519900" lon="35.3406700">
<ele>-157.770004</ele>
<time>2024-12-07T10:23:37.256Z</time>
</trkpt>
<trkpt lat="31.1519100" lon="35.3406800">
<ele>-158.960007</ele>
<time>2024-12-07T10:23:37.256Z</time>
</trkpt>
<trkpt lat="31.1518800" lon="35.3407100">
<ele>-159.459991</ele>
<time>2024-12-07T10:23:37.256Z</time>
</trkpt>
<trkpt lat="31.1519100" lon="35.3407800">
<ele>-159.229996</ele>
<time>2024-12-07T10:23:37.256Z</time>
</trkpt>
<trkpt lat="31.1519100" lon="35.3407800">
<ele>-159.229996</ele>
<time>2024-12-07T10:23:37.256Z</time>
</trkpt>
<trkpt lat="31.1519500" lon="35.3409000">
<ele>-160.419998</ele>
<time>2024-12-07T10:23:37.256Z</time>
</trkpt>
<trkpt lat="31.1520300" lon="35.3409200">
<ele>-160.470001</ele>
<time>2024-12-07T10:23:37.256Z</time>
</trkpt>
<trkpt lat="31.1521000" lon="35.3408200">
<ele>-158.259995</ele>
<time>2024-12-07T10:23:37.256Z</time>
</trkpt>
<trkpt lat="31.1522000" lon="35.3407000">
<ele>-155.389999</ele>
<time>2024-12-07T10:23:37.256Z</time>
</trkpt>
<trkpt lat="31.1523000" lon="35.3406200">
<ele>-152.490005</ele>
<time>2024-12-07T10:23:37.256Z</time>
</trkpt>
<trkpt lat="31.1523700" lon="35.3405500">
<ele>-150.380005</ele>
<time>2024-12-07T10:23:37.256Z</time>
</trkpt>
<trkpt lat="31.1524000" lon="35.3405800">
<ele>-150.550003</ele>
<time>2024-12-07T10:23:37.256Z</time>
</trkpt>
<trkpt lat="31.1523500" lon="35.3406400">
<ele>-152.300003</ele>
<time>2024-12-07T10:23:37.256Z</time>
</trkpt>
<trkpt lat="31.1522900" lon="35.3407200">
<ele>-154.680008</ele>
<time>2024-12-07T10:23:37.256Z</time>
</trkpt>
<trkpt lat="31.1522600" lon="35.3408000">
<ele>-156.750000</ele>
<time>2024-12-07T10:23:37.256Z</time>
</trkpt>
<trkpt lat="31.1522300" lon="35.3408900">
<ele>-158.910004</ele>
<time>2024-12-07T10:23:37.256Z</time>
</trkpt>
<trkpt lat="31.1521800" lon="35.3410000">
<ele>-161.240005</ele>
<time>2024-12-07T10:23:37.256Z</time>
</trkpt>
<trkpt lat="31.1521500" lon="35.3410700">
<ele>-162.740005</ele>
<time>2024-12-07T10:23:37.256Z</time>
</trkpt>
<trkpt lat="31.1521000" lon="35.3411600">
<ele>-164.940002</ele>
<time>2024-12-07T10:23:37.256Z</time>
</trkpt>
<trkpt lat="31.1520500" lon="35.3411900">
<ele>-165.939987</ele>
<time>2024-12-07T10:23:37.256Z</time>
</trkpt>
<trkpt lat="31.1519800" lon="35.3412100">
<ele>-166.880005</ele>
<time>2024-12-07T10:23:37.256Z</time>
</trkpt>
<trkpt lat="31.1519400" lon="35.3412000">
<ele>-166.889999</ele>
<time>2024-12-07T10:23:37.256Z</time>
</trkpt>
<trkpt lat="31.1518700" lon="35.3411600">
<ele>-165.649994</ele>
<time>2024-12-07T10:23:37.256Z</time>
</trkpt>
<trkpt lat="31.1518000" lon="35.3411800">
<ele>-165.580002</ele>
<time>2024-12-07T10:23:37.256Z</time>
</trkpt>
<trkpt lat="31.1517900" lon="35.3412300">
<ele>-166.300003</ele>
<time>2024-12-07T10:23:37.256Z</time>
</trkpt>
<trkpt lat="31.1518400" lon="35.3412700">
<ele>-167.410004</ele>
<time>2024-12-07T10:23:37.256Z</time>
</trkpt>
<trkpt lat="31.1519100" lon="35.3412900">
<ele>-168.500000</ele>
<time>2024-12-07T10:23:37.256Z</time>
</trkpt>
<trkpt lat="31.1519600" lon="35.3413200">
<ele>-169.400009</ele>
<time>2024-12-07T10:23:37.256Z</time>
</trkpt>
<trkpt lat="31.1520300" lon="35.3413200">
<ele>-168.899994</ele>
<time>2024-12-07T10:23:37.256Z</time>
</trkpt>
<trkpt lat="31.1521200" lon="35.3412400">
<ele>-166.519989</ele>
<time>2024-12-07T10:23:37.256Z</time>
</trkpt>
<trkpt lat="31.1521700" lon="35.3411800">
<ele>-164.860001</ele>
<time>2024-12-07T10:23:37.256Z</time>
</trkpt>
<trkpt lat="31.1522400" lon="35.3411100">
<ele>-162.790009</ele>
<time>2024-12-07T10:23:37.256Z</time>
</trkpt>
<trkpt lat="31.1522700" lon="35.3411000">
<ele>-162.279999</ele>
<time>2024-12-07T10:23:37.256Z</time>
</trkpt>
<trkpt lat="31.1523100" lon="35.3411400">
<ele>-162.709991</ele>
<time>2024-12-07T10:23:37.256Z</time>
</trkpt>
<trkpt lat="31.1522900" lon="35.3412000">
<ele>-164.269989</ele>
<time>2024-12-07T10:23:37.256Z</time>
</trkpt>
<trkpt lat="31.1522700" lon="35.3412300">
<ele>-165.129990</ele>
<time>2024-12-07T10:23:37.256Z</time>
</trkpt>
<trkpt lat="31.1522200" lon="35.3412700">
<ele>-166.450012</ele>
<time>2024-12-07T10:23:37.256Z</time>
</trkpt>
<trkpt lat="31.1521800" lon="35.3413200">
<ele>-167.820007</ele>
<time>2024-12-07T10:23:37.256Z</time>
</trkpt>
<trkpt lat="31.1521700" lon="35.3413600">
<ele>-168.750000</ele>
<time>2024-12-07T10:23:37.256Z</time>
</trkpt>
<trkpt lat="31.1523200" lon="35.3414100">
<ele>-168.809998</ele>
<time>2024-12-07T10:23:37.256Z</time>
</trkpt>
<trkpt lat="31.1523800" lon="35.3414000">
<ele>-168.149994</ele>
<time>2024-12-07T10:23:37.256Z</time>
</trkpt>
<trkpt lat="31.1524600" lon="35.3414300">
<ele>-168.429993</ele>
<time>2024-12-07T10:23:37.256Z</time>
</trkpt>
<trkpt lat="31.1525300" lon="35.3415800">
<ele>-172.500000</ele>
<time>2024-12-07T10:23:37.256Z</time>
</trkpt>
<trkpt lat="31.1524700" lon="35.3416200">
<ele>-173.689987</ele>
<time>2024-12-07T10:23:37.256Z</time>
</trkpt>
<trkpt lat="31.1524000" lon="35.3416300">
<ele>-174.039993</ele>
<time>2024-12-07T10:23:37.256Z</time>
</trkpt>
<trkpt lat="31.1521900" lon="35.3416300">
<ele>-174.339996</ele>
<time>2024-12-07T10:23:37.256Z</time>
</trkpt>
<trkpt lat="31.1520800" lon="35.3416500">
<ele>-175.180008</ele>
<time>2024-12-07T10:23:37.256Z</time>
</trkpt>
<trkpt lat="31.1519600" lon="35.3416500">
<ele>-175.639999</ele>
<time>2024-12-07T10:23:37.256Z</time>
</trkpt>
<trkpt lat="31.1518700" lon="35.3416600">
<ele>-175.330002</ele>
<time>2024-12-07T10:23:37.256Z</time>
</trkpt>
<trkpt lat="31.1517800" lon="35.3416300">
<ele>-174.000000</ele>
<time>2024-12-07T10:23:37.256Z</time>
</trkpt>
<trkpt lat="31.1517800" lon="35.3416400">
<ele>-174.220001</ele>
<time>2024-12-07T10:23:37.256Z</time>
</trkpt>
<trkpt lat="31.1517800" lon="35.3416300">
<ele>-174.000000</ele>
<time>2024-12-07T10:23:37.256Z</time>
</trkpt>
<trkpt lat="31.1516700" lon="35.3416100">
<ele>-172.599991</ele>
<time>2024-12-07T10:23:37.256Z</time>
</trkpt>
<trkpt lat="31.1515800" lon="35.3415700">
<ele>-172.410004</ele>
<time>2024-12-07T10:23:37.256Z</time>
</trkpt>
<trkpt lat="31.1515100" lon="35.3415600">
<ele>-172.870010</ele>
<time>2024-12-07T10:23:37.256Z</time>
</trkpt>
<trkpt lat="31.1514400" lon="35.3415400">
<ele>-173.179993</ele>
<time>2024-12-07T10:23:37.256Z</time>
</trkpt>
<trkpt lat="31.1513600" lon="35.3415700">
<ele>-174.960007</ele>
<time>2024-12-07T10:23:37.256Z</time>
</trkpt>
<trkpt lat="31.1511900" lon="35.3415800">
<ele>-179.180008</ele>
<time>2024-12-07T10:23:37.256Z</time>
</trkpt>
<trkpt lat="31.1510800" lon="35.3416300">
<ele>-182.190002</ele>
<time>2024-12-07T10:23:37.256Z</time>
</trkpt>
<trkpt lat="31.1511900" lon="35.3417000">
<ele>-180.960007</ele>
<time>2024-12-07T10:23:37.256Z</time>
</trkpt>
<trkpt lat="31.1512800" lon="35.3417200">
<ele>-179.550003</ele>
<time>2024-12-07T10:23:37.256Z</time>
</trkpt>
<trkpt lat="31.1513800" lon="35.3417200">
<ele>-177.519989</ele>
<time>2024-12-07T10:23:37.256Z</time>
</trkpt>
<trkpt lat="31.1514300" lon="35.3417500">
<ele>-177.889999</ele>
<time>2024-12-07T10:23:37.256Z</time>
</trkpt>
<trkpt lat="31.1514100" lon="35.3417800">
<ele>-178.770004</ele>
<time>2024-12-07T10:23:37.256Z</time>
</trkpt>
<trkpt lat="31.1513700" lon="35.3417900">
<ele>-179.460007</ele>
<time>2024-12-07T10:23:37.256Z</time>
</trkpt>
<trkpt lat="31.1513300" lon="35.3418000">
<ele>-180.429993</ele>
<time>2024-12-07T10:23:37.256Z</time>
</trkpt>
<trkpt lat="31.1513400" lon="35.3418300">
<ele>-180.970001</ele>
<time>2024-12-07T10:23:37.256Z</time>
</trkpt>
<trkpt lat="31.1513300" lon="35.3418800">
<ele>-182.319992</ele>
<time>2024-12-07T10:23:37.256Z</time>
</trkpt>
<trkpt lat="31.1512800" lon="35.3419000">
<ele>-183.570007</ele>
<time>2024-12-07T10:23:37.256Z</time>
</trkpt>
<trkpt lat="31.1512200" lon="35.3418600">
<ele>-183.669998</ele>
<time>2024-12-07T10:23:37.256Z</time>
</trkpt>
<trkpt lat="31.1511500" lon="35.3418300">
<ele>-184.260010</ele>
<time>2024-12-07T10:23:37.256Z</time>
</trkpt>
<trkpt lat="31.1510800" lon="35.3418800">
<ele>-186.570007</ele>
<time>2024-12-07T10:23:37.256Z</time>
</trkpt>
<trkpt lat="31.1510800" lon="35.3419400">
<ele>-187.699997</ele>
<time>2024-12-07T10:23:37.256Z</time>
</trkpt>
<trkpt lat="31.1511900" lon="35.3419800">
<ele>-186.889999</ele>
<time>2024-12-07T10:23:37.256Z</time>
</trkpt>
<trkpt lat="31.1512800" lon="35.3420300">
<ele>-187.029999</ele>
<time>2024-12-07T10:23:37.256Z</time>
</trkpt>
<trkpt lat="31.1515100" lon="35.3421900">
<ele>-190.069992</ele>
<time>2024-12-07T10:23:37.256Z</time>
</trkpt>
<trkpt lat="31.1517700" lon="35.3422400">
<ele>-190.510010</ele>
<time>2024-12-07T10:23:37.256Z</time>
</trkpt>
<trkpt lat="31.1520600" lon="35.3423000">
<ele>-189.290009</ele>
<time>2024-12-07T10:23:37.256Z</time>
</trkpt>
<trkpt lat="31.1522000" lon="35.3423500">
<ele>-189.000000</ele>
<time>2024-12-07T10:23:37.256Z</time>
</trkpt>
<trkpt lat="31.1522900" lon="35.3424400">
<ele>-190.570007</ele>
<time>2024-12-07T10:23:37.256Z</time>
</trkpt>
<trkpt lat="31.1523100" lon="35.3426100">
<ele>-194.009995</ele>
<time>2024-12-07T10:23:37.256Z</time>
</trkpt>
<trkpt lat="31.1524400" lon="35.3426900">
<ele>-196.669998</ele>
<time>2024-12-07T10:23:37.256Z</time>
</trkpt>
<trkpt lat="31.1526000" lon="35.3427300">
<ele>-200.070007</ele>
<time>2024-12-07T10:23:37.256Z</time>
</trkpt>
<trkpt lat="31.1527700" lon="35.3427100">
<ele>-203.130005</ele>
<time>2024-12-07T10:23:37.256Z</time>
</trkpt>
<trkpt lat="31.1529300" lon="35.3427400">
<ele>-205.539993</ele>
<time>2024-12-07T10:23:37.256Z</time>
</trkpt>
<trkpt lat="31.1531600" lon="35.3427800">
<ele>-208.440002</ele>
<time>2024-12-07T10:23:37.256Z</time>
</trkpt>
<trkpt lat="31.1533000" lon="35.3428000">
<ele>-209.639999</ele>
<time>2024-12-07T10:23:37.256Z</time>
</trkpt>
<trkpt lat="31.1533600" lon="35.3428300">
<ele>-211.019989</ele>
<time>2024-12-07T10:23:37.256Z</time>
</trkpt>
<trkpt lat="31.1533000" lon="35.3428800">
<ele>-212.380005</ele>
<time>2024-12-07T10:23:37.256Z</time>
</trkpt>
<trkpt lat="31.1531600" lon="35.3429100">
<ele>-211.949997</ele>
<time>2024-12-07T10:23:37.256Z</time>
</trkpt>
<trkpt lat="31.1529300" lon="35.3429600">
<ele>-210.880005</ele>
<time>2024-12-07T10:23:37.256Z</time>
</trkpt>
<trkpt lat="31.1527600" lon="35.3430600">
<ele>-211.910004</ele>
<time>2024-12-07T10:23:37.256Z</time>
</trkpt>
<trkpt lat="31.1526700" lon="35.3431300">
<ele>-212.649994</ele>
<time>2024-12-07T10:23:37.256Z</time>
</trkpt>
<trkpt lat="31.1525600" lon="35.3431300">
<ele>-211.679993</ele>
<time>2024-12-07T10:23:37.256Z</time>
</trkpt>
<trkpt lat="31.1525500" lon="35.3431900">
<ele>-213.240005</ele>
<time>2024-12-07T10:23:37.256Z</time>
</trkpt>
<trkpt lat="31.1525700" lon="35.3433200">
<ele>-216.889999</ele>
<time>2024-12-07T10:23:37.256Z</time>
</trkpt>
<trkpt lat="31.1524800" lon="35.3433600">
<ele>-217.490005</ele>
<time>2024-12-07T10:23:37.256Z</time>
</trkpt>
<trkpt lat="31.1523700" lon="35.3432700">
<ele>-214.959991</ele>
<time>2024-12-07T10:23:37.256Z</time>
</trkpt>
<trkpt lat="31.1522600" lon="35.3432400">
<ele>-213.730011</ele>
<time>2024-12-07T10:23:37.256Z</time>
</trkpt>
<trkpt lat="31.1519800" lon="35.3429600">
<ele>-204.160004</ele>
<time>2024-12-07T10:23:37.256Z</time>
</trkpt>
<trkpt lat="31.1518300" lon="35.3429800">
<ele>-204.639999</ele>
<time>2024-12-07T10:23:37.256Z</time>
</trkpt>
<trkpt lat="31.1516600" lon="35.3430900">
<ele>-207.070007</ele>
<time>2024-12-07T10:23:37.256Z</time>
</trkpt>
<trkpt lat="31.1514900" lon="35.3431600">
<ele>-211.160004</ele>
<time>2024-12-07T10:23:37.256Z</time>
</trkpt>
<trkpt lat="31.1514900" lon="35.3431600">
<ele>-211.160004</ele>
<time>2024-12-07T10:23:37.256Z</time>
</trkpt>
<trkpt lat="31.1514900" lon="35.3431600">
<ele>-211.160004</ele>
<time>2024-12-07T10:23:37.256Z</time>
</trkpt>
<trkpt lat="31.1513200" lon="35.3432200">
<ele>-215.169998</ele>
<time>2024-12-07T10:23:37.256Z</time>
</trkpt>
<trkpt lat="31.1513600" lon="35.3432900">
<ele>-216.920013</ele>
<time>2024-12-07T10:23:37.256Z</time>
</trkpt>
<trkpt lat="31.1514400" lon="35.3433400">
<ele>-217.480011</ele>
<time>2024-12-07T10:23:37.256Z</time>
</trkpt>
<trkpt lat="31.1514000" lon="35.3434100">
<ele>-220.339996</ele>
<time>2024-12-07T10:23:37.256Z</time>
</trkpt>
<trkpt lat="31.1513800" lon="35.3434700">
<ele>-222.520004</ele>
<time>2024-12-07T10:23:37.256Z</time>
</trkpt>
<trkpt lat="31.1515000" lon="35.3434700">
<ele>-221.020004</ele>
<time>2024-12-07T10:23:37.256Z</time>
</trkpt>
<trkpt lat="31.1515800" lon="35.3434900">
<ele>-220.710007</ele>
<time>2024-12-07T10:23:37.256Z</time>
</trkpt>
<trkpt lat="31.1515800" lon="35.3435300">
<ele>-222.110001</ele>
<time>2024-12-07T10:23:37.256Z</time>
</trkpt>
<trkpt lat="31.1515500" lon="35.3435800">
<ele>-224.190002</ele>
<time>2024-12-07T10:23:37.256Z</time>
</trkpt>
<trkpt lat="31.1515900" lon="35.3435900">
<ele>-224.090012</ele>
<time>2024-12-07T10:23:37.256Z</time>
</trkpt>
<trkpt lat="31.1516700" lon="35.3435900">
<ele>-223.239990</ele>
<time>2024-12-07T10:23:37.256Z</time>
</trkpt>
<trkpt lat="31.1517700" lon="35.3435300">
<ele>-221.509995</ele>
<time>2024-12-07T10:23:37.256Z</time>
</trkpt>
<trkpt lat="31.1518800" lon="35.3435700">
<ele>-222.970001</ele>
<time>2024-12-07T10:23:37.256Z</time>
</trkpt>
<trkpt lat="31.1520700" lon="35.3436900">
<ele>-226.259995</ele>
<time>2024-12-07T10:23:37.256Z</time>
</trkpt>
<trkpt lat="31.1521400" lon="35.3437500">
<ele>-227.940002</ele>
<time>2024-12-07T10:23:37.256Z</time>
</trkpt>
<trkpt lat="31.1521500" lon="35.3438700">
<ele>-231.889999</ele>
<time>2024-12-07T10:23:37.256Z</time>
</trkpt>
<trkpt lat="31.1521400" lon="35.3439300">
<ele>-234.320007</ele>
<time>2024-12-07T10:23:37.256Z</time>
</trkpt>
<trkpt lat="31.1521100" lon="35.3439200">
<ele>-234.110001</ele>
<time>2024-12-07T10:23:37.256Z</time>
</trkpt>
<trkpt lat="31.1520600" lon="35.3438500">
<ele>-231.830002</ele>
<time>2024-12-07T10:23:37.256Z</time>
</trkpt>
<trkpt lat="31.1519700" lon="35.3438100">
<ele>-231.000000</ele>
<time>2024-12-07T10:23:37.256Z</time>
</trkpt>
<trkpt lat="31.1519000" lon="35.3438200">
<ele>-231.759995</ele>
<time>2024-12-07T10:23:37.256Z</time>
</trkpt>
<trkpt lat="31.1518600" lon="35.3438500">
<ele>-233.120010</ele>
<time>2024-12-07T10:23:37.256Z</time>
</trkpt>
<trkpt lat="31.1518500" lon="35.3439000">
<ele>-235.089996</ele>
<time>2024-12-07T10:23:37.256Z</time>
</trkpt>
<trkpt lat="31.1518200" lon="35.3439500">
<ele>-237.119995</ele>
<time>2024-12-07T10:23:37.256Z</time>
</trkpt>
<trkpt lat="31.1517900" lon="35.3440000">
<ele>-239.070007</ele>
<time>2024-12-07T10:23:37.256Z</time>
</trkpt>
<trkpt lat="31.1518100" lon="35.3440300">
<ele>-240.060013</ele>
<time>2024-12-07T10:23:37.256Z</time>
</trkpt>
<trkpt lat="31.1518400" lon="35.3440600">
<ele>-241.059998</ele>
<time>2024-12-07T10:23:37.256Z</time>
</trkpt>
<trkpt lat="31.1518200" lon="35.3440800">
<ele>-241.850006</ele>
<time>2024-12-07T10:23:37.256Z</time>
</trkpt>
<trkpt lat="31.1517700" lon="35.3441000">
<ele>-242.660004</ele>
<time>2024-12-07T10:23:37.256Z</time>
</trkpt>
<trkpt lat="31.1517600" lon="35.3441300">
<ele>-243.720001</ele>
<time>2024-12-07T10:23:37.256Z</time>
</trkpt>
<trkpt lat="31.1518100" lon="35.3441800">
<ele>-245.629990</ele>
<time>2024-12-07T10:23:37.256Z</time>
</trkpt>
<trkpt lat="31.1518300" lon="35.3442100">
<ele>-247.110001</ele>
<time>2024-12-07T10:23:37.256Z</time>
</trkpt>
<trkpt lat="31.1517700" lon="35.3442700">
<ele>-249.550003</ele>
<time>2024-12-07T10:23:37.256Z</time>
</trkpt>
<trkpt lat="31.1517500" lon="35.3443100">
<ele>-251.089996</ele>
<time>2024-12-07T10:23:37.256Z</time>
</trkpt>
<trkpt lat="31.1518100" lon="35.3443900">
<ele>-255.529999</ele>
<time>2024-12-07T10:23:37.256Z</time>
</trkpt>
<trkpt lat="31.1519700" lon="35.3445500">
<ele>-263.949982</ele>
<time>2024-12-07T10:23:37.256Z</time>
</trkpt>
<trkpt lat="31.1521600" lon="35.3447200">
<ele>-268.160004</ele>
<time>2024-12-07T10:23:37.256Z</time>
</trkpt>
<trkpt lat="31.1522900" lon="35.3447800">
<ele>-267.660004</ele>
<time>2024-12-07T10:23:37.256Z</time>
</trkpt>
<trkpt lat="31.1523600" lon="35.3448200">
<ele>-267.100006</ele>
<time>2024-12-07T10:23:37.256Z</time>
</trkpt>
<trkpt lat="31.1523600" lon="35.3449900">
<ele>-269.850006</ele>
<time>2024-12-07T10:23:37.256Z</time>
</trkpt>
<trkpt lat="31.1523500" lon="35.3451500">
<ele>-270.990021</ele>
<time>2024-12-07T10:23:37.256Z</time>
</trkpt>
<trkpt lat="31.1523200" lon="35.3451900">
<ele>-271.720001</ele>
<time>2024-12-07T10:23:37.256Z</time>
</trkpt>
<trkpt lat="31.1522400" lon="35.3451700">
<ele>-272.929993</ele>
<time>2024-12-07T10:23:37.256Z</time>
</trkpt>
<trkpt lat="31.1521700" lon="35.3451600">
<ele>-273.529999</ele>
<time>2024-12-07T10:23:37.256Z</time>
</trkpt>
<trkpt lat="31.1520900" lon="35.3451300">
<ele>-273.889984</ele>
<time>2024-12-07T10:23:37.256Z</time>
</trkpt>
<trkpt lat="31.1519900" lon="35.3450800">
<ele>-274.250000</ele>
<time>2024-12-07T10:23:37.256Z</time>
</trkpt>
<trkpt lat="31.1519500" lon="35.3451000">
<ele>-274.679993</ele>
<time>2024-12-07T10:23:37.256Z</time>
</trkpt>
<trkpt lat="31.1519200" lon="35.3451500">
<ele>-275.309998</ele>
<time>2024-12-07T10:23:37.256Z</time>
</trkpt>
<trkpt lat="31.1519300" lon="35.3452400">
<ele>-275.910004</ele>
<time>2024-12-07T10:23:37.256Z</time>
</trkpt>
<trkpt lat="31.1519400" lon="35.3453100">
<ele>-276.299988</ele>
<time>2024-12-07T10:23:37.256Z</time>
</trkpt>
<trkpt lat="31.1519200" lon="35.3453600">
<ele>-277.000000</ele>
<time>2024-12-07T10:23:37.256Z</time>
</trkpt>
<trkpt lat="31.1518800" lon="35.3454200">
<ele>-278.190002</ele>
<time>2024-12-07T10:23:37.256Z</time>
</trkpt>
<trkpt lat="31.1518400" lon="35.3454600">
<ele>-279.309998</ele>
<time>2024-12-07T10:23:37.256Z</time>
</trkpt>
<trkpt lat="31.1518000" lon="35.3454900">
<ele>-280.399994</ele>
<time>2024-12-07T10:23:37.256Z</time>
</trkpt>
<trkpt lat="31.1517600" lon="35.3455400">
<ele>-281.800018</ele>
<time>2024-12-07T10:23:37.256Z</time>
</trkpt>
<trkpt lat="31.1516600" lon="35.3456300">
<ele>-285.089996</ele>
<time>2024-12-07T10:23:37.256Z</time>
</trkpt>
<trkpt lat="31.1516600" lon="35.3456200">
<ele>-284.949982</ele>
<time>2024-12-07T10:23:37.256Z</time>
</trkpt>
<trkpt lat="31.1516600" lon="35.3456300">
<ele>-285.089996</ele>
<time>2024-12-07T10:23:37.256Z</time>
</trkpt>
<trkpt lat="31.1516000" lon="35.3456700">
<ele>-285.790009</ele>
<time>2024-12-07T10:23:37.256Z</time>
</trkpt>
<trkpt lat="31.1515800" lon="35.3457200">
<ele>-286.500000</ele>
<time>2024-12-07T10:23:37.256Z</time>
</trkpt>
<trkpt lat="31.1515500" lon="35.3458400">
<ele>-288.059998</ele>
<time>2024-12-07T10:23:37.256Z</time>
</trkpt>
<trkpt lat="31.1515400" lon="35.3458900">
<ele>-288.580017</ele>
<time>2024-12-07T10:23:37.256Z</time>
</trkpt>
<trkpt lat="31.1514900" lon="35.3459500">
<ele>-289.489990</ele>
<time>2024-12-07T10:23:37.256Z</time>
</trkpt>
<trkpt lat="31.1514600" lon="35.3459600">
<ele>-289.809998</ele>
<time>2024-12-07T10:23:37.256Z</time>
</trkpt>
<trkpt lat="31.1513600" lon="35.3460100">
<ele>-291.399994</ele>
<time>2024-12-07T10:23:37.256Z</time>
</trkpt>
<trkpt lat="31.1512000" lon="35.3459900">
<ele>-292.390015</ele>
<time>2024-12-07T10:23:37.256Z</time>
</trkpt>
<trkpt lat="31.1511400" lon="35.3460100">
<ele>-293.049988</ele>
<time>2024-12-07T10:23:37.256Z</time>
</trkpt>
<trkpt lat="31.1511100" lon="35.3460600">
<ele>-293.639984</ele>
<time>2024-12-07T10:23:37.256Z</time>
</trkpt>
<trkpt lat="31.1510800" lon="35.3462100">
<ele>-294.109985</ele>
<time>2024-12-07T10:23:37.256Z</time>
</trkpt>
<trkpt lat="31.1510200" lon="35.3461400">
<ele>-294.329987</ele>
<time>2024-12-07T10:23:37.256Z</time>
</trkpt>
<trkpt lat="31.1509300" lon="35.3461000">
<ele>-294.570007</ele>
<time>2024-12-07T10:23:37.256Z</time>
</trkpt>
<trkpt lat="31.1508100" lon="35.3461200">
<ele>-294.830017</ele>
<time>2024-12-07T10:23:37.256Z</time>
</trkpt>
<trkpt lat="31.1507100" lon="35.3462100">
<ele>-294.269989</ele>
<time>2024-12-07T10:23:37.256Z</time>
</trkpt>
<trkpt lat="31.1506900" lon="35.3462600">
<ele>-294.239990</ele>
<time>2024-12-07T10:23:37.256Z</time>
</trkpt>
<trkpt lat="31.1506700" lon="35.3462900">
<ele>-294.199982</ele>
<time>2024-12-07T10:23:37.256Z</time>
</trkpt>
<trkpt lat="31.1506500" lon="35.3463700">
<ele>-294.300018</ele>
<time>2024-12-07T10:23:37.256Z</time>
</trkpt>
<trkpt lat="31.1506600" lon="35.3464800">
<ele>-294.949982</ele>
<time>2024-12-07T10:23:37.256Z</time>
</trkpt>
<trkpt lat="31.1506800" lon="35.3466300">
<ele>-296.089996</ele>
<time>2024-12-07T10:23:37.256Z</time>
</trkpt>
<trkpt lat="31.1507000" lon="35.3466700">
<ele>-296.579987</ele>
<time>2024-12-07T10:23:37.256Z</time>
</trkpt>
<trkpt lat="31.1506800" lon="35.3466300">
<ele>-296.089996</ele>
<time>2024-12-07T10:23:37.256Z</time>
</trkpt>
<trkpt lat="31.1508900" lon="35.3470300">
<ele>-300.169983</ele>
<time>2024-12-07T10:23:37.256Z</time>
</trkpt>
<trkpt lat="31.1509200" lon="35.3471000">
<ele>-299.959991</ele>
<time>2024-12-07T10:23:37.256Z</time>
</trkpt>
<trkpt lat="31.1509200" lon="35.3471800">
<ele>-300.230011</ele>
<time>2024-12-07T10:23:37.256Z</time>
</trkpt>
<trkpt lat="31.1509000" lon="35.3472800">
<ele>-300.149994</ele>
<time>2024-12-07T10:23:37.256Z</time>
</trkpt>
<trkpt lat="31.1508400" lon="35.3474400">
<ele>-299.399994</ele>
<time>2024-12-07T10:23:37.256Z</time>
</trkpt>
<trkpt lat="31.1507600" lon="35.3476300">
<ele>-300.649994</ele>
<time>2024-12-07T10:23:37.256Z</time>
</trkpt>
<trkpt lat="31.1506900" lon="35.3478600">
<ele>-303.460022</ele>
<time>2024-12-07T10:23:37.256Z</time>
</trkpt>
<trkpt lat="31.1506600" lon="35.3479800">
<ele>-304.070007</ele>
<time>2024-12-07T10:23:37.256Z</time>
</trkpt>
<trkpt lat="31.1507000" lon="35.3482100">
<ele>-304.519989</ele>
<time>2024-12-07T10:23:37.256Z</time>
</trkpt>
<trkpt lat="31.1507400" lon="35.3483700">
<ele>-304.440002</ele>
<time>2024-12-07T10:23:37.256Z</time>
</trkpt>
<trkpt lat="31.1507700" lon="35.3484600">
<ele>-303.959991</ele>
<time>2024-12-07T10:23:37.256Z</time>
</trkpt>
<trkpt lat="31.1508200" lon="35.3486400">
<ele>-303.200012</ele>
<time>2024-12-07T10:23:37.256Z</time>
</trkpt>
<trkpt lat="31.1508700" lon="35.3490100">
<ele>-306.289978</ele>
<time>2024-12-07T10:23:37.256Z</time>
</trkpt>
<trkpt lat="31.1509200" lon="35.3493700">
<ele>-310.460022</ele>
<time>2024-12-07T10:23:37.256Z</time>
</trkpt>
<trkpt lat="31.1510400" lon="35.3494700">
<ele>-313.160004</ele>
<time>2024-12-07T10:23:37.256Z</time>
</trkpt>
<trkpt lat="31.1512700" lon="35.3497800">
<ele>-315.090027</ele>
<time>2024-12-07T10:23:37.256Z</time>
</trkpt>
<trkpt lat="31.1512700" lon="35.3500100">
<ele>-315.940002</ele>
<time>2024-12-07T10:23:37.256Z</time>
</trkpt>
<trkpt lat="31.1511600" lon="35.3503900">
<ele>-315.260010</ele>
<time>2024-12-07T10:23:37.256Z</time>
</trkpt>
<trkpt lat="31.1511600" lon="35.3503900">
<ele>-315.260010</ele>
<time>2024-12-07T10:23:37.256Z</time>
</trkpt>
<trkpt lat="31.1511600" lon="35.3503900">
<ele>-315.260010</ele>
<time>2024-12-07T10:23:37.256Z</time>
</trkpt>
<trkpt lat="31.1511500" lon="35.3504300">
<ele>-315.350006</ele>
<time>2024-12-07T10:23:37.256Z</time>
</trkpt>
<trkpt lat="31.1511500" lon="35.3510100">
<ele>-316.110016</ele>
<time>2024-12-07T10:23:37.256Z</time>
</trkpt>
<trkpt lat="31.1510900" lon="35.3512400">
<ele>-316.930023</ele>
<time>2024-12-07T10:23:37.256Z</time>
</trkpt>
<trkpt lat="31.1510700" lon="35.3513400">
<ele>-316.760010</ele>
<time>2024-12-07T10:23:37.256Z</time>
</trkpt>
<trkpt lat="31.1509400" lon="35.3516500">
<ele>-314.110016</ele>
<time>2024-12-07T10:23:37.256Z</time>
</trkpt>
<trkpt lat="31.1507100" lon="35.3521100">
<ele>-318.760010</ele>
<time>2024-12-07T10:23:37.256Z</time>
</trkpt>
<trkpt lat="31.1505500" lon="35.3524100">
<ele>-323.839996</ele>
<time>2024-12-07T10:23:37.256Z</time>
</trkpt>
<trkpt lat="31.1504800" lon="35.3525600">
<ele>-321.949982</ele>
<time>2024-12-07T10:23:37.256Z</time>
</trkpt>
<trkpt lat="31.1505200" lon="35.3527600">
<ele>-323.470001</ele>
<time>2024-12-07T10:23:37.256Z</time>
</trkpt>
<trkpt lat="31.1504600" lon="35.3530100">
<ele>-319.230011</ele>
<time>2024-12-07T10:23:37.256Z</time>
</trkpt>
<trkpt lat="31.1504100" lon="35.3532400">
<ele>-315.640015</ele>
<time>2024-12-07T10:23:37.256Z</time>
</trkpt>
<trkpt lat="31.1504200" lon="35.3535000">
<ele>-312.669983</ele>
<time>2024-12-07T10:23:37.256Z</time>
</trkpt>
<trkpt lat="31.1504000" lon="35.3538100">
<ele>-312.279999</ele>
<time>2024-12-07T10:23:37.256Z</time>
</trkpt>
<trkpt lat="31.1503000" lon="35.3540900">
<ele>-313.429993</ele>
<time>2024-12-07T10:23:37.256Z</time>
</trkpt>
<trkpt lat="31.1502300" lon="35.3541600">
<ele>-313.429993</ele>
<time>2024-12-07T10:23:37.256Z</time>
</trkpt>
<trkpt lat="31.1501600" lon="35.3542400">
<ele>-313.250000</ele>
<time>2024-12-07T10:23:37.256Z</time>
</trkpt>
<trkpt lat="31.1500100" lon="35.3543600">
<ele>-315.109985</ele>
<time>2024-12-07T10:23:37.256Z</time>
</trkpt>
<trkpt lat="31.1499700" lon="35.3544100">
<ele>-316.129974</ele>
<time>2024-12-07T10:23:37.256Z</time>
</trkpt>
<trkpt lat="31.1498800" lon="35.3545100">
<ele>-316.710022</ele>
<time>2024-12-07T10:23:37.256Z</time>
</trkpt>
<trkpt lat="31.1497800" lon="35.3546100">
<ele>-317.850006</ele>
<time>2024-12-07T10:23:37.256Z</time>
</trkpt>
<trkpt lat="31.1493300" lon="35.3549600">
<ele>-325.410004</ele>
<time>2024-12-07T10:23:37.256Z</time>
</trkpt>
<trkpt lat="31.1492600" lon="35.3550400">
<ele>-325.790009</ele>
<time>2024-12-07T10:23:37.256Z</time>
</trkpt>
<trkpt lat="31.1492000" lon="35.3551500">
<ele>-324.630005</ele>
<time>2024-12-07T10:23:37.256Z</time>
</trkpt>
<trkpt lat="31.1491800" lon="35.3552200">
<ele>-323.730011</ele>
<time>2024-12-07T10:23:37.256Z</time>
</trkpt>
<trkpt lat="31.1491800" lon="35.3552200">
<ele>-323.730011</ele>
<time>2024-12-07T10:23:37.256Z</time>
</trkpt>
<trkpt lat="31.1491800" lon="35.3552200">
<ele>-323.730011</ele>
<time>2024-12-07T10:23:37.256Z</time>
</trkpt>
<trkpt lat="31.1491700" lon="35.3552600">
<ele>-323.239990</ele>
<time>2024-12-07T10:23:37.256Z</time>
</trkpt>
<trkpt lat="31.1491500" lon="35.3554500">
<ele>-321.720001</ele>
<time>2024-12-07T10:23:37.256Z</time>
</trkpt>
<trkpt lat="31.1491500" lon="35.3556600">
<ele>-320.809998</ele>
<time>2024-12-07T10:23:37.256Z</time>
</trkpt>
<trkpt lat="31.1490900" lon="35.3559900">
<ele>-323.789978</ele>
<time>2024-12-07T10:23:37.256Z</time>
</trkpt>
<trkpt lat="31.1489900" lon="35.3562500">
<ele>-326.630005</ele>
<time>2024-12-07T10:23:37.256Z</time>
</trkpt>
<trkpt lat="31.1486700" lon="35.3569700">
<ele>-329.540009</ele>
<time>2024-12-07T10:23:37.256Z</time>
</trkpt>
<trkpt lat="31.1485800" lon="35.3572400">
<ele>-329.439972</ele>
<time>2024-12-07T10:23:37.256Z</time>
</trkpt>
<trkpt lat="31.1485600" lon="35.3573900">
<ele>-329.619995</ele>
<time>2024-12-07T10:23:37.256Z</time>
</trkpt>
<trkpt lat="31.1485700" lon="35.3578400">
<ele>-328.889984</ele>
<time>2024-12-07T10:23:37.256Z</time>
</trkpt>
<trkpt lat="31.1486300" lon="35.3581600">
<ele>-326.799988</ele>
<time>2024-12-07T10:23:37.256Z</time>
</trkpt>
<trkpt lat="31.1486700" lon="35.3584300">
<ele>-324.309998</ele>
<time>2024-12-07T10:23:37.256Z</time>
</trkpt>
<trkpt lat="31.1486800" lon="35.3586500">
<ele>-323.260010</ele>
<time>2024-12-07T10:23:37.256Z</time>
</trkpt>
<trkpt lat="31.1487400" lon="35.3590200">
<ele>-322.700012</ele>
<time>2024-12-07T10:23:37.256Z</time>
</trkpt>
<trkpt lat="31.1488200" lon="35.3592800">
<ele>-322.350006</ele>
<time>2024-12-07T10:23:37.256Z</time>
</trkpt>
<trkpt lat="31.1490800" lon="35.3598100">
<ele>-326.730011</ele>
<time>2024-12-07T10:23:37.256Z</time>
</trkpt>
<trkpt lat="31.1491700" lon="35.3600600">
<ele>-327.049988</ele>
<time>2024-12-07T10:23:37.256Z</time>
</trkpt>
<trkpt lat="31.1493100" lon="35.3604100">
<ele>-328.490021</ele>
<time>2024-12-07T10:23:37.256Z</time>
</trkpt>
<trkpt lat="31.1494900" lon="35.3608400">
<ele>-332.720001</ele>
<time>2024-12-07T10:23:37.256Z</time>
</trkpt>
<trkpt lat="31.1495800" lon="35.3610000">
<ele>-335.170013</ele>
<time>2024-12-07T10:23:37.256Z</time>
</trkpt>
<trkpt lat="31.1496700" lon="35.3611000">
<ele>-336.570007</ele>
<time>2024-12-07T10:23:37.256Z</time>
</trkpt>
<trkpt lat="31.1497400" lon="35.3611500">
<ele>-336.970032</ele>
<time>2024-12-07T10:23:37.256Z</time>
</trkpt>
<trkpt lat="31.1499200" lon="35.3611900">
<ele>-339.979980</ele>
<time>2024-12-07T10:23:37.256Z</time>
</trkpt>
<trkpt lat="31.1500600" lon="35.3612500">
<ele>-342.279968</ele>
<time>2024-12-07T10:23:37.256Z</time>
</trkpt>
<trkpt lat="31.1501800" lon="35.3613500">
<ele>-343.649994</ele>
<time>2024-12-07T10:23:37.256Z</time>
</trkpt>
<trkpt lat="31.1501900" lon="35.3613400">
<ele>-343.439972</ele>
<time>2024-12-07T10:23:37.256Z</time>
</trkpt>
<trkpt lat="31.1502100" lon="35.3613600">
<ele>-343.720001</ele>
<time>2024-12-07T10:23:37.256Z</time>
</trkpt>
<trkpt lat="31.1502500" lon="35.3614000">
<ele>-344.130005</ele>
<time>2024-12-07T10:23:37.256Z</time>
</trkpt>
<trkpt lat="31.1502900" lon="35.3614400">
<ele>-344.190002</ele>
<time>2024-12-07T10:23:37.256Z</time>
</trkpt>
<trkpt lat="31.1503200" lon="35.3614800">
<ele>-344.379974</ele>
<time>2024-12-07T10:23:37.256Z</time>
</trkpt>
<trkpt lat="31.1503400" lon="35.3615200">
<ele>-344.580017</ele>
<time>2024-12-07T10:23:37.256Z</time>
</trkpt>
<trkpt lat="31.1503600" lon="35.3615600">
<ele>-344.800018</ele>
<time>2024-12-07T10:23:37.256Z</time>
</trkpt>
<trkpt lat="31.1503800" lon="35.3616300">
<ele>-345.190033</ele>
<time>2024-12-07T10:23:37.256Z</time>
</trkpt>
<trkpt lat="31.1503900" lon="35.3617000">
<ele>-345.669983</ele>
<time>2024-12-07T10:23:37.256Z</time>
</trkpt>
<trkpt lat="31.1504000" lon="35.3617400">
<ele>-346.000031</ele>
<time>2024-12-07T10:23:37.256Z</time>
</trkpt>
<trkpt lat="31.1504200" lon="35.3618200">
<ele>-346.600006</ele>
<time>2024-12-07T10:23:37.256Z</time>
</trkpt>
<trkpt lat="31.1504700" lon="35.3618900">
<ele>-346.989990</ele>
<time>2024-12-07T10:23:37.256Z</time>
</trkpt>
<trkpt lat="31.1505700" lon="35.3619100">
<ele>-347.089996</ele>
<time>2024-12-07T10:23:37.256Z</time>
</trkpt>
<trkpt lat="31.1505400" lon="35.3619200">
<ele>-346.959991</ele>
<time>2024-12-07T10:23:37.256Z</time>
</trkpt>
<trkpt lat="31.1504900" lon="35.3619500">
<ele>-347.339996</ele>
<time>2024-12-07T10:23:37.256Z</time>
</trkpt>
<trkpt lat="31.1504600" lon="35.3621700">
<ele>-351.380005</ele>
<time>2024-12-07T10:23:37.256Z</time>
</trkpt>
<trkpt lat="31.1504600" lon="35.3624000">
<ele>-354.869995</ele>
<time>2024-12-07T10:23:37.256Z</time>
</trkpt>
<trkpt lat="31.1504700" lon="35.3624600">
<ele>-355.809998</ele>
<time>2024-12-07T10:23:37.256Z</time>
</trkpt>
<trkpt lat="31.1504800" lon="35.3625200">
<ele>-356.740021</ele>
<time>2024-12-07T10:23:37.256Z</time>
</trkpt>
<trkpt lat="31.1505100" lon="35.3625800">
<ele>-357.819977</ele>
<time>2024-12-07T10:23:37.256Z</time>
</trkpt>
<trkpt lat="31.1506000" lon="35.3627000">
<ele>-360.040009</ele>
<time>2024-12-07T10:23:37.256Z</time>
</trkpt>
<trkpt lat="31.1506600" lon="35.3627600">
<ele>-361.119995</ele>
<time>2024-12-07T10:23:37.256Z</time>
</trkpt>
<trkpt lat="31.1508100" lon="35.3628600">
<ele>-363.049988</ele>
<time>2024-12-07T10:23:37.256Z</time>
</trkpt>
<trkpt lat="31.1509000" lon="35.3628900">
<ele>-364.100006</ele>
<time>2024-12-07T10:23:37.256Z</time>
</trkpt>
<trkpt lat="31.1509900" lon="35.3629200">
<ele>-365.180023</ele>
<time>2024-12-07T10:23:37.256Z</time>
</trkpt>
<trkpt lat="31.1512200" lon="35.3629400">
<ele>-366.729980</ele>
<time>2024-12-07T10:23:37.256Z</time>
</trkpt>
<trkpt lat="31.1513200" lon="35.3629500">
<ele>-367.230011</ele>
<time>2024-12-07T10:23:37.256Z</time>
</trkpt>
<trkpt lat="31.1514300" lon="35.3629700">
<ele>-368.269989</ele>
<time>2024-12-07T10:23:37.256Z</time>
</trkpt>
<trkpt lat="31.1515400" lon="35.3630000">
<ele>-370.160004</ele>
<time>2024-12-07T10:23:37.256Z</time>
</trkpt>
<trkpt lat="31.1517600" lon="35.3631100">
<ele>-372.519989</ele>
<time>2024-12-07T10:23:37.256Z</time>
</trkpt>
<trkpt lat="31.1518500" lon="35.3631900">
<ele>-372.630005</ele>
<time>2024-12-07T10:23:37.256Z</time>
</trkpt>
<trkpt lat="31.1519300" lon="35.3632700">
<ele>-373.160004</ele>
<time>2024-12-07T10:23:37.256Z</time>
</trkpt>
<trkpt lat="31.1520000" lon="35.3633800">
<ele>-373.769989</ele>
<time>2024-12-07T10:23:37.256Z</time>
</trkpt>
<trkpt lat="31.1520600" lon="35.3634800">
<ele>-374.359985</ele>
<time>2024-12-07T10:23:37.256Z</time>
</trkpt>
<trkpt lat="31.1520900" lon="35.3635300">
<ele>-374.770020</ele>
<time>2024-12-07T10:23:37.256Z</time>
</trkpt>
<trkpt lat="31.1521000" lon="35.3635200">
<ele>-374.529999</ele>
<time>2024-12-07T10:23:37.256Z</time>
</trkpt>
<trkpt lat="31.1521700" lon="35.3636800">
<ele>-376.119995</ele>
<time>2024-12-07T10:23:37.256Z</time>
</trkpt>
<trkpt lat="31.1521800" lon="35.3637400">
<ele>-376.699982</ele>
<time>2024-12-07T10:23:37.256Z</time>
</trkpt>
<trkpt lat="31.1521900" lon="35.3637900">
<ele>-377.160004</ele>
<time>2024-12-07T10:23:37.256Z</time>
</trkpt>
<trkpt lat="31.1521900" lon="35.3638600">
<ele>-377.920013</ele>
<time>2024-12-07T10:23:37.256Z</time>
</trkpt>
<trkpt lat="31.1521700" lon="35.3639500">
<ele>-378.950012</ele>
<time>2024-12-07T10:23:37.256Z</time>
</trkpt>
<trkpt lat="31.1521500" lon="35.3639800">
<ele>-379.329987</ele>
<time>2024-12-07T10:23:37.256Z</time>
</trkpt>
<trkpt lat="31.1521400" lon="35.3640100">
<ele>-379.640015</ele>
<time>2024-12-07T10:23:37.256Z</time>
</trkpt>
<trkpt lat="31.1521300" lon="35.3640500">
<ele>-380.019989</ele>
<time>2024-12-07T10:23:37.256Z</time>
</trkpt>
<trkpt lat="31.1521300" lon="35.3641100">
<ele>-380.519989</ele>
<time>2024-12-07T10:23:37.256Z</time>
</trkpt>
<trkpt lat="31.1521300" lon="35.3641400">
<ele>-380.779999</ele>
<time>2024-12-07T10:23:37.256Z</time>
</trkpt>
<trkpt lat="31.1521500" lon="35.3641800">
<ele>-381.040009</ele>
<time>2024-12-07T10:23:37.256Z</time>
</trkpt>
<trkpt lat="31.1519200" lon="35.3642700">
<ele>-380.939972</ele>
<time>2024-12-07T10:23:37.256Z</time>
</trkpt>
<trkpt lat="31.1518800" lon="35.3642800">
<ele>-380.859985</ele>
<time>2024-12-07T10:23:37.256Z</time>
</trkpt>
<trkpt lat="31.1518800" lon="35.3642900">
<ele>-380.869995</ele>
<time>2024-12-07T10:23:37.256Z</time>
</trkpt>
<trkpt lat="31.1516700" lon="35.3643700">
<ele>-380.739990</ele>
<time>2024-12-07T10:23:37.256Z</time>
</trkpt>
<trkpt lat="31.1511600" lon="35.3645700">
<ele>-380.550018</ele>
<time>2024-12-07T10:23:37.256Z</time>
</trkpt>
<trkpt lat="31.1511600" lon="35.3645700">
<ele>-380.550018</ele>
<time>2024-12-07T10:23:37.256Z</time>
</trkpt>
<trkpt lat="31.1509600" lon="35.3646500">
<ele>-381.000000</ele>
<time>2024-12-07T10:23:37.256Z</time>
</trkpt>
<trkpt lat="31.1512200" lon="35.3654100">
<ele>-380.899994</ele>
<time>2024-12-07T10:23:37.256Z</time>
</trkpt>
<trkpt lat="31.1512200" lon="35.3654300">
<ele>-380.939972</ele>
<time>2024-12-07T10:23:37.256Z</time>
</trkpt>
<trkpt lat="31.1511700" lon="35.3654500">
<ele>-381.279968</ele>
<time>2024-12-07T10:23:37.256Z</time>
</trkpt>
<trkpt lat="31.1511300" lon="35.3654700">
<ele>-381.579987</ele>
<time>2024-12-07T10:23:37.256Z</time>
</trkpt>
<trkpt lat="31.1510500" lon="35.3654900">
<ele>-382.420013</ele>
<time>2024-12-07T10:23:37.256Z</time>
</trkpt>
<trkpt lat="31.1507900" lon="35.3655300">
<ele>-385.080017</ele>
<time>2024-12-07T10:23:37.256Z</time>
</trkpt>
<trkpt lat="31.1507200" lon="35.3655200">
<ele>-385.330017</ele>
<time>2024-12-07T10:23:37.256Z</time>
</trkpt>
<trkpt lat="31.1504800" lon="35.3654800">
<ele>-386.200012</ele>
<time>2024-12-07T10:23:37.256Z</time>
</trkpt>
<trkpt lat="31.1503200" lon="35.3653600">
<ele>-386.250000</ele>
<time>2024-12-07T10:23:37.256Z</time>
</trkpt>
<trkpt lat="31.1502200" lon="35.3653000">
<ele>-386.289978</ele>
<time>2024-12-07T10:23:37.256Z</time>
</trkpt>
<trkpt lat="31.1501000" lon="35.3653000">
<ele>-386.719971</ele>
<time>2024-12-07T10:23:37.256Z</time>
</trkpt>
<trkpt lat="31.1500600" lon="35.3653000">
<ele>-386.859985</ele>
<time>2024-12-07T10:23:37.256Z</time>
</trkpt>
<trkpt lat="31.1499800" lon="35.3653600">
<ele>-387.149994</ele>
<time>2024-12-07T10:23:37.256Z</time>
</trkpt>
<trkpt lat="31.1498900" lon="35.3654500">
<ele>-386.830017</ele>
<time>2024-12-07T10:23:37.256Z</time>
</trkpt>
<trkpt lat="31.1498200" lon="35.3655600">
<ele>-386.719971</ele>
<time>2024-12-07T10:23:37.256Z</time>
</trkpt>
<trkpt lat="31.1497800" lon="35.3656200">
<ele>-386.779999</ele>
<time>2024-12-07T10:23:37.256Z</time>
</trkpt>
<trkpt lat="31.1496900" lon="35.3656700">
<ele>-386.759979</ele>
<time>2024-12-07T10:23:37.256Z</time>
</trkpt>
<trkpt lat="31.1494800" lon="35.3660800">
<ele>-390.439972</ele>
<time>2024-12-07T10:23:37.256Z</time>
</trkpt>
<trkpt lat="31.1493700" lon="35.3665000">
<ele>-391.160004</ele>
<time>2024-12-07T10:23:37.256Z</time>
</trkpt>
<trkpt lat="31.1493700" lon="35.3665000">
<ele>-391.160004</ele>
<time>2024-12-07T10:23:37.256Z</time>
</trkpt>
<trkpt lat="31.1493400" lon="35.3666200">
<ele>-391.059998</ele>
<time>2024-12-07T10:23:37.256Z</time>
</trkpt>
<trkpt lat="31.1491600" lon="35.3670800">
<ele>-390.959991</ele>
<time>2024-12-07T10:23:37.256Z</time>
</trkpt>
<trkpt lat="31.1491400" lon="35.3676400">
<ele>-391.000000</ele>
<time>2024-12-07T10:23:37.256Z</time>
</trkpt>
<trkpt lat="31.1488800" lon="35.3679600">
<ele>-390.959991</ele>
<time>2024-12-07T10:23:37.256Z</time>
</trkpt>
<trkpt lat="31.1487300" lon="35.3680900">
<ele>-390.619995</ele>
<time>2024-12-07T10:23:37.256Z</time>
</trkpt>
<trkpt lat="31.1484400" lon="35.3682700">
<ele>-392.020020</ele>
<time>2024-12-07T10:23:37.256Z</time>
</trkpt>
<trkpt lat="31.1482600" lon="35.3684300">
<ele>-392.299988</ele>
<time>2024-12-07T10:23:37.256Z</time>
</trkpt>
<trkpt lat="31.1480400" lon="35.3686900">
<ele>-390.619995</ele>
<time>2024-12-07T10:23:37.256Z</time>
</trkpt>
<trkpt lat="31.1479000" lon="35.3689100">
<ele>-389.559998</ele>
<time>2024-12-07T10:23:37.256Z</time>
</trkpt>
<trkpt lat="31.1478700" lon="35.3690800">
<ele>-390.480011</ele>
<time>2024-12-07T10:23:37.256Z</time>
</trkpt>
<trkpt lat="31.1478400" lon="35.3693400">
<ele>-391.200012</ele>
<time>2024-12-07T10:23:37.256Z</time>
</trkpt>
<trkpt lat="31.1478400" lon="35.3695500">
<ele>-391.790009</ele>
<time>2024-12-07T10:23:37.256Z</time>
</trkpt>
<trkpt lat="31.1480300" lon="35.3697500">
<ele>-391.460022</ele>
<time>2024-12-07T10:23:37.256Z</time>
</trkpt>
<trkpt lat="31.1481300" lon="35.3698200">
<ele>-391.599976</ele>
<time>2024-12-07T10:23:37.256Z</time>
</trkpt>
<trkpt lat="31.1482400" lon="35.3700100">
<ele>-392.089996</ele>
<time>2024-12-07T10:23:37.256Z</time>
</trkpt>
</trkseg>
</trk>
</gpx>
